| time (UTC) | temp F | wind direction | speed MPH | gust MPH | rain 1hr in | rain 24hr in | rain mn in | humidity % | barometer mb |
| 20260901235716 | 86 | 14 | 1.0 | 3.0 | 0.00 | 0.00 | 0.00 | 72 | 1011.7 |
| 20260901235709 | 86 | 0 | 1.0 | 3.0 | 0.00 | 0.00 | 0.00 | 72 | 1011.7 |
| 20260901235616 | 86 | 359 | 1.0 | 3.0 | 0.00 | 0.00 | 0.00 | 72 | 1011.7 |
| 20260901235513 | 86 | 12 | 1.0 | 3.0 | 0.00 | 0.00 | 0.00 | 72 | 1011.6 |
| 20260901235413 | 86 | 8 | 1.0 | 4.0 | 0.00 | 0.00 | 0.00 | 72 | 1011.6 |
| 20260901235313 | 86 | 333 | 2.0 | 4.0 | 0.00 | 0.00 | 0.00 | 72 | 1011.6 |
| 20260901235213 | 87 | 48 | 2.0 | 4.0 | 0.00 | 0.00 | 0.00 | 72 | 1011.6 |
| 20260901235206 | 87 | 334 | 2.0 | 4.0 | 0.00 | 0.00 | 0.00 | 71 | 1011.7 |
| 20260901235113 | 87 | 359 | 2.0 | 4.0 | 0.00 | 0.00 | 0.00 | 71 | 1011.7 |
| 20260901235010 | 87 | 1 | 2.0 | 4.0 | 0.00 | 0.00 | 0.00 | 71 | 1011.7 |
| 20260901234925 | 87 | 339 | 2.0 | 4.0 | 0.00 | 0.00 | 0.00 | 71 | 1011.7 |
| 20260901234910 | 87 | 42 | 2.0 | 4.0 | 0.00 | 0.00 | 0.00 | 71 | 1011.7 |
| 20260901234813 | 87 | 1 | 2.0 | 4.0 | 0.00 | 0.00 | 0.00 | 71 | 1011.7 |
| 20260901234703 | 87 | 236 | 2.0 | 4.0 | 0.00 | 0.00 | 0.00 | 71 | 1011.7 |
| 20260901234603 | 87 | 344 | 2.0 | 4.0 | 0.00 | 0.00 | 0.00 | 70 | 1011.7 |
| 20260901234504 | 87 | 14 | 2.0 | 4.0 | 0.00 | 0.00 | 0.00 | 70 | 1011.7 |
| 20260901234401 | 87 | 30 | 1.0 | 4.0 | 0.00 | 0.00 | 0.00 | 70 | 1011.7 |
| 20260901234258 | 87 | 26 | 1.0 | 4.0 | 0.00 | 0.00 | 0.00 | 69 | 1011.7 |
| 20260901234207 | 88 | 322 | 1.0 | 4.0 | 0.00 | 0.00 | 0.00 | 68 | 1011.7 |
| 20260901234154 | 88 | 355 | 1.0 | 4.0 | 0.00 | 0.00 | 0.00 | 68 | 1011.7 |
| 20260901234055 | 88 | 341 | 1.0 | 4.0 | 0.00 | 0.00 | 0.00 | 68 | 1011.7 |
| 20260901233955 | 88 | 37 | 1.0 | 4.0 | 0.00 | 0.00 | 0.00 | 68 | 1011.7 |
| 20260901233925 | 88 | 320 | 1.0 | 4.0 | 0.00 | 0.00 | 0.00 | 67 | 1011.7 |
| 20260901233846 | 88 | 196 | 1.0 | 4.0 | 0.00 | 0.00 | 0.00 | 68 | 1011.7 |
| 20260901233811 | 88 | 353 | 1.0 | 4.0 | 0.00 | 0.00 | 0.00 | 68 | 1011.7 |
| 20260901233646 | 88 | 277 | 1.0 | 4.0 | 0.00 | 0.00 | 0.00 | 67 | 1011.7 |
| 20260901233540 | 88 | 347 | 1.0 | 4.0 | 0.00 | 0.00 | 0.00 | 67 | 1011.8 |
| 20260901233440 | 88 | 8 | 1.0 | 4.0 | 0.00 | 0.00 | 0.00 | 67 | 1011.8 |
| 20260901233340 | 88 | 2 | 1.0 | 4.0 | 0.00 | 0.00 | 0.00 | 67 | 1011.8 |
| 20260901233240 | 88 | 13 | 1.0 | 4.0 | 0.00 | 0.00 | 0.00 | 67 | 1011.8 |
| 20260901233206 | 88 | 7 | 1.0 | 3.0 | 0.00 | 0.00 | 0.00 | 67 | 1011.8 |
| 20260901233148 | 88 | 352 | 2.0 | 6.0 | 0.00 | 0.00 | 0.00 | 66 | 1011.8 |
| 20260901233140 | 88 | 261 | 1.0 | 3.0 | 0.00 | 0.00 | 0.00 | 67 | 1011.8 |
| 20260901233040 | 88 | 346 | 1.0 | 3.0 | 0.00 | 0.00 | 0.00 | 66 | 1011.8 |
| 20260901233035 | 88 | 337 | 1.0 | 3.0 | 0.00 | 0.00 | 0.00 | 66 | 1011.8 |
| 20260901232839 | 88 | 330 | 2.0 | 6.0 | 0.00 | 0.00 | 0.00 | 66 | 1011.8 |
| 20260901232812 | 88 | 350 | 2.0 | 6.0 | 0.00 | 0.00 | 0.00 | 66 | 1011.8 |
| 20260901232640 | 88 | 316 | 2.0 | 6.0 | 0.00 | 0.00 | 0.00 | 66 | 1011.8 |
| 20260901232540 | 88 | 344 | 2.0 | 6.0 | 0.00 | 0.00 | 0.00 | 67 | 1011.8 |
| 20260901232440 | 88 | 346 | 2.0 | 6.0 | 0.00 | 0.00 | 0.00 | 67 | 1011.8 |
| 20260901232337 | 88 | 11 | 2.0 | 6.0 | 0.00 | 0.00 | 0.00 | 67 | 1011.8 |
| 20260901232234 | 88 | 337 | 2.0 | 6.0 | 0.00 | 0.00 | 0.00 | 67 | 1011.8 |
| 20260901232206 | 89 | 73 | 2.0 | 6.0 | 0.00 | 0.00 | 0.00 | 65 | 1011.8 |
| 20260901232134 | 89 | 342 | 2.0 | 6.0 | 0.00 | 0.00 | 0.00 | 65 | 1011.8 |
| 20260901232034 | 89 | 279 | 2.0 | 6.0 | 0.00 | 0.00 | 0.00 | 65 | 1011.8 |
| 20260901231934 | 89 | 15 | 2.0 | 6.0 | 0.00 | 0.00 | 0.00 | 65 | 1011.8 |
| 20260901231834 | 89 | 325 | 2.0 | 6.0 | 0.00 | 0.00 | 0.00 | 66 | 1011.8 |
| 20260901231731 | 89 | 48 | 2.0 | 6.0 | 0.00 | 0.00 | 0.00 | 66 | 1011.9 |
| 20260901231706 | 89 | 322 | 2.0 | 6.0 | 0.00 | 0.00 | 0.00 | 66 | 1011.8 |
| 20260901231628 | 89 | 349 | 2.0 | 6.0 | 0.00 | 0.00 | 0.00 | 66 | 1011.8 |
| 20260901231525 | 89 | 216 | 2.0 | 6.0 | 0.00 | 0.00 | 0.00 | 66 | 1011.9 |
| 20260901231425 | 89 | 30 | 2.0 | 6.0 | 0.00 | 0.00 | 0.00 | 66 | 1011.9 |
| 20260901231325 | 89 | 14 | 2.0 | 6.0 | 0.00 | 0.00 | 0.00 | 65 | 1011.9 |
| 20260901231225 | 89 | 244 | 2.0 | 5.0 | 0.00 | 0.00 | 0.00 | 65 | 1011.9 |
| 20260901231206 | 89 | 345 | 2.0 | 6.0 | 0.00 | 0.00 | 0.00 | 65 | 1011.9 |
| 20260901231125 | 89 | 334 | 2.0 | 6.0 | 0.00 | 0.00 | 0.00 | 65 | 1011.9 |
| 20260901231025 | 89 | 21 | 2.0 | 6.0 | 0.00 | 0.00 | 0.00 | 65 | 1011.9 |
| 20260901230929 | 89 | 45 | 2.0 | 8.0 | 0.00 | 0.00 | 0.00 | 65 | 1011.9 |
| 20260901230925 | 89 | 336 | 2.0 | 7.0 | 0.00 | 0.00 | 0.00 | 65 | 1011.9 |
| 20260901230826 | 89 | 339 | 2.0 | 8.0 | 0.00 | 0.00 | 0.00 | 65 | 1011.9 |
| 20260901230811 | 89 | 256 | 2.0 | 8.0 | 0.00 | 0.00 | 0.00 | 65 | 1011.9 |
| 20260901230622 | 89 | 118 | 2.0 | 8.0 | 0.00 | 0.00 | 0.00 | 65 | 1011.9 |
| 20260901230522 | 89 | 64 | 2.0 | 8.0 | 0.00 | 0.00 | 0.00 | 66 | 1011.9 |
| 20260901230419 | 89 | 358 | 2.0 | 8.0 | 0.00 | 0.00 | 0.00 | 66 | 1011.9 |
| 20260901230319 | 89 | 261 | 2.0 | 8.0 | 0.00 | 0.00 | 0.00 | 65 | 1011.9 |
| 20260901230219 | 89 | 315 | 2.0 | 8.0 | 0.00 | 0.00 | 0.00 | 65 | 1011.9 |
| 20260901230206 | 89 | 346 | 2.0 | 8.0 | 0.00 | 0.00 | 0.00 | 65 | 1011.9 |
| 20260901230119 | 89 | 233 | 2.0 | 8.0 | 0.00 | 0.00 | 0.00 | 65 | 1011.9 |
| 20260901230019 | 89 | 335 | 2.0 | 8.0 | 0.00 | 0.00 | 0.00 | 65 | 1011.9 |
| 20260901225920 | 89 | 2 | 2.0 | 8.0 | 0.00 | 0.00 | 0.00 | 65 | 1011.8 |
| 20260901225820 | 89 | 337 | 2.0 | 6.0 | 0.00 | 0.00 | 0.00 | 65 | 1011.8 |
| 20260901225713 | 89 | 340 | 2.0 | 6.0 | 0.00 | 0.00 | 0.00 | 65 | 1011.8 |
| 20260901225704 | 89 | 22 | 2.0 | 6.0 | 0.00 | 0.00 | 0.00 | 65 | 1011.8 |
| 20260901225613 | 89 | 335 | 2.0 | 6.0 | 0.00 | 0.00 | 0.00 | 65 | 1011.8 |
| 20260901225508 | 89 | 314 | 1.0 | 6.0 | 0.00 | 0.00 | 0.00 | 65 | 1011.8 |
| 20260901225431 | 89 | 310 | 1.0 | 4.0 | 0.00 | 0.00 | 0.00 | 65 | 1011.8 |
| 20260901225404 | 89 | 333 | 1.0 | 6.0 | 0.00 | 0.00 | 0.00 | 65 | 1011.8 |
| 20260901225314 | 89 | 351 | 1.0 | 6.0 | 0.00 | 0.00 | 0.00 | 65 | 1011.8 |
| 20260901225308 | 89 | 310 | 1.0 | 4.0 | 0.00 | 0.00 | 0.00 | 65 | 1011.8 |
| 20260901225102 | 89 | 12 | 1.0 | 2.0 | 0.00 | 0.00 | 0.00 | 65 | 1011.8 |
| 20260901225001 | 89 | 327 | 1.0 | 2.0 | 0.00 | 0.00 | 0.00 | 65 | 1011.8 |
| 20260901224902 | 89 | 47 | 1.0 | 2.0 | 0.00 | 0.00 | 0.00 | 65 | 1011.8 |
| 20260901224802 | 89 | 348 | 1.0 | 2.0 | 0.00 | 0.00 | 0.00 | 65 | 1011.8 |
| 20260901224706 | 89 | 283 | 1.0 | 2.0 | 0.00 | 0.00 | 0.00 | 65 | 1011.8 |
| 20260901224702 | 89 | 263 | 1.0 | 2.0 | 0.00 | 0.00 | 0.00 | 65 | 1011.8 |
| 20260901224601 | 89 | 340 | 1.0 | 2.0 | 0.00 | 0.00 | 0.00 | 65 | 1011.8 |
| 20260901224501 | 89 | 287 | 1.0 | 3.0 | 0.00 | 0.00 | 0.00 | 65 | 1011.8 |
| 20260901224402 | 89 | 299 | 1.0 | 3.0 | 0.00 | 0.00 | 0.00 | 65 | 1011.8 |
| 20260901224302 | 89 | 358 | 1.0 | 3.0 | 0.00 | 0.00 | 0.00 | 66 | 1011.8 |
| 20260901224204 | 89 | 275 | 1.0 | 3.0 | 0.00 | 0.00 | 0.00 | 66 | 1011.8 |
| 20260901224159 | 89 | 301 | 1.0 | 3.0 | 0.00 | 0.00 | 0.00 | 66 | 1011.8 |
| 20260901224058 | 89 | 351 | 1.0 | 3.0 | 0.00 | 0.00 | 0.00 | 66 | 1011.8 |
| 20260901223959 | 89 | 340 | 1.0 | 3.0 | 0.00 | 0.00 | 0.00 | 66 | 1011.8 |
| 20260901223855 | 89 | 351 | 1.0 | 3.0 | 0.00 | 0.00 | 0.00 | 66 | 1011.8 |
| 20260901223747 | 89 | 337 | 1.0 | 3.0 | 0.00 | 0.00 | 0.00 | 66 | 1011.8 |
| 20260901223700 | 89 | 359 | 1.0 | 3.0 | 0.00 | 0.00 | 0.00 | 66 | 1011.8 |
| 20260901223644 | 89 | 333 | 1.0 | 3.0 | 0.00 | 0.00 | 0.00 | 66 | 1011.8 |
| 20260901223543 | 89 | 43 | 1.0 | 3.0 | 0.00 | 0.00 | 0.00 | 66 | 1011.8 |
| 20260901223443 | 89 | 30 | 1.0 | 2.0 | 0.00 | 0.00 | 0.00 | 66 | 1011.8 |
| 20260901223341 | 89 | 29 | 1.0 | 2.0 | 0.00 | 0.00 | 0.00 | 66 | 1011.8 |
| 20260901223240 | 89 | 279 | 1.0 | 2.0 | 0.00 | 0.00 | 0.00 | 66 | 1011.8 |
| 20260901223159 | 89 | 0 | 1.0 | 2.0 | 0.00 | 0.00 | 0.00 | 66 | 1011.8 |
| 20260901223141 | 89 | 118 | 1.0 | 2.0 | 0.00 | 0.00 | 0.00 | 66 | 1011.8 |
| 20260901223037 | 89 | 263 | 1.0 | 2.0 | 0.00 | 0.00 | 0.00 | 66 | 1011.8 |
| 20260901222935 | 89 | 261 | 1.0 | 2.0 | 0.00 | 0.00 | 0.00 | 66 | 1011.8 |
| 20260901222835 | 89 | 7 | 1.0 | 2.0 | 0.00 | 0.00 | 0.00 | 66 | 1011.9 |
| 20260901222734 | 89 | 343 | 1.0 | 2.0 | 0.00 | 0.00 | 0.00 | 66 | 1011.9 |
| 20260901222658 | 89 | 348 | 1.0 | 2.0 | 0.00 | 0.00 | 0.00 | 66 | 1011.9 |
| 20260901222634 | 89 | 264 | 1.0 | 2.0 | 0.00 | 0.00 | 0.00 | 66 | 1011.9 |
| 20260901222535 | 89 | 344 | 1.0 | 3.0 | 0.00 | 0.00 | 0.00 | 66 | 1011.9 |
| 20260901222435 | 89 | 350 | 1.0 | 3.0 | 0.00 | 0.00 | 0.00 | 65 | 1011.9 |
| 20260901222422 | 89 | 284 | 1.0 | 4.0 | 0.00 | 0.00 | 0.00 | 65 | 1011.9 |
| 20260901222332 | 89 | 351 | 1.0 | 3.0 | 0.00 | 0.00 | 0.00 | 66 | 1011.9 |
| 20260901222306 | 89 | 0 | 1.0 | 3.0 | 0.00 | 0.00 | 0.00 | 65 | 1011.9 |
| 20260901222126 | 89 | 231 | 1.0 | 4.0 | 0.00 | 0.00 | 0.00 | 65 | 1011.9 |
| 20260901222023 | 89 | 345 | 1.0 | 4.0 | 0.00 | 0.00 | 0.00 | 65 | 1011.9 |
| 20260901221923 | 89 | 42 | 1.0 | 4.0 | 0.00 | 0.00 | 0.00 | 65 | 1011.9 |
| 20260901221823 | 89 | 32 | 1.0 | 4.0 | 0.00 | 0.00 | 0.00 | 65 | 1011.9 |
| 20260901221723 | 89 | 9 | 1.0 | 4.0 | 0.00 | 0.00 | 0.00 | 65 | 1011.9 |
| 20260901221657 | 89 | 309 | 1.0 | 4.0 | 0.00 | 0.00 | 0.00 | 65 | 1011.9 |
| 20260901221620 | 89 | 272 | 1.0 | 5.0 | 0.00 | 0.00 | 0.00 | 65 | 1011.9 |
| 20260901221520 | 88 | 230 | 1.0 | 5.0 | 0.00 | 0.00 | 0.00 | 65 | 1011.9 |
| 20260901221420 | 88 | 40 | 1.0 | 5.0 | 0.00 | 0.00 | 0.00 | 65 | 1011.9 |
| 20260901221317 | 88 | 344 | 1.0 | 5.0 | 0.00 | 0.00 | 0.00 | 65 | 1011.9 |
| 20260901221214 | 88 | 188 | 1.0 | 5.0 | 0.00 | 0.00 | 0.00 | 65 | 1011.9 |
| 20260901221158 | 88 | 219 | 1.0 | 5.0 | 0.00 | 0.00 | 0.00 | 66 | 1011.9 |
| 20260901221114 | 88 | 99 | 1.0 | 5.0 | 0.00 | 0.00 | 0.00 | 66 | 1011.9 |
| 20260901221014 | 88 | 304 | 1.0 | 5.0 | 0.00 | 0.00 | 0.00 | 66 | 1011.9 |
| 20260901220915 | 88 | 337 | 1.0 | 5.0 | 0.00 | 0.00 | 0.00 | 66 | 1011.9 |
| 20260901220812 | 88 | 19 | 2.0 | 5.0 | 0.00 | 0.00 | 0.00 | 66 | 1011.9 |
| 20260901220712 | 88 | 341 | 2.0 | 5.0 | 0.00 | 0.00 | 0.00 | 66 | 1012.0 |
| 20260901220659 | 88 | 245 | 2.0 | 5.0 | 0.00 | 0.00 | 0.00 | 66 | 1012.0 |
| 20260901220602 | 88 | 18 | 2.0 | 5.0 | 0.00 | 0.00 | 0.00 | 66 | 1012.0 |
| 20260901220459 | 88 | 303 | 2.0 | 5.0 | 0.00 | 0.00 | 0.00 | 66 | 1012.0 |
| 20260901220354 | 88 | 347 | 2.0 | 5.0 | 0.00 | 0.00 | 0.00 | 67 | 1012.0 |
| 20260901220254 | 88 | 204 | 2.0 | 5.0 | 0.00 | 0.00 | 0.00 | 66 | 1012.0 |
| 20260901220154 | 88 | 13 | 2.0 | 5.0 | 0.00 | 0.00 | 0.00 | 66 | 1012.1 |
| 20260901220054 | 88 | 320 | 2.0 | 5.0 | 0.00 | 0.00 | 0.00 | 66 | 1012.1 |
| 20260901215953 | 88 | 345 | 2.0 | 5.0 | 0.00 | 0.00 | 0.00 | 67 | 1012.1 |
| 20260901215916 | 88 | 272 | 2.0 | 5.0 | 0.00 | 0.00 | 0.00 | 67 | 1012.1 |
| 20260901215853 | 88 | 22 | 2.0 | 5.0 | 0.00 | 0.00 | 0.00 | 67 | 1012.1 |
| 20260901215804 | 88 | 21 | 1.0 | 5.0 | 0.00 | 0.00 | 0.00 | 67 | 1012.1 |
| 20260901215758 | 88 | 272 | 2.0 | 5.0 | 0.00 | 0.00 | 0.00 | 67 | 1012.1 |
| 20260901215553 | 88 | 344 | 2.0 | 5.0 | 0.00 | 0.00 | 0.00 | 67 | 1012.1 |
| 20260901215459 | 88 | 31 | 2.0 | 5.0 | 0.00 | 0.00 | 0.00 | 66 | 1012.1 |
| 20260901215353 | 88 | 14 | 2.0 | 5.0 | 0.00 | 0.00 | 0.00 | 66 | 1012.1 |
| 20260901215253 | 88 | 10 | 2.0 | 4.0 | 0.00 | 0.00 | 0.00 | 67 | 1012.2 |
| 20260901215154 | 88 | 328 | 1.0 | 4.0 | 0.00 | 0.00 | 0.00 | 67 | 1012.2 |
| 20260901215051 | 88 | 347 | 2.0 | 4.0 | 0.00 | 0.00 | 0.00 | 67 | 1012.2 |
| 20260901214948 | 88 | 352 | 2.0 | 4.0 | 0.00 | 0.00 | 0.00 | 67 | 1012.2 |
| 20260901214848 | 88 | 91 | 2.0 | 4.0 | 0.00 | 0.00 | 0.00 | 66 | 1012.2 |
| 20260901214745 | 88 | 332 | 2.0 | 4.0 | 0.00 | 0.00 | 0.00 | 67 | 1012.2 |
| 20260901214650 | 88 | 331 | 2.0 | 7.0 | 0.00 | 0.00 | 0.00 | 68 | 1012.3 |
| 20260901214645 | 88 | 255 | 2.0 | 7.0 | 0.00 | 0.00 | 0.00 | 68 | 1012.3 |
| 20260901214545 | 88 | 339 | 2.0 | 7.0 | 0.00 | 0.00 | 0.00 | 67 | 1012.3 |
| 20260901214445 | 88 | 335 | 2.0 | 7.0 | 0.00 | 0.00 | 0.00 | 68 | 1012.3 |
| 20260901214345 | 88 | 352 | 2.0 | 7.0 | 0.00 | 0.00 | 0.00 | 68 | 1012.3 |
| 20260901214242 | 88 | 329 | 2.0 | 7.0 | 0.00 | 0.00 | 0.00 | 68 | 1012.3 |
| 20260901214150 | 88 | 63 | 2.0 | 7.0 | 0.00 | 0.00 | 0.00 | 67 | 1012.3 |
| 20260901214136 | 88 | 299 | 2.0 | 7.0 | 0.00 | 0.00 | 0.00 | 67 | 1012.3 |
| 20260901214036 | 88 | 359 | 2.0 | 7.0 | 0.00 | 0.00 | 0.00 | 67 | 1012.3 |
| 20260901213933 | 88 | 330 | 2.0 | 7.0 | 0.00 | 0.00 | 0.00 | 67 | 1012.3 |
| 20260901213830 | 88 | 269 | 2.0 | 7.0 | 0.00 | 0.00 | 0.00 | 67 | 1012.4 |
| 20260901213730 | 88 | 331 | 2.0 | 7.0 | 0.00 | 0.00 | 0.00 | 67 | 1012.4 |
| 20260901213647 | 88 | 8 | 2.0 | 5.0 | 0.00 | 0.00 | 0.00 | 67 | 1012.4 |
| 20260901213527 | 89 | 331 | 1.0 | 3.0 | 0.00 | 0.00 | 0.00 | 66 | 1012.4 |
| 20260901213427 | 89 | 333 | 1.0 | 3.0 | 0.00 | 0.00 | 0.00 | 66 | 1012.4 |
| 20260901213324 | 89 | 359 | 1.0 | 3.0 | 0.00 | 0.00 | 0.00 | 66 | 1012.4 |
| 20260901213218 | 89 | 324 | 1.0 | 3.0 | 0.00 | 0.00 | 0.00 | 66 | 1012.4 |
| 20260901213143 | 89 | 316 | 1.0 | 3.0 | 0.00 | 0.00 | 0.00 | 66 | 1012.4 |
| 20260901213118 | 89 | 314 | 1.0 | 3.0 | 0.00 | 0.00 | 0.00 | 66 | 1012.4 |
| 20260901213018 | 89 | 3 | 1.0 | 3.0 | 0.00 | 0.00 | 0.00 | 66 | 1012.4 |
| 20260901212915 | 89 | 331 | 1.0 | 3.0 | 0.00 | 0.00 | 0.00 | 66 | 1012.4 |
| 20260901212815 | 89 | 318 | 1.0 | 3.0 | 0.00 | 0.00 | 0.00 | 66 | 1012.4 |
| 20260901212712 | 89 | 277 | 1.0 | 3.0 | 0.00 | 0.00 | 0.00 | 68 | 1012.4 |
| 20260901212644 | 89 | 298 | 1.0 | 3.0 | 0.00 | 0.00 | 0.00 | 68 | 1012.4 |
| 20260901212612 | 89 | 209 | 1.0 | 3.0 | 0.00 | 0.00 | 0.00 | 68 | 1012.4 |
| 20260901212513 | 89 | 5 | 1.0 | 3.0 | 0.00 | 0.00 | 0.00 | 67 | 1012.4 |
| 20260901212410 | 89 | 18 | 1.0 | 3.0 | 0.00 | 0.00 | 0.00 | 67 | 1012.4 |
| 20260901212309 | 89 | 231 | 1.0 | 4.0 | 0.00 | 0.00 | 0.00 | 66 | 1012.4 |
| 20260901212200 | 89 | 331 | 1.0 | 4.0 | 0.00 | 0.00 | 0.00 | 66 | 1012.4 |
| 20260901212137 | 89 | 259 | 1.0 | 4.0 | 0.00 | 0.00 | 0.00 | 66 | 1012.4 |
| 20260901212100 | 89 | 335 | 1.0 | 4.0 | 0.00 | 0.00 | 0.00 | 66 | 1012.4 |
| 20260901212000 | 89 | 324 | 1.0 | 4.0 | 0.00 | 0.00 | 0.00 | 66 | 1012.4 |
| 20260901211900 | 89 | 331 | 1.0 | 4.0 | 0.00 | 0.00 | 0.00 | 65 | 1012.4 |
| 20260901211800 | 89 | 43 | 1.0 | 4.0 | 0.00 | 0.00 | 0.00 | 64 | 1012.3 |
| 20260901211700 | 89 | 333 | 1.0 | 4.0 | 0.00 | 0.00 | 0.00 | 64 | 1012.3 |
| 20260901211638 | 89 | 348 | 1.0 | 4.0 | 0.00 | 0.00 | 0.00 | 64 | 1012.3 |
| 20260901211600 | 89 | 350 | 1.0 | 4.0 | 0.00 | 0.00 | 0.00 | 64 | 1012.3 |
| 20260901211500 | 89 | 340 | 1.0 | 4.0 | 0.00 | 0.00 | 0.00 | 64 | 1012.3 |
| 20260901211400 | 89 | 293 | 1.0 | 3.0 | 0.00 | 0.00 | 0.00 | 65 | 1012.4 |
| 20260901211257 | 89 | 0 | 1.0 | 2.0 | 0.00 | 0.00 | 0.00 | 64 | 1012.3 |
| 20260901211157 | 89 | 326 | 1.0 | 2.0 | 0.00 | 0.00 | 0.00 | 64 | 1012.3 |
| 20260901211135 | 89 | 341 | 1.0 | 2.0 | 0.00 | 0.00 | 0.00 | 64 | 1012.3 |
| 20260901211054 | 89 | 334 | 1.0 | 2.0 | 0.00 | 0.00 | 0.00 | 64 | 1012.3 |
| 20260901210951 | 89 | 20 | 1.0 | 2.0 | 0.00 | 0.00 | 0.00 | 64 | 1012.3 |
| 20260901210848 | 89 | 337 | 1.0 | 2.0 | 0.00 | 0.00 | 0.00 | 64 | 1012.3 |
| 20260901210748 | 89 | 285 | 1.0 | 2.0 | 0.00 | 0.00 | 0.00 | 64 | 1012.3 |
| 20260901210648 | 89 | 341 | 1.0 | 2.0 | 0.00 | 0.00 | 0.00 | 64 | 1012.3 |
| 20260901210628 | 89 | 338 | 1.0 | 2.0 | 0.00 | 0.00 | 0.00 | 64 | 1012.3 |
| 20260901210548 | 89 | 353 | 1.0 | 2.0 | 0.00 | 0.00 | 0.00 | 64 | 1012.4 |
| 20260901210448 | 89 | 346 | 1.0 | 3.0 | 0.00 | 0.00 | 0.00 | 64 | 1012.4 |
| 20260901210343 | 89 | 343 | 1.0 | 3.0 | 0.00 | 0.00 | 0.00 | 65 | 1012.4 |
| 20260901210233 | 89 | 359 | 1.0 | 3.0 | 0.00 | 0.00 | 0.00 | 65 | 1012.4 |
| 20260901210127 | 89 | 324 | 1.0 | 3.0 | 0.00 | 0.00 | 0.00 | 65 | 1012.4 |
| 20260901210027 | 89 | 332 | 1.0 | 3.0 | 0.00 | 0.00 | 0.00 | 65 | 1012.4 |
| 20260901205927 | 89 | 359 | 1.0 | 4.0 | 0.00 | 0.00 | 0.00 | 65 | 1012.4 |
| 20260901205827 | 89 | 355 | 1.0 | 4.0 | 0.00 | 0.00 | 0.00 | 65 | 1012.3 |
| 20260901205727 | 89 | 124 | 1.0 | 4.0 | 0.00 | 0.00 | 0.00 | 65 | 1012.3 |
| 20260901205621 | 89 | 355 | 2.0 | 4.0 | 0.00 | 0.00 | 0.00 | 65 | 1012.3 |
| 20260901205521 | 89 | 350 | 2.0 | 4.0 | 0.00 | 0.00 | 0.00 | 65 | 1012.3 |
| 20260901205413 | 89 | 23 | 1.0 | 4.0 | 0.00 | 0.00 | 0.00 | 64 | 1012.3 |
| 20260901205312 | 89 | 32 | 2.0 | 4.0 | 0.00 | 0.00 | 0.00 | 64 | 1012.3 |
| 20260901205212 | 89 | 302 | 2.0 | 6.0 | 0.00 | 0.01 | 0.00 | 64 | 1012.3 |
| 20260901205120 | 89 | 357 | 2.0 | 6.0 | 0.00 | 0.01 | 0.00 | 64 | 1012.3 |
| 20260901205112 | 89 | 6 | 2.0 | 6.0 | 0.00 | 0.01 | 0.00 | 64 | 1012.3 |
| 20260901205011 | 89 | 11 | 2.0 | 6.0 | 0.00 | 0.01 | 0.00 | 64 | 1012.3 |
| 20260901204911 | 89 | 337 | 1.0 | 6.0 | 0.00 | 0.01 | 0.00 | 64 | 1012.3 |
| 20260901204811 | 89 | 349 | 1.0 | 6.0 | 0.00 | 0.01 | 0.00 | 64 | 1012.3 |
| 20260901204711 | 89 | 6 | 1.0 | 6.0 | 0.00 | 0.01 | 0.00 | 64 | 1012.3 |
| 20260901204621 | 89 | 350 | 1.0 | 6.0 | 0.00 | 0.01 | 0.00 | 64 | 1012.3 |
| 20260901204609 | 89 | 315 | 1.0 | 6.0 | 0.00 | 0.01 | 0.00 | 64 | 1012.3 |
| 20260901204509 | 89 | 62 | 1.0 | 6.0 | 0.00 | 0.01 | 0.00 | 63 | 1012.3 |
| 20260901204409 | 89 | 58 | 1.0 | 6.0 | 0.00 | 0.01 | 0.00 | 63 | 1012.3 |
| 20260901204309 | 89 | 345 | 1.0 | 6.0 | 0.00 | 0.01 | 0.00 | 65 | 1012.3 |
| 20260901204210 | 89 | 326 | 1.0 | 5.0 | 0.00 | 0.01 | 0.00 | 65 | 1012.3 |
| 20260901204117 | 89 | 5 | 1.0 | 5.0 | 0.00 | 0.01 | 0.00 | 65 | 1012.3 |
| 20260901204110 | 89 | 23 | 1.0 | 5.0 | 0.00 | 0.01 | 0.00 | 65 | 1012.3 |
| 20260901204007 | 88 | 279 | 1.0 | 5.0 | 0.00 | 0.01 | 0.00 | 67 | 1012.4 |
| 20260901203907 | 88 | 294 | 1.0 | 5.0 | 0.00 | 0.01 | 0.00 | 67 | 1012.4 |
| 20260901203757 | 88 | 233 | 1.0 | 5.0 | 0.00 | 0.01 | 0.00 | 67 | 1012.4 |
| 20260901203654 | 88 | 355 | 1.0 | 5.0 | 0.00 | 0.01 | 0.00 | 67 | 1012.4 |
| 20260901203618 | 88 | 345 | 1.0 | 5.0 | 0.00 | 0.01 | 0.00 | 67 | 1012.4 |
| 20260901203551 | 88 | 358 | 1.0 | 5.0 | 0.00 | 0.01 | 0.00 | 67 | 1012.4 |
| 20260901203449 | 88 | 334 | 1.0 | 5.0 | 0.00 | 0.01 | 0.00 | 67 | 1012.4 |
| 20260901203349 | 88 | 16 | 1.0 | 5.0 | 0.00 | 0.01 | 0.00 | 67 | 1012.4 |
| 20260901203249 | 88 | 81 | 1.0 | 5.0 | 0.00 | 0.01 | 0.00 | 67 | 1012.4 |
| 20260901203143 | 88 | 325 | 1.0 | 5.0 | 0.00 | 0.01 | 0.00 | 67 | 1012.4 |
| 20260901203114 | 88 | 354 | 1.0 | 5.0 | 0.00 | 0.01 | 0.00 | 67 | 1012.4 |
| 20260901203037 | 88 | 8 | 1.0 | 5.0 | 0.00 | 0.01 | 0.00 | 68 | 1012.4 |
| 20260901202933 | 88 | 310 | 1.0 | 5.0 | 0.00 | 0.01 | 0.00 | 69 | 1012.5 |
| 20260901202834 | 88 | 21 | 1.0 | 5.0 | 0.00 | 0.01 | 0.00 | 69 | 1012.5 |
| 20260901202728 | 88 | 343 | 1.0 | 5.0 | 0.00 | 0.01 | 0.00 | 69 | 1012.5 |
| 20260901202627 | 88 | 7 | 1.0 | 5.0 | 0.00 | 0.01 | 0.00 | 69 | 1012.5 |
| 20260901202614 | 88 | 350 | 1.0 | 5.0 | 0.00 | 0.01 | 0.00 | 69 | 1012.5 |
| 20260901202525 | 88 | 16 | 1.0 | 5.0 | 0.00 | 0.01 | 0.00 | 69 | 1012.5 |
| 20260901202419 | 88 | 318 | 1.0 | 3.0 | 0.00 | 0.01 | 0.00 | 70 | 1012.5 |
| 20260901202316 | 88 | 37 | 1.0 | 3.0 | 0.00 | 0.01 | 0.00 | 70 | 1012.6 |
| 20260901202213 | 88 | 45 | 1.0 | 3.0 | 0.00 | 0.01 | 0.00 | 71 | 1012.6 |
| 20260901202113 | 88 | 3 | 1.0 | 3.0 | 0.00 | 0.01 | 0.00 | 70 | 1012.6 |
| 20260901202013 | 88 | 27 | 1.0 | 3.0 | 0.00 | 0.01 | 0.00 | 70 | 1012.6 |
| 20260901201913 | 88 | 254 | 1.0 | 3.0 | 0.00 | 0.01 | 0.00 | 70 | 1012.6 |
| 20260901201813 | 88 | 0 | 1.0 | 4.0 | 0.00 | 0.01 | 0.00 | 71 | 1012.6 |
| 20260901201711 | 87 | 0 | 1.0 | 4.0 | 0.00 | 0.01 | 0.00 | 72 | 1012.7 |
| 20260901201614 | 87 | 320 | 2.0 | 7.0 | 0.00 | 0.01 | 0.00 | 72 | 1012.7 |
| 20260901201610 | 87 | 334 | 2.0 | 7.0 | 0.00 | 0.01 | 0.00 | 72 | 1012.7 |
| 20260901201507 | 87 | 273 | 2.0 | 7.0 | 0.00 | 0.01 | 0.00 | 71 | 1012.7 |
| 20260901201407 | 87 | 353 | 2.0 | 7.0 | 0.00 | 0.01 | 0.00 | 72 | 1012.7 |
| 20260901201308 | 87 | 346 | 2.0 | 7.0 | 0.00 | 0.01 | 0.00 | 73 | 1012.7 |
| 20260901201204 | 87 | 15 | 2.0 | 7.0 | 0.00 | 0.01 | 0.00 | 73 | 1012.7 |
| 20260901201111 | 87 | 185 | 2.0 | 7.0 | 0.00 | 0.01 | 0.00 | 72 | 1012.8 |
| 20260901201104 | 87 | 100 | 2.0 | 7.0 | 0.00 | 0.01 | 0.00 | 72 | 1012.8 |
| 20260901201004 | 87 | 13 | 2.0 | 7.0 | 0.00 | 0.01 | 0.00 | 72 | 1012.8 |
| 20260901200858 | 87 | 348 | 2.0 | 7.0 | 0.00 | 0.01 | 0.00 | 71 | 1012.8 |
| 20260901200758 | 87 | 4 | 2.0 | 7.0 | 0.00 | 0.01 | 0.00 | 71 | 1012.8 |
| 20260901200659 | 87 | 19 | 1.0 | 5.0 | 0.00 | 0.01 | 0.00 | 71 | 1012.8 |
| 20260901200609 | 87 | 277 | 1.0 | 3.0 | 0.00 | 0.01 | 0.00 | 71 | 1012.8 |
| 20260901200555 | 87 | 319 | 1.0 | 3.0 | 0.00 | 0.01 | 0.00 | 71 | 1012.8 |
| 20260901200455 | 87 | 339 | 1.0 | 3.0 | 0.00 | 0.01 | 0.00 | 71 | 1012.8 |
| 20260901200355 | 87 | 334 | 1.0 | 3.0 | 0.00 | 0.01 | 0.00 | 71 | 1012.8 |
| 20260901200255 | 87 | 258 | 1.0 | 3.0 | 0.00 | 0.01 | 0.00 | 71 | 1012.8 |
| 20260901200156 | 87 | 223 | 1.0 | 3.0 | 0.00 | 0.01 | 0.00 | 72 | 1012.9 |
| 20260901200108 | 87 | 10 | 1.0 | 3.0 | 0.00 | 0.01 | 0.00 | 71 | 1012.9 |
| 20260901200049 | 87 | 214 | 1.0 | 3.0 | 0.00 | 0.01 | 0.00 | 71 | 1012.9 |
| 20260901195946 | 87 | 346 | 1.0 | 3.0 | 0.00 | 0.01 | 0.00 | 71 | 1012.9 |
| 20260901195847 | 87 | 359 | 1.0 | 3.0 | 0.00 | 0.01 | 0.00 | 71 | 1013.0 |
| 20260901195751 | 87 | 315 | 1.0 | 3.0 | 0.00 | 0.01 | 0.00 | 71 | 1013.0 |
| 20260901195644 | 87 | 37 | 1.0 | 4.0 | 0.00 | 0.01 | 0.00 | 72 | 1013.0 |
| 20260901195609 | 87 | 321 | 1.0 | 5.0 | 0.00 | 0.01 | 0.00 | 72 | 1013.0 |
| 20260901195543 | 87 | 306 | 1.0 | 5.0 | 0.00 | 0.01 | 0.00 | 72 | 1013.0 |
| 20260901195438 | 87 | 0 | 1.0 | 5.0 | 0.00 | 0.01 | 0.00 | 71 | 1013.0 |
| 20260901195338 | 87 | 321 | 1.0 | 5.0 | 0.00 | 0.01 | 0.00 | 71 | 1013.1 |
| 20260901195238 | 87 | 2 | 2.0 | 5.0 | 0.00 | 0.01 | 0.00 | 71 | 1013.1 |
| 20260901195137 | 87 | 9 | 2.0 | 6.0 | 0.00 | 0.01 | 0.00 | 71 | 1013.1 |
| 20260901195109 | 87 | 17 | 2.0 | 6.0 | 0.00 | 0.01 | 0.00 | 71 | 1013.1 |
| 20260901195032 | 87 | 330 | 2.0 | 6.0 | 0.00 | 0.01 | 0.00 | 71 | 1013.1 |
| 20260901194931 | 87 | 315 | 2.0 | 6.0 | 0.00 | 0.01 | 0.00 | 71 | 1013.1 |
| 20260901194828 | 87 | 310 | 2.0 | 6.0 | 0.00 | 0.01 | 0.00 | 71 | 1013.1 |
| 20260901194728 | 87 | 18 | 2.0 | 6.0 | 0.00 | 0.01 | 0.00 | 71 | 1013.1 |
| 20260901194625 | 87 | 341 | 2.0 | 6.0 | 0.00 | 0.01 | 0.00 | 70 | 1013.1 |
| 20260901194609 | 87 | 22 | 2.0 | 6.0 | 0.00 | 0.01 | 0.00 | 70 | 1013.1 |
| 20260901194525 | 87 | 0 | 2.0 | 6.0 | 0.00 | 0.01 | 0.00 | 70 | 1013.1 |
| 20260901194425 | 87 | 346 | 2.0 | 6.0 | 0.00 | 0.01 | 0.00 | 70 | 1013.1 |
| 20260901194325 | 87 | 302 | 2.0 | 6.0 | 0.00 | 0.01 | 0.00 | 70 | 1013.1 |
| 20260901194225 | 87 | 341 | 2.0 | 6.0 | 0.00 | 0.01 | 0.00 | 70 | 1013.1 |
| 20260901194125 | 87 | 323 | 1.0 | 4.0 | 0.00 | 0.01 | 0.00 | 69 | 1013.1 |
| 20260901194109 | 87 | 331 | 1.0 | 4.0 | 0.00 | 0.01 | 0.00 | 69 | 1013.1 |
| 20260901194026 | 87 | 357 | 2.0 | 4.0 | 0.00 | 0.01 | 0.00 | 69 | 1013.1 |
| 20260901193926 | 87 | 313 | 2.0 | 4.0 | 0.00 | 0.01 | 0.00 | 69 | 1013.2 |
| 20260901193830 | 88 | 10 | 2.0 | 4.0 | 0.00 | 0.01 | 0.00 | 69 | 1013.3 |
| 20260901193826 | 87 | 331 | 2.0 | 4.0 | 0.00 | 0.01 | 0.00 | 70 | 1013.2 |
| 20260901193725 | 87 | 342 | 2.0 | 4.0 | 0.00 | 0.01 | 0.00 | 69 | 1013.2 |
| 20260901193714 | 87 | 338 | 2.0 | 4.0 | 0.00 | 0.01 | 0.00 | 68 | 1013.2 |
| 20260901193523 | 88 | 36 | 1.0 | 4.0 | 0.00 | 0.01 | 0.00 | 69 | 1013.3 |
| 20260901193420 | 88 | 1 | 1.0 | 4.0 | 0.00 | 0.01 | 0.00 | 69 | 1013.3 |
| 20260901193314 | 88 | 322 | 1.0 | 4.0 | 0.00 | 0.01 | 0.00 | 69 | 1013.3 |
| 20260901193212 | 88 | 323 | 1.0 | 3.0 | 0.00 | 0.01 | 0.00 | 68 | 1013.3 |
| 20260901193109 | 88 | 25 | 1.0 | 3.0 | 0.00 | 0.01 | 0.00 | 69 | 1013.3 |
| 20260901193012 | 88 | 32 | 1.0 | 2.0 | 0.00 | 0.01 | 0.00 | 68 | 1013.3 |
| 20260901192912 | 88 | 14 | 1.0 | 3.0 | 0.00 | 0.01 | 0.00 | 69 | 1013.3 |
| 20260901192811 | 88 | 345 | 1.0 | 7.0 | 0.00 | 0.01 | 0.00 | 69 | 1013.3 |
| 20260901192710 | 87 | 358 | 1.0 | 7.0 | 0.00 | 0.01 | 0.00 | 70 | 1013.4 |
| 20260901192610 | 87 | 291 | 1.0 | 7.0 | 0.00 | 0.01 | 0.00 | 70 | 1013.4 |
| 20260901192505 | 87 | 357 | 1.0 | 7.0 | 0.00 | 0.01 | 0.00 | 70 | 1013.4 |
| 20260901192402 | 87 | 161 | 1.0 | 7.0 | 0.00 | 0.01 | 0.00 | 70 | 1013.4 |
| 20260901192325 | 87 | 15 | 2.0 | 7.0 | 0.00 | 0.01 | 0.00 | 69 | 1013.4 |
| 20260901192259 | 87 | 4 | 1.0 | 7.0 | 0.00 | 0.01 | 0.00 | 70 | 1013.4 |
| 20260901192206 | 87 | 109 | 2.0 | 7.0 | 0.00 | 0.01 | 0.00 | 70 | 1013.4 |
| 20260901192056 | 87 | 1 | 2.0 | 7.0 | 0.00 | 0.01 | 0.00 | 69 | 1013.4 |
| 20260901191953 | 87 | 46 | 2.0 | 7.0 | 0.00 | 0.01 | 0.00 | 69 | 1013.4 |
| 20260901191853 | 87 | 6 | 2.0 | 7.0 | 0.00 | 0.01 | 0.00 | 69 | 1013.4 |
| 20260901191751 | 87 | 44 | 2.0 | 7.0 | 0.00 | 0.01 | 0.00 | 69 | 1013.4 |
| 20260901191650 | 87 | 285 | 2.0 | 6.0 | 0.00 | 0.01 | 0.00 | 69 | 1013.4 |
| 20260901191550 | 87 | 34 | 2.0 | 6.0 | 0.00 | 0.01 | 0.00 | 69 | 1013.4 |
| 20260901191450 | 87 | 352 | 2.0 | 6.0 | 0.00 | 0.01 | 0.00 | 69 | 1013.4 |
| 20260901191349 | 87 | 20 | 2.0 | 6.0 | 0.00 | 0.01 | 0.00 | 68 | 1013.4 |
| 20260901191247 | 87 | 4 | 2.0 | 6.0 | 0.00 | 0.01 | 0.00 | 68 | 1013.4 |
| 20260901191147 | 87 | 301 | 2.0 | 6.0 | 0.00 | 0.01 | 0.00 | 68 | 1013.4 |
| 20260901191058 | 87 | 309 | 2.0 | 6.0 | 0.00 | 0.01 | 0.00 | 68 | 1013.4 |
| 20260901191047 | 87 | 351 | 2.0 | 6.0 | 0.00 | 0.01 | 0.00 | 68 | 1013.4 |
| 20260901190941 | 87 | 20 | 2.0 | 6.0 | 0.00 | 0.01 | 0.00 | 67 | 1013.4 |
| 20260901190838 | 87 | 346 | 2.0 | 6.0 | 0.00 | 0.01 | 0.00 | 68 | 1013.4 |
| 20260901190824 | 87 | 336 | 2.0 | 7.0 | 0.00 | 0.01 | 0.00 | 67 | 1013.4 |
| 20260901190738 | 87 | 350 | 2.0 | 6.0 | 0.00 | 0.01 | 0.00 | 67 | 1013.4 |
| 20260901190704 | 87 | 9 | 2.0 | 5.0 | 0.00 | 0.01 | 0.00 | 67 | 1013.4 |
| 20260901190539 | 87 | 41 | 2.0 | 7.0 | 0.00 | 0.01 | 0.00 | 67 | 1013.4 |
| 20260901190438 | 87 | 13 | 2.0 | 7.0 | 0.00 | 0.01 | 0.00 | 68 | 1013.4 |
| 20260901190335 | 87 | 11 | 2.0 | 7.0 | 0.00 | 0.01 | 0.00 | 68 | 1013.4 |
| 20260901190322 | 87 | 332 | 2.0 | 7.0 | 0.00 | 0.01 | 0.00 | 68 | 1013.4 |
| 20260901190235 | 87 | 10 | 2.0 | 7.0 | 0.00 | 0.01 | 0.00 | 68 | 1013.4 |
| 20260901190203 | 87 | 353 | 2.0 | 7.0 | 0.00 | 0.01 | 0.00 | 68 | 1013.4 |
| 20260901190035 | 87 | 30 | 2.0 | 7.0 | 0.00 | 0.01 | 0.00 | 68 | 1013.4 |
| 20260901185932 | 87 | 25 | 2.0 | 7.0 | 0.00 | 0.01 | 0.00 | 68 | 1013.4 |
| 20260901185837 | 88 | 19 | 2.0 | 7.0 | 0.00 | 0.01 | 0.00 | 68 | 1013.4 |
| 20260901185732 | 88 | 324 | 2.0 | 7.0 | 0.00 | 0.01 | 0.00 | 68 | 1013.4 |
| 20260901185626 | 88 | 281 | 2.0 | 7.0 | 0.00 | 0.01 | 0.00 | 68 | 1013.4 |
| 20260901185558 | 87 | 31 | 2.0 | 7.0 | 0.00 | 0.01 | 0.00 | 70 | 1013.5 |
| 20260901185521 | 87 | 38 | 2.0 | 6.0 | 0.00 | 0.01 | 0.00 | 70 | 1013.5 |
| 20260901185420 | 87 | 24 | 2.0 | 6.0 | 0.00 | 0.01 | 0.00 | 70 | 1013.5 |
| 20260901185313 | 87 | 359 | 2.0 | 6.0 | 0.00 | 0.01 | 0.00 | 69 | 1013.5 |
| 20260901185213 | 87 | 355 | 2.0 | 6.0 | 0.00 | 0.01 | 0.00 | 69 | 1013.5 |
| 20260901185111 | 87 | 17 | 2.0 | 6.0 | 0.00 | 0.01 | 0.00 | 69 | 1013.5 |
| 20260901185058 | 87 | 3 | 2.0 | 6.0 | 0.00 | 0.01 | 0.00 | 69 | 1013.5 |
| 20260901185011 | 87 | 332 | 2.0 | 6.0 | 0.00 | 0.01 | 0.00 | 69 | 1013.6 |
| 20260901184905 | 87 | 26 | 2.0 | 6.0 | 0.00 | 0.01 | 0.00 | 69 | 1013.6 |
| 20260901184805 | 87 | 7 | 2.0 | 4.0 | 0.00 | 0.01 | 0.00 | 68 | 1013.6 |
| 20260901184703 | 87 | 28 | 1.0 | 4.0 | 0.00 | 0.01 | 0.00 | 68 | 1013.6 |
| 20260901184558 | 87 | 0 | 1.0 | 4.0 | 0.00 | 0.01 | 0.00 | 67 | 1013.6 |
| 20260901184500 | 87 | 2 | 1.0 | 4.0 | 0.00 | 0.01 | 0.00 | 67 | 1013.7 |
| 20260901184357 | 87 | 334 | 1.0 | 4.0 | 0.00 | 0.01 | 0.00 | 67 | 1013.7 |
| 20260901184254 | 87 | 50 | 2.0 | 4.0 | 0.00 | 0.01 | 0.00 | 67 | 1013.7 |
| 20260901184151 | 87 | 202 | 2.0 | 4.0 | 0.00 | 0.01 | 0.00 | 67 | 1013.8 |
| 20260901184058 | 87 | 352 | 2.0 | 5.0 | 0.00 | 0.01 | 0.00 | 69 | 1013.8 |
| 20260901184051 | 87 | 285 | 2.0 | 5.0 | 0.00 | 0.01 | 0.00 | 69 | 1013.8 |
| 20260901183951 | 87 | 118 | 2.0 | 5.0 | 0.00 | 0.01 | 0.00 | 69 | 1013.8 |
| 20260901183844 | 87 | 350 | 2.0 | 5.0 | 0.00 | 0.01 | 0.00 | 69 | 1013.8 |
| 20260901183820 | 87 | 269 | 2.0 | 5.0 | 0.00 | 0.01 | 0.00 | 69 | 1013.9 |
| 20260901183742 | 87 | 338 | 2.0 | 5.0 | 0.00 | 0.01 | 0.00 | 68 | 1013.9 |
| 20260901183704 | 87 | 258 | 2.0 | 5.0 | 0.00 | 0.01 | 0.00 | 69 | 1013.9 |
| 20260901183533 | 87 | 348 | 2.0 | 5.0 | 0.00 | 0.01 | 0.00 | 69 | 1013.9 |
| 20260901183433 | 87 | 330 | 2.0 | 5.0 | 0.00 | 0.01 | 0.00 | 69 | 1013.9 |
| 20260901183333 | 87 | 33 | 2.0 | 5.0 | 0.00 | 0.01 | 0.00 | 69 | 1013.9 |
| 20260901183233 | 87 | 1 | 2.0 | 5.0 | 0.00 | 0.01 | 0.00 | 68 | 1014.0 |
| 20260901183133 | 87 | 356 | 2.0 | 5.0 | 0.00 | 0.01 | 0.00 | 68 | 1014.0 |
| 20260901183056 | 87 | 10 | 2.0 | 5.0 | 0.00 | 0.01 | 0.00 | 68 | 1014.0 |
| 20260901183032 | 87 | 1 | 2.0 | 5.0 | 0.00 | 0.01 | 0.00 | 68 | 1014.0 |
| 20260901182926 | 87 | 356 | 2.0 | 5.0 | 0.00 | 0.01 | 0.00 | 67 | 1014.0 |
| 20260901182826 | 87 | 326 | 2.0 | 5.0 | 0.00 | 0.01 | 0.00 | 68 | 1014.0 |
| 20260901182727 | 87 | 343 | 2.0 | 6.0 | 0.00 | 0.01 | 0.00 | 68 | 1014.1 |
| 20260901182627 | 87 | 326 | 2.0 | 6.0 | 0.00 | 0.01 | 0.00 | 68 | 1014.0 |
| 20260901182555 | 87 | 346 | 2.0 | 6.0 | 0.00 | 0.01 | 0.00 | 68 | 1014.0 |
| 20260901182521 | 87 | 352 | 3.0 | 6.0 | 0.00 | 0.01 | 0.00 | 68 | 1014.0 |
| 20260901182415 | 88 | 22 | 3.0 | 6.0 | 0.00 | 0.01 | 0.00 | 68 | 1014.0 |
| 20260901182315 | 88 | 341 | 2.0 | 6.0 | 0.00 | 0.01 | 0.00 | 68 | 1014.0 |
| 20260901182209 | 88 | 29 | 3.0 | 8.0 | 0.00 | 0.01 | 0.00 | 68 | 1014.0 |
| 20260901182109 | 88 | 26 | 3.0 | 8.0 | 0.00 | 0.01 | 0.00 | 68 | 1014.0 |
| 20260901182056 | 88 | 36 | 3.0 | 8.0 | 0.00 | 0.01 | 0.00 | 68 | 1014.0 |
| 20260901182006 | 88 | 19 | 2.0 | 8.0 | 0.00 | 0.01 | 0.00 | 68 | 1014.0 |
| 20260901181906 | 88 | 343 | 3.0 | 8.0 | 0.00 | 0.01 | 0.00 | 67 | 1013.9 |
| 20260901181759 | 88 | 26 | 3.0 | 8.0 | 0.00 | 0.01 | 0.00 | 68 | 1014.0 |
| 20260901181700 | 88 | 49 | 3.0 | 8.0 | 0.00 | 0.01 | 0.00 | 68 | 1013.9 |
| 20260901181558 | 88 | 35 | 3.0 | 8.0 | 0.00 | 0.01 | 0.00 | 67 | 1013.9 |
| 20260901181552 | 88 | 22 | 3.0 | 8.0 | 0.00 | 0.01 | 0.00 | 67 | 1013.9 |
| 20260901181457 | 88 | 328 | 3.0 | 8.0 | 0.00 | 0.01 | 0.00 | 68 | 1013.9 |
| 20260901181357 | 88 | 48 | 3.0 | 8.0 | 0.00 | 0.01 | 0.00 | 68 | 1013.9 |
| 20260901181254 | 88 | 38 | 3.0 | 8.0 | 0.00 | 0.01 | 0.00 | 68 | 1013.9 |
| 20260901181151 | 88 | 345 | 3.0 | 8.0 | 0.00 | 0.01 | 0.00 | 67 | 1013.9 |
| 20260901181049 | 88 | 332 | 3.0 | 8.0 | 0.00 | 0.01 | 0.00 | 67 | 1013.8 |
| 20260901181045 | 88 | 13 | 3.0 | 8.0 | 0.00 | 0.01 | 0.00 | 67 | 1013.8 |
| 20260901180945 | 88 | 151 | 3.0 | 8.0 | 0.00 | 0.01 | 0.00 | 67 | 1013.8 |
| 20260901180845 | 89 | 35 | 3.0 | 8.0 | 0.00 | 0.01 | 0.00 | 67 | 1013.8 |
| 20260901180742 | 89 | 5 | 3.0 | 8.0 | 0.00 | 0.01 | 0.00 | 66 | 1013.8 |
| 20260901180642 | 89 | 21 | 3.0 | 8.0 | 0.00 | 0.01 | 0.00 | 67 | 1013.8 |
| 20260901180547 | 89 | 338 | 3.0 | 8.0 | 0.00 | 0.01 | 0.00 | 67 | 1013.8 |
| 20260901180542 | 89 | 355 | 3.0 | 8.0 | 0.00 | 0.01 | 0.00 | 67 | 1013.8 |
| 20260901180442 | 89 | 315 | 3.0 | 8.0 | 0.00 | 0.01 | 0.00 | 68 | 1013.8 |
| 20260901180342 | 89 | 322 | 3.0 | 8.0 | 0.00 | 0.01 | 0.00 | 68 | 1013.8 |
| 20260901180242 | 89 | 351 | 3.0 | 8.0 | 0.00 | 0.01 | 0.00 | 68 | 1013.8 |
| 20260901180139 | 89 | 25 | 3.0 | 6.0 | 0.00 | 0.01 | 0.00 | 68 | 1013.8 |
| 20260901180046 | 89 | 351 | 3.0 | 6.0 | 0.00 | 0.01 | 0.00 | 68 | 1013.7 |
| 20260901180039 | 89 | 6 | 3.0 | 6.0 | 0.00 | 0.01 | 0.00 | 68 | 1013.7 |
| 20260901175939 | 89 | 15 | 2.0 | 6.0 | 0.00 | 0.01 | 0.00 | 68 | 1013.7 |
| 20260901175839 | 89 | 325 | 2.0 | 6.0 | 0.00 | 0.01 | 0.00 | 68 | 1013.7 |
| 20260901175739 | 89 | 352 | 2.0 | 6.0 | 0.00 | 0.01 | 0.00 | 69 | 1013.7 |
| 20260901175636 | 89 | 35 | 2.0 | 6.0 | 0.00 | 0.01 | 0.00 | 69 | 1013.7 |
| 20260901175547 | 89 | 344 | 2.0 | 6.0 | 0.00 | 0.01 | 0.00 | 68 | 1013.7 |
| 20260901175536 | 89 | 341 | 2.0 | 6.0 | 0.00 | 0.01 | 0.00 | 68 | 1013.7 |
| 20260901175433 | 89 | 6 | 2.0 | 6.0 | 0.00 | 0.01 | 0.00 | 68 | 1013.8 |
| 20260901175333 | 89 | 13 | 2.0 | 6.0 | 0.00 | 0.01 | 0.00 | 69 | 1013.8 |
| 20260901175310 | 89 | 22 | 2.0 | 6.0 | 0.00 | 0.01 | 0.00 | 69 | 1013.8 |
| 20260901175230 | 89 | 339 | 2.0 | 6.0 | 0.00 | 0.01 | 0.00 | 69 | 1013.8 |
| 20260901175152 | 89 | 5 | 2.0 | 6.0 | 0.00 | 0.01 | 0.00 | 69 | 1013.8 |
| 20260901175031 | 89 | 351 | 2.0 | 6.0 | 0.00 | 0.01 | 0.00 | 69 | 1013.8 |
| 20260901174927 | 89 | 349 | 2.0 | 6.0 | 0.00 | 0.01 | 0.00 | 69 | 1013.8 |
| 20260901174827 | 89 | 0 | 2.0 | 6.0 | 0.00 | 0.01 | 0.00 | 69 | 1013.8 |
| 20260901174727 | 89 | 332 | 2.0 | 6.0 | 0.00 | 0.01 | 0.00 | 69 | 1013.9 |
| 20260901174627 | 89 | 337 | 2.0 | 6.0 | 0.00 | 0.01 | 0.00 | 69 | 1013.9 |
| 20260901174547 | 89 | 16 | 2.0 | 6.0 | 0.00 | 0.01 | 0.00 | 68 | 1013.9 |
| 20260901174527 | 89 | 347 | 2.0 | 6.0 | 0.00 | 0.01 | 0.00 | 68 | 1013.9 |
| 20260901174427 | 89 | 268 | 2.0 | 6.0 | 0.00 | 0.01 | 0.00 | 68 | 1013.9 |
| 20260901174327 | 89 | 13 | 2.0 | 6.0 | 0.00 | 0.01 | 0.00 | 69 | 1013.9 |
| 20260901174310 | 89 | 36 | 2.0 | 6.0 | 0.00 | 0.01 | 0.00 | 68 | 1013.9 |
| 20260901174224 | 89 | 339 | 2.0 | 6.0 | 0.00 | 0.01 | 0.00 | 68 | 1013.9 |
| 20260901174152 | 89 | 15 | 2.0 | 6.0 | 0.00 | 0.01 | 0.00 | 68 | 1013.9 |
| 20260901174024 | 89 | 334 | 2.0 | 6.0 | 0.00 | 0.01 | 0.00 | 68 | 1013.9 |
| 20260901173921 | 89 | 353 | 2.0 | 6.0 | 0.00 | 0.01 | 0.00 | 67 | 1013.9 |
| 20260901173821 | 89 | 40 | 2.0 | 6.0 | 0.00 | 0.01 | 0.00 | 67 | 1013.9 |
| 20260901173721 | 89 | 7 | 3.0 | 6.0 | 0.00 | 0.01 | 0.00 | 68 | 1013.9 |
| 20260901173621 | 89 | 116 | 3.0 | 6.0 | 0.00 | 0.01 | 0.00 | 69 | 1014.0 |
| 20260901173547 | 89 | 338 | 3.0 | 6.0 | 0.00 | 0.01 | 0.00 | 69 | 1014.0 |
| 20260901173522 | 89 | 283 | 3.0 | 6.0 | 0.00 | 0.01 | 0.00 | 69 | 1014.0 |
| 20260901173422 | 89 | 13 | 2.0 | 6.0 | 0.00 | 0.01 | 0.00 | 68 | 1014.0 |
| 20260901173322 | 89 | 30 | 2.0 | 6.0 | 0.00 | 0.01 | 0.00 | 69 | 1014.0 |
| 20260901173308 | 89 | 323 | 2.0 | 6.0 | 0.00 | 0.01 | 0.00 | 70 | 1014.2 |
| 20260901173221 | 89 | 2 | 2.0 | 6.0 | 0.00 | 0.01 | 0.00 | 69 | 1014.0 |
| 20260901173152 | 89 | 337 | 2.0 | 6.0 | 0.00 | 0.01 | 0.00 | 68 | 1014.1 |
| 20260901173016 | 89 | 340 | 2.0 | 5.0 | 0.00 | 0.01 | 0.00 | 70 | 1014.2 |
| 20260901172916 | 89 | 174 | 2.0 | 5.0 | 0.00 | 0.01 | 0.00 | 70 | 1014.2 |
| 20260901172815 | 89 | 7 | 2.0 | 5.0 | 0.00 | 0.01 | 0.00 | 70 | 1014.2 |
| 20260901172714 | 89 | 13 | 2.0 | 6.0 | 0.00 | 0.01 | 0.00 | 70 | 1014.2 |
| 20260901172614 | 88 | 4 | 2.0 | 6.0 | 0.00 | 0.01 | 0.00 | 71 | 1014.2 |
| 20260901172544 | 88 | 24 | 2.0 | 6.0 | 0.00 | 0.01 | 0.00 | 71 | 1014.2 |
| 20260901172514 | 88 | 28 | 2.0 | 6.0 | 0.00 | 0.01 | 0.00 | 70 | 1014.2 |
| 20260901172414 | 88 | 338 | 2.0 | 6.0 | 0.00 | 0.01 | 0.00 | 70 | 1014.3 |
| 20260901172314 | 88 | 20 | 2.0 | 6.0 | 0.00 | 0.01 | 0.00 | 71 | 1014.3 |
| 20260901172215 | 88 | 332 | 2.0 | 6.0 | 0.00 | 0.01 | 0.00 | 71 | 1014.3 |
| 20260901172112 | 88 | 319 | 2.0 | 6.0 | 0.00 | 0.01 | 0.00 | 71 | 1014.5 |
| 20260901172041 | 88 | 320 | 2.0 | 6.0 | 0.00 | 0.01 | 0.00 | 71 | 1014.5 |
| 20260901172011 | 88 | 15 | 2.0 | 6.0 | 0.00 | 0.01 | 0.00 | 71 | 1014.5 |
| 20260901171909 | 88 | 8 | 2.0 | 6.0 | 0.00 | 0.01 | 0.00 | 71 | 1014.5 |
| 20260901171806 | 88 | 328 | 2.0 | 6.0 | 0.00 | 0.01 | 0.00 | 71 | 1014.5 |
| 20260901171707 | 88 | 30 | 2.0 | 5.0 | 0.00 | 0.01 | 0.00 | 71 | 1014.5 |
| 20260901171600 | 88 | 19 | 2.0 | 5.0 | 0.00 | 0.01 | 0.00 | 71 | 1014.5 |
| 20260901171542 | 88 | 35 | 2.0 | 5.0 | 0.00 | 0.01 | 0.00 | 71 | 1014.5 |
| 20260901171458 | 88 | 34 | 2.0 | 5.0 | 0.00 | 0.01 | 0.00 | 71 | 1014.6 |
| 20260901171352 | 88 | 2 | 2.0 | 5.0 | 0.00 | 0.01 | 0.00 | 71 | 1014.7 |
| 20260901171249 | 88 | 53 | 2.0 | 5.0 | 0.00 | 0.01 | 0.00 | 71 | 1014.7 |
| 20260901171143 | 88 | 32 | 2.0 | 5.0 | 0.00 | 0.01 | 0.00 | 71 | 1014.7 |
| 20260901171040 | 88 | 7 | 2.0 | 5.0 | 0.00 | 0.01 | 0.00 | 71 | 1014.7 |
| 20260901170940 | 88 | 357 | 2.0 | 5.0 | 0.00 | 0.01 | 0.00 | 71 | 1014.7 |
| 20260901170840 | 88 | 339 | 2.0 | 5.0 | 0.00 | 0.01 | 0.00 | 73 | 1014.7 |
| 20260901170737 | 88 | 10 | 2.0 | 5.0 | 0.00 | 0.01 | 0.00 | 72 | 1014.8 |
| 20260901170634 | 88 | 26 | 2.0 | 5.0 | 0.00 | 0.01 | 0.00 | 72 | 1014.8 |
| 20260901170534 | 88 | 14 | 2.0 | 5.0 | 0.00 | 0.01 | 0.00 | 72 | 1014.8 |
| 20260901170428 | 88 | 341 | 2.0 | 5.0 | 0.00 | 0.01 | 0.00 | 72 | 1014.8 |
| 20260901170325 | 87 | 11 | 2.0 | 4.0 | 0.00 | 0.01 | 0.00 | 72 | 1014.8 |
| 20260901170225 | 87 | 12 | 2.0 | 5.0 | 0.00 | 0.01 | 0.00 | 72 | 1014.8 |
| 20260901170119 | 87 | 3 | 2.0 | 5.0 | 0.00 | 0.01 | 0.00 | 72 | 1014.8 |
| 20260901170026 | 87 | 9 | 2.0 | 5.0 | 0.00 | 0.01 | 0.00 | 72 | 1014.8 |
| 20260901170016 | 87 | 332 | 2.0 | 5.0 | 0.00 | 0.01 | 0.00 | 72 | 1014.8 |
| 20260901165912 | 87 | 15 | 2.0 | 6.0 | 0.00 | 0.01 | 0.00 | 72 | 1014.8 |
| 20260901165813 | 87 | 290 | 2.0 | 6.0 | 0.00 | 0.01 | 0.00 | 72 | 1014.9 |
| 20260901165711 | 87 | 321 | 2.0 | 6.0 | 0.00 | 0.01 | 0.00 | 72 | 1014.9 |
| 20260901165607 | 87 | 325 | 2.0 | 6.0 | 0.00 | 0.01 | 0.00 | 73 | 1014.9 |
| 20260901165517 | 87 | 3 | 2.0 | 6.0 | 0.00 | 0.01 | 0.00 | 73 | 1014.9 |
| 20260901165507 | 87 | 359 | 2.0 | 6.0 | 0.00 | 0.01 | 0.00 | 73 | 1014.9 |
| 20260901165407 | 87 | 334 | 2.0 | 6.0 | 0.00 | 0.01 | 0.00 | 73 | 1014.9 |
| 20260901165258 | 87 | 349 | 2.0 | 6.0 | 0.00 | 0.01 | 0.00 | 72 | 1014.9 |
| 20260901165157 | 87 | 4 | 2.0 | 6.0 | 0.00 | 0.01 | 0.00 | 73 | 1015.0 |
| 20260901165058 | 87 | 11 | 2.0 | 6.0 | 0.00 | 0.01 | 0.00 | 72 | 1015.0 |
| 20260901165018 | 87 | 191 | 2.0 | 6.0 | 0.00 | 0.01 | 0.00 | 72 | 1015.0 |
| 20260901164953 | 87 | 12 | 2.0 | 6.0 | 0.00 | 0.01 | 0.00 | 73 | 1015.0 |
| 20260901164849 | 87 | 348 | 2.0 | 6.0 | 0.00 | 0.01 | 0.00 | 73 | 1015.0 |
| 20260901164749 | 87 | 319 | 2.0 | 6.0 | 0.00 | 0.01 | 0.00 | 75 | 1015.0 |
| 20260901164650 | 87 | 282 | 2.0 | 6.0 | 0.00 | 0.01 | 0.00 | 75 | 1015.0 |
| 20260901164547 | 87 | 332 | 2.0 | 6.0 | 0.00 | 0.01 | 0.00 | 75 | 1015.0 |
| 20260901164514 | 87 | 357 | 2.0 | 6.0 | 0.00 | 0.01 | 0.00 | 75 | 1015.0 |
| 20260901164447 | 87 | 338 | 2.0 | 6.0 | 0.00 | 0.01 | 0.00 | 75 | 1015.0 |
| 20260901164347 | 87 | 357 | 2.0 | 6.0 | 0.00 | 0.01 | 0.00 | 74 | 1015.0 |
| 20260901164247 | 87 | 6 | 2.0 | 6.0 | 0.00 | 0.01 | 0.00 | 74 | 1015.0 |
| 20260901164146 | 87 | 36 | 2.0 | 6.0 | 0.00 | 0.01 | 0.00 | 75 | 1015.0 |
| 20260901164044 | 87 | 0 | 2.0 | 6.0 | 0.00 | 0.01 | 0.00 | 75 | 1015.0 |
| 20260901164015 | 87 | 342 | 2.0 | 6.0 | 0.00 | 0.01 | 0.00 | 75 | 1015.0 |
| 20260901163943 | 87 | 30 | 2.0 | 6.0 | 0.00 | 0.01 | 0.00 | 75 | 1015.0 |
| 20260901163843 | 87 | 10 | 2.0 | 5.0 | 0.00 | 0.01 | 0.00 | 75 | 1015.0 |
| 20260901163743 | 87 | 7 | 2.0 | 6.0 | 0.00 | 0.01 | 0.00 | 76 | 1015.0 |
| 20260901163643 | 87 | 75 | 2.0 | 6.0 | 0.00 | 0.01 | 0.00 | 76 | 1015.0 |
| 20260901163543 | 87 | 340 | 2.0 | 6.0 | 0.00 | 0.01 | 0.00 | 75 | 1015.0 |
| 20260901163513 | 86 | 22 | 2.0 | 6.0 | 0.00 | 0.01 | 0.00 | 75 | 1015.0 |
| 20260901163444 | 86 | 333 | 2.0 | 6.0 | 0.00 | 0.01 | 0.00 | 75 | 1015.0 |
| 20260901163344 | 86 | 13 | 2.0 | 6.0 | 0.00 | 0.01 | 0.00 | 75 | 1015.0 |
| 20260901163243 | 86 | 356 | 2.0 | 6.0 | 0.00 | 0.01 | 0.00 | 75 | 1015.0 |
| 20260901163141 | 86 | 8 | 2.0 | 6.0 | 0.00 | 0.01 | 0.00 | 75 | 1015.0 |
| 20260901163040 | 86 | 2 | 2.0 | 6.0 | 0.00 | 0.01 | 0.00 | 76 | 1015.0 |
| 20260901163012 | 86 | 273 | 2.0 | 6.0 | 0.00 | 0.01 | 0.00 | 76 | 1015.0 |
| 20260901162937 | 86 | 12 | 2.0 | 6.0 | 0.00 | 0.01 | 0.00 | 76 | 1015.0 |
| 20260901162838 | 86 | 10 | 2.0 | 6.0 | 0.00 | 0.01 | 0.00 | 76 | 1015.0 |
| 20260901162738 | 86 | 354 | 2.0 | 6.0 | 0.00 | 0.01 | 0.00 | 76 | 1015.0 |
| 20260901162637 | 86 | 303 | 2.0 | 6.0 | 0.00 | 0.01 | 0.00 | 76 | 1015.0 |
| 20260901162538 | 86 | 343 | 2.0 | 6.0 | 0.00 | 0.01 | 0.00 | 76 | 1015.0 |
| 20260901162512 | 86 | 359 | 2.0 | 6.0 | 0.00 | 0.01 | 0.00 | 76 | 1015.0 |
| 20260901162437 | 86 | 340 | 2.0 | 6.0 | 0.00 | 0.01 | 0.00 | 76 | 1015.0 |
| 20260901162337 | 86 | 16 | 2.0 | 6.0 | 0.00 | 0.01 | 0.00 | 76 | 1015.0 |
| 20260901162234 | 86 | 332 | 2.0 | 6.0 | 0.00 | 0.01 | 0.00 | 76 | 1015.1 |
| 20260901162228 | 86 | 350 | 2.0 | 6.0 | 0.00 | 0.01 | 0.00 | 76 | 1015.1 |
| 20260901162134 | 86 | 345 | 2.0 | 6.0 | 0.00 | 0.01 | 0.00 | 76 | 1015.1 |
| 20260901162115 | 86 | 3 | 2.0 | 6.0 | 0.00 | 0.01 | 0.00 | 76 | 1015.1 |
| 20260901161934 | 86 | 346 | 2.0 | 6.0 | 0.00 | 0.01 | 0.00 | 76 | 1015.1 |
| 20260901161834 | 86 | 3 | 2.0 | 6.0 | 0.00 | 0.01 | 0.00 | 77 | 1015.0 |
| 20260901161735 | 86 | 346 | 2.0 | 6.0 | 0.00 | 0.01 | 0.00 | 77 | 1015.0 |
| 20260901161631 | 86 | 359 | 2.0 | 5.0 | 0.00 | 0.01 | 0.00 | 77 | 1015.1 |
| 20260901161532 | 86 | 349 | 2.0 | 5.0 | 0.00 | 0.01 | 0.00 | 77 | 1015.0 |
| 20260901161509 | 86 | 351 | 2.0 | 5.0 | 0.00 | 0.01 | 0.00 | 77 | 1015.0 |
| 20260901161432 | 86 | 28 | 2.0 | 5.0 | 0.00 | 0.01 | 0.00 | 77 | 1015.0 |
| 20260901161329 | 86 | 355 | 2.0 | 5.0 | 0.00 | 0.01 | 0.00 | 77 | 1015.0 |
| 20260901161225 | 86 | 3 | 2.0 | 5.0 | 0.00 | 0.01 | 0.00 | 77 | 1015.0 |
| 20260901161122 | 86 | 346 | 2.0 | 5.0 | 0.00 | 0.01 | 0.00 | 77 | 1015.0 |
| 20260901161020 | 86 | 6 | 2.0 | 5.0 | 0.00 | 0.01 | 0.00 | 78 | 1015.0 |
| 20260901161004 | 86 | 37 | 2.0 | 5.0 | 0.00 | 0.01 | 0.00 | 78 | 1015.0 |
| 20260901160917 | 86 | 345 | 2.0 | 5.0 | 0.00 | 0.01 | 0.00 | 78 | 1015.0 |
| 20260901160816 | 86 | 325 | 2.0 | 5.0 | 0.00 | 0.01 | 0.00 | 78 | 1015.0 |
| 20260901160716 | 86 | 24 | 2.0 | 5.0 | 0.00 | 0.01 | 0.00 | 78 | 1015.0 |
| 20260901160617 | 86 | 306 | 2.0 | 5.0 | 0.00 | 0.01 | 0.00 | 78 | 1015.1 |
| 20260901160500 | 86 | 341 | 2.0 | 5.0 | 0.00 | 0.01 | 0.00 | 78 | 1015.0 |
| 20260901160416 | 86 | 323 | 2.0 | 5.0 | 0.00 | 0.01 | 0.00 | 78 | 1015.0 |
| 20260901160316 | 86 | 17 | 2.0 | 5.0 | 0.00 | 0.01 | 0.00 | 78 | 1015.0 |
| 20260901160222 | 85 | 321 | 2.0 | 5.0 | 0.00 | 0.01 | 0.00 | 79 | 1015.0 |
| 20260901160214 | 85 | 328 | 2.0 | 5.0 | 0.00 | 0.01 | 0.00 | 79 | 1015.0 |
| 20260901160114 | 85 | 14 | 2.0 | 5.0 | 0.00 | 0.01 | 0.00 | 79 | 1015.0 |
| 20260901160106 | 85 | 346 | 2.0 | 5.0 | 0.00 | 0.01 | 0.00 | 79 | 1015.0 |
| 20260901155908 | 85 | 12 | 2.0 | 5.0 | 0.00 | 0.01 | 0.00 | 78 | 1014.9 |
| 20260901155802 | 85 | 285 | 2.0 | 5.0 | 0.00 | 0.01 | 0.00 | 78 | 1014.9 |
| 20260901155702 | 85 | 338 | 2.0 | 5.0 | 0.00 | 0.01 | 0.00 | 78 | 1014.9 |
| 20260901155602 | 85 | 350 | 2.0 | 4.0 | 0.00 | 0.01 | 0.00 | 79 | 1014.9 |
| 20260901155502 | 85 | 341 | 1.0 | 3.0 | 0.00 | 0.01 | 0.00 | 79 | 1014.9 |
| 20260901155348 | 85 | 47 | 1.0 | 3.0 | 0.00 | 0.01 | 0.00 | 79 | 1014.9 |
| 20260901155247 | 85 | 305 | 1.0 | 2.0 | 0.00 | 0.01 | 0.00 | 79 | 1014.9 |
| 20260901155133 | 85 | 335 | 1.0 | 3.0 | 0.00 | 0.01 | 0.00 | 79 | 1014.9 |
| 20260901155017 | 85 | 285 | 1.0 | 3.0 | 0.00 | 0.01 | 0.00 | 79 | 1014.9 |
| 20260901154917 | 85 | 337 | 1.0 | 3.0 | 0.00 | 0.01 | 0.00 | 79 | 1014.9 |
| 20260901154817 | 85 | 334 | 1.0 | 3.0 | 0.00 | 0.01 | 0.00 | 79 | 1014.9 |
| 20260901154715 | 85 | 333 | 2.0 | 4.0 | 0.00 | 0.01 | 0.00 | 79 | 1014.9 |
| 20260901154602 | 85 | 9 | 2.0 | 4.0 | 0.00 | 0.01 | 0.00 | 80 | 1014.9 |
| 20260901154503 | 85 | 313 | 2.0 | 4.0 | 0.00 | 0.01 | 0.00 | 79 | 1014.8 |
| 20260901154414 | 85 | 342 | 2.0 | 4.0 | 0.00 | 0.01 | 0.00 | 80 | 1014.8 |
| 20260901154317 | 85 | 342 | 2.0 | 4.0 | 0.00 | 0.01 | 0.00 | 80 | 1014.8 |
| 20260901154216 | 85 | 26 | 1.0 | 4.0 | 0.00 | 0.01 | 0.00 | 80 | 1014.8 |
| 20260901154047 | 85 | 249 | 1.0 | 4.0 | 0.00 | 0.01 | 0.00 | 79 | 1014.8 |
| 20260901153932 | 85 | 352 | 1.0 | 4.0 | 0.00 | 0.01 | 0.00 | 80 | 1014.8 |
| 20260901153901 | 85 | 357 | 1.0 | 4.0 | 0.00 | 0.01 | 0.00 | 80 | 1014.8 |
| 20260901153815 | 85 | 344 | 1.0 | 4.0 | 0.00 | 0.01 | 0.00 | 80 | 1014.8 |
| 20260901153716 | 85 | 291 | 1.0 | 2.0 | 0.00 | 0.01 | 0.00 | 80 | 1014.8 |
| 20260901153602 | 85 | 347 | 1.0 | 2.0 | 0.00 | 0.01 | 0.00 | 81 | 1014.8 |
| 20260901153503 | 85 | 345 | 1.0 | 2.0 | 0.00 | 0.01 | 0.00 | 81 | 1014.8 |
| 20260901153403 | 85 | 357 | 1.0 | 2.0 | 0.00 | 0.01 | 0.00 | 81 | 1014.8 |
| 20260901153302 | 85 | 8 | 1.0 | 2.0 | 0.00 | 0.01 | 0.00 | 82 | 1014.8 |
| 20260901153202 | 85 | 22 | 1.0 | 2.0 | 0.00 | 0.01 | 0.00 | 82 | 1014.8 |
| 20260901153102 | 85 | 315 | 1.0 | 2.0 | 0.00 | 0.01 | 0.00 | 82 | 1014.8 |
| 20260901153003 | 85 | 312 | 1.0 | 2.0 | 0.00 | 0.01 | 0.00 | 82 | 1014.8 |
| 20260901152903 | 85 | 352 | 1.0 | 2.0 | 0.00 | 0.01 | 0.00 | 82 | 1014.8 |
| 20260901152802 | 84 | 338 | 1.0 | 2.0 | 0.00 | 0.01 | 0.00 | 82 | 1014.7 |
| 20260901152647 | 84 | 351 | 1.0 | 2.0 | 0.00 | 0.01 | 0.00 | 82 | 1014.7 |
| 20260901152620 | 84 | 270 | 1.0 | 2.0 | 0.00 | 0.01 | 0.00 | 82 | 1014.7 |
| 20260901152547 | 84 | 342 | 1.0 | 2.0 | 0.00 | 0.01 | 0.00 | 82 | 1014.7 |
| 20260901152507 | 84 | 268 | 1.0 | 2.0 | 0.00 | 0.01 | 0.00 | 82 | 1014.7 |
| 20260901152331 | 84 | 349 | 1.0 | 2.0 | 0.00 | 0.01 | 0.00 | 82 | 1014.7 |
| 20260901152218 | 84 | 282 | 1.0 | 2.0 | 0.00 | 0.01 | 0.00 | 83 | 1014.7 |
| 20260901152106 | 84 | 52 | 1.0 | 2.0 | 0.00 | 0.01 | 0.00 | 84 | 1014.8 |
| 20260901152102 | 84 | 337 | 1.0 | 2.0 | 0.00 | 0.01 | 0.00 | 83 | 1014.7 |
| 20260901152002 | 84 | 312 | 1.0 | 2.0 | 0.00 | 0.01 | 0.00 | 83 | 1014.7 |
| 20260901151952 | 84 | 30 | 1.0 | 2.0 | 0.00 | 0.01 | 0.00 | 84 | 1014.8 |
| 20260901151817 | 84 | 347 | 1.0 | 2.0 | 0.00 | 0.01 | 0.00 | 84 | 1014.8 |
| 20260901151803 | 84 | 333 | 1.0 | 2.0 | 0.00 | 0.01 | 0.00 | 84 | 1014.8 |
| 20260901151707 | 84 | 322 | 1.0 | 2.0 | 0.00 | 0.01 | 0.00 | 84 | 1014.8 |
| 20260901151702 | 84 | 337 | 2.0 | 2.0 | 0.00 | 0.01 | 0.00 | 84 | 1014.8 |
| 20260901151443 | 84 | 344 | 1.0 | 2.0 | 0.00 | 0.01 | 0.00 | 84 | 1014.8 |
| 20260901151437 | 84 | 347 | 1.0 | 2.0 | 0.00 | 0.01 | 0.00 | 84 | 1014.8 |
| 20260901151216 | 84 | 336 | 1.0 | 2.0 | 0.00 | 0.01 | 0.00 | 84 | 1014.7 |
| 20260901151116 | 84 | 354 | 1.0 | 2.0 | 0.00 | 0.01 | 0.00 | 84 | 1014.8 |
| 20260901151023 | 84 | 4 | 1.0 | 2.0 | 0.00 | 0.01 | 0.00 | 84 | 1014.7 |
| 20260901150848 | 84 | 341 | 1.0 | 2.0 | 0.00 | 0.01 | 0.00 | 84 | 1014.7 |
| 20260901150814 | 84 | 14 | 1.0 | 2.0 | 0.00 | 0.01 | 0.00 | 84 | 1014.7 |
| 20260901150718 | 84 | 335 | 1.0 | 2.0 | 0.00 | 0.01 | 0.00 | 84 | 1014.7 |
| 20260901150617 | 84 | 346 | 1.0 | 2.0 | 0.00 | 0.01 | 0.00 | 84 | 1014.8 |
| 20260901150517 | 84 | 254 | 1.0 | 2.0 | 0.00 | 0.01 | 0.00 | 84 | 1014.8 |
| 20260901150416 | 84 | 288 | 1.0 | 2.0 | 0.00 | 0.01 | 0.00 | 84 | 1014.8 |
| 20260901150317 | 84 | 341 | 1.0 | 2.0 | 0.00 | 0.01 | 0.00 | 84 | 1014.8 |
| 20260901150203 | 84 | 16 | 1.0 | 2.0 | 0.00 | 0.01 | 0.00 | 84 | 1014.8 |
| 20260901150103 | 84 | 30 | 1.0 | 2.0 | 0.00 | 0.01 | 0.00 | 85 | 1014.8 |
| 20260901150004 | 84 | 328 | 1.0 | 2.0 | 0.00 | 0.01 | 0.00 | 85 | 1014.8 |
| 20260901145848 | 83 | 330 | 1.0 | 2.0 | 0.00 | 0.01 | 0.00 | 84 | 1014.8 |
| 20260901145815 | 83 | 323 | 1.0 | 2.0 | 0.00 | 0.01 | 0.00 | 85 | 1014.8 |
| 20260901145748 | 83 | 323 | 1.0 | 2.0 | 0.00 | 0.01 | 0.00 | 85 | 1014.8 |
| 20260901145648 | 83 | 350 | 1.0 | 2.0 | 0.00 | 0.01 | 0.00 | 86 | 1014.8 |
| 20260901145532 | 83 | 318 | 1.0 | 2.0 | 0.00 | 0.01 | 0.00 | 86 | 1014.8 |
| 20260901145417 | 83 | 342 | 1.0 | 2.0 | 0.00 | 0.01 | 0.00 | 86 | 1014.8 |
| 20260901145325 | 83 | 312 | 1.0 | 2.0 | 0.00 | 0.01 | 0.00 | 85 | 1014.8 |
| 20260901145319 | 83 | 351 | 1.0 | 2.0 | 0.00 | 0.01 | 0.00 | 86 | 1014.8 |
| 20260901145218 | 83 | 301 | 1.0 | 2.0 | 0.00 | 0.01 | 0.00 | 86 | 1014.8 |
| 20260901145117 | 83 | 355 | 1.0 | 2.0 | 0.00 | 0.01 | 0.00 | 86 | 1014.8 |
| 20260901145017 | 83 | 353 | 1.0 | 2.0 | 0.00 | 0.01 | 0.00 | 86 | 1014.8 |
| 20260901144916 | 83 | 265 | 1.0 | 2.0 | 0.00 | 0.01 | 0.00 | 86 | 1014.7 |
| 20260901144817 | 83 | 7 | 1.0 | 2.0 | 0.00 | 0.01 | 0.00 | 86 | 1014.8 |
| 20260901144717 | 83 | 327 | 1.0 | 2.0 | 0.00 | 0.01 | 0.00 | 87 | 1014.8 |
| 20260901144617 | 83 | 318 | 1.0 | 2.0 | 0.00 | 0.01 | 0.00 | 87 | 1014.8 |
| 20260901144503 | 83 | 323 | 1.0 | 2.0 | 0.00 | 0.01 | 0.00 | 87 | 1014.8 |
| 20260901144347 | 83 | 0 | 1.0 | 2.0 | 0.00 | 0.01 | 0.00 | 88 | 1014.7 |
| 20260901144246 | 83 | 3 | 1.0 | 2.0 | 0.00 | 0.01 | 0.00 | 88 | 1014.7 |
| 20260901144233 | 83 | 333 | 1.0 | 2.0 | 0.00 | 0.01 | 0.00 | 88 | 1014.7 |
| 20260901144133 | 83 | 10 | 1.0 | 2.0 | 0.00 | 0.01 | 0.00 | 88 | 1014.7 |
| 20260901144033 | 83 | 355 | 1.0 | 2.0 | 0.00 | 0.01 | 0.00 | 88 | 1014.7 |
| 20260901144010 | 83 | 350 | 1.0 | 2.0 | 0.00 | 0.01 | 0.00 | 88 | 1014.7 |
| 20260901143934 | 83 | 289 | 1.0 | 2.0 | 0.00 | 0.01 | 0.00 | 88 | 1014.7 |
| 20260901143853 | 83 | 304 | 1.0 | 2.0 | 0.00 | 0.01 | 0.00 | 88 | 1014.7 |
| 20260901143718 | 83 | 217 | 1.0 | 2.0 | 0.00 | 0.01 | 0.00 | 88 | 1014.7 |
| 20260901143548 | 83 | 349 | 1.0 | 2.0 | 0.00 | 0.01 | 0.00 | 88 | 1014.7 |
| 20260901143448 | 83 | 307 | 1.0 | 2.0 | 0.00 | 0.01 | 0.00 | 88 | 1014.7 |
| 20260901143349 | 83 | 177 | 1.0 | 2.0 | 0.00 | 0.01 | 0.00 | 88 | 1014.7 |
| 20260901143233 | 83 | 22 | 1.0 | 2.0 | 0.00 | 0.01 | 0.00 | 88 | 1014.7 |
| 20260901143133 | 82 | 329 | 1.0 | 2.0 | 0.00 | 0.01 | 0.00 | 89 | 1014.7 |
| 20260901143033 | 82 | 292 | 1.0 | 2.0 | 0.00 | 0.01 | 0.00 | 89 | 1014.8 |
| 20260901142933 | 82 | 302 | 0.0 | 2.0 | 0.00 | 0.01 | 0.00 | 89 | 1014.8 |
| 20260901142833 | 82 | 0 | 0.0 | 2.0 | 0.00 | 0.01 | 0.00 | 89 | 1014.8 |
| 20260901142717 | 82 | 292 | 1.0 | 2.0 | 0.00 | 0.01 | 0.00 | 89 | 1014.8 |
| 20260901142633 | 82 | 286 | 1.0 | 2.0 | 0.00 | 0.01 | 0.00 | 89 | 1014.8 |
| 20260901142532 | 82 | 276 | 1.0 | 2.0 | 0.00 | 0.01 | 0.00 | 89 | 1014.8 |
| 20260901142434 | 82 | 251 | 1.0 | 2.0 | 0.00 | 0.01 | 0.00 | 90 | 1014.8 |
| 20260901142334 | 82 | 310 | 1.0 | 2.0 | 0.00 | 0.01 | 0.00 | 90 | 1014.8 |
| 20260901142233 | 82 | 308 | 1.0 | 2.0 | 0.00 | 0.01 | 0.00 | 90 | 1014.8 |
| 20260901142217 | 82 | 308 | 0.0 | 2.0 | 0.00 | 0.01 | 0.00 | 90 | 1014.8 |
| 20260901142133 | 82 | 318 | 0.0 | 2.0 | 0.00 | 0.01 | 0.00 | 90 | 1014.8 |
| 20260901142033 | 82 | 326 | 0.0 | 2.0 | 0.00 | 0.01 | 0.00 | 89 | 1014.9 |
| 20260901141934 | 82 | 0 | 0.0 | 2.0 | 0.00 | 0.01 | 0.00 | 89 | 1014.9 |
| 20260901141834 | 82 | 256 | 0.0 | 2.0 | 0.00 | 0.01 | 0.00 | 90 | 1014.9 |
| 20260901141734 | 82 | 261 | 0.0 | 2.0 | 0.00 | 0.01 | 0.00 | 90 | 1014.9 |
| 20260901141716 | 82 | 221 | 0.0 | 2.0 | 0.00 | 0.01 | 0.00 | 90 | 1014.9 |
| 20260901141634 | 82 | 202 | 0.0 | 2.0 | 0.00 | 0.01 | 0.00 | 90 | 1014.9 |
| 20260901141533 | 82 | 128 | 0.0 | 2.0 | 0.00 | 0.01 | 0.00 | 90 | 1014.9 |
| 20260901141348 | 82 | 0 | 0.0 | 2.0 | 0.00 | 0.01 | 0.00 | 90 | 1014.9 |
| 20260901141248 | 82 | 0 | 0.0 | 2.0 | 0.00 | 0.01 | 0.00 | 90 | 1014.9 |
| 20260901141216 | 82 | 0 | 0.0 | 2.0 | 0.00 | 0.01 | 0.00 | 91 | 1014.9 |
| 20260901141148 | 82 | 0 | 0.0 | 2.0 | 0.00 | 0.01 | 0.00 | 91 | 1014.9 |
| 20260901141048 | 82 | 0 | 1.0 | 2.0 | 0.00 | 0.01 | 0.00 | 91 | 1015.0 |
| 20260901140948 | 82 | 302 | 1.0 | 2.0 | 0.00 | 0.01 | 0.00 | 91 | 1015.0 |
| 20260901140849 | 82 | 255 | 1.0 | 2.0 | 0.00 | 0.01 | 0.00 | 91 | 1015.0 |
| 20260901140749 | 82 | 286 | 1.0 | 2.0 | 0.00 | 0.01 | 0.00 | 91 | 1015.0 |
| 20260901140703 | 82 | 234 | 1.0 | 2.0 | 0.00 | 0.01 | 0.00 | 91 | 1015.0 |
| 20260901140634 | 82 | 2 | 1.0 | 2.0 | 0.00 | 0.01 | 0.00 | 91 | 1015.0 |
| 20260901140534 | 82 | 326 | 1.0 | 2.0 | 0.00 | 0.01 | 0.00 | 91 | 1015.0 |
| 20260901140419 | 82 | 240 | 0.0 | 2.0 | 0.00 | 0.01 | 0.00 | 91 | 1015.0 |
| 20260901140318 | 82 | 0 | 0.0 | 2.0 | 0.00 | 0.01 | 0.00 | 91 | 1015.0 |
| 20260901140217 | 82 | 307 | 1.0 | 2.0 | 0.00 | 0.01 | 0.00 | 91 | 1015.0 |
| 20260901140148 | 82 | 307 | 1.0 | 2.0 | 0.00 | 0.01 | 0.00 | 91 | 1015.0 |
| 20260901140117 | 82 | 288 | 1.0 | 2.0 | 0.00 | 0.01 | 0.00 | 91 | 1015.0 |
| 20260901140017 | 82 | 274 | 0.0 | 2.0 | 0.00 | 0.01 | 0.00 | 91 | 1015.0 |
| 20260901135918 | 82 | 271 | 0.0 | 2.0 | 0.00 | 0.01 | 0.00 | 92 | 1015.0 |
| 20260901135804 | 82 | 98 | 0.0 | 2.0 | 0.00 | 0.01 | 0.00 | 92 | 1015.0 |
| 20260901135649 | 82 | 258 | 0.0 | 2.0 | 0.00 | 0.01 | 0.00 | 92 | 1015.0 |
| 20260901135534 | 82 | 0 | 0.0 | 2.0 | 0.00 | 0.01 | 0.00 | 92 | 1015.0 |
| 20260901135433 | 82 | 0 | 0.0 | 2.0 | 0.00 | 0.01 | 0.00 | 92 | 1015.0 |
| 20260901135317 | 81 | 233 | 0.0 | 1.0 | 0.00 | 0.01 | 0.00 | 92 | 1015.0 |
| 20260901135218 | 81 | 0 | 0.0 | 1.0 | 0.00 | 0.01 | 0.00 | 92 | 1014.9 |
| 20260901135118 | 81 | 251 | 0.0 | 1.0 | 0.00 | 0.01 | 0.00 | 92 | 1014.9 |
| 20260901135018 | 81 | 0 | 1.0 | 1.0 | 0.00 | 0.01 | 0.00 | 93 | 1014.9 |
| 20260901134918 | 81 | 275 | 1.0 | 1.0 | 0.00 | 0.01 | 0.00 | 93 | 1014.9 |
| 20260901134804 | 81 | 259 | 1.0 | 1.0 | 0.00 | 0.01 | 0.00 | 93 | 1014.9 |
| 20260901134622 | 81 | 317 | 1.0 | 2.0 | 0.00 | 0.01 | 0.00 | 93 | 1014.9 |
| 20260901134616 | 81 | 317 | 0.0 | 2.0 | 0.00 | 0.01 | 0.00 | 94 | 1014.9 |
| 20260901134519 | 81 | 297 | 0.0 | 2.0 | 0.00 | 0.01 | 0.00 | 94 | 1014.9 |
| 20260901134420 | 81 | 73 | 0.0 | 2.0 | 0.00 | 0.01 | 0.00 | 94 | 1014.9 |
| 20260901134319 | 80 | 357 | 0.0 | 2.0 | 0.00 | 0.01 | 0.00 | 95 | 1014.8 |
| 20260901134149 | 80 | 6 | 0.0 | 2.0 | 0.00 | 0.01 | 0.00 | 95 | 1014.8 |
| 20260901134049 | 80 | 309 | 0.0 | 2.0 | 0.00 | 0.01 | 0.00 | 95 | 1014.8 |
| 20260901133949 | 80 | 269 | 0.0 | 2.0 | 0.00 | 0.01 | 0.00 | 95 | 1014.8 |
| 20260901133849 | 80 | 0 | 0.0 | 2.0 | 0.00 | 0.01 | 0.00 | 96 | 1014.9 |
| 20260901133733 | 80 | 258 | 0.0 | 2.0 | 0.00 | 0.01 | 0.00 | 96 | 1014.9 |
| 20260901133620 | 80 | 341 | 0.0 | 2.0 | 0.00 | 0.01 | 0.00 | 96 | 1014.9 |
| 20260901133547 | 80 | 18 | 0.0 | 2.0 | 0.00 | 0.01 | 0.00 | 96 | 1014.9 |
| 20260901133519 | 80 | 0 | 0.0 | 2.0 | 0.00 | 0.01 | 0.00 | 96 | 1014.9 |
| 20260901133418 | 80 | 233 | 0.0 | 2.0 | 0.00 | 0.01 | 0.00 | 96 | 1014.9 |
| 20260901133317 | 80 | 349 | 0.0 | 2.0 | 0.00 | 0.01 | 0.00 | 96 | 1014.9 |
| 20260901133211 | 80 | 327 | 0.0 | 2.0 | 0.00 | 0.01 | 0.00 | 96 | 1014.9 |
| 20260901133108 | 80 | 282 | 0.0 | 2.0 | 0.00 | 0.01 | 0.00 | 97 | 1014.9 |
| 20260901133032 | 80 | 289 | 0.0 | 2.0 | 0.00 | 0.01 | 0.00 | 97 | 1014.9 |
| 20260901133008 | 79 | 252 | 0.0 | 2.0 | 0.00 | 0.01 | 0.00 | 97 | 1014.9 |
| 20260901132905 | 79 | 292 | 0.0 | 2.0 | 0.00 | 0.01 | 0.00 | 97 | 1014.9 |
| 20260901132805 | 79 | 247 | 0.0 | 2.0 | 0.00 | 0.01 | 0.00 | 97 | 1014.9 |
| 20260901132705 | 79 | 0 | 0.0 | 2.0 | 0.00 | 0.01 | 0.00 | 97 | 1014.9 |
| 20260901132605 | 79 | 305 | 0.0 | 2.0 | 0.00 | 0.01 | 0.00 | 97 | 1014.9 |
| 20260901132531 | 79 | 256 | 0.0 | 2.0 | 0.00 | 0.01 | 0.00 | 97 | 1014.9 |
| 20260901132505 | 79 | 0 | 0.0 | 2.0 | 0.00 | 0.01 | 0.00 | 98 | 1014.8 |
| 20260901132405 | 79 | 0 | 0.0 | 2.0 | 0.00 | 0.01 | 0.00 | 98 | 1014.8 |
| 20260901132307 | 79 | 29 | 0.0 | 2.0 | 0.00 | 0.01 | 0.00 | 98 | 1014.8 |
| 20260901132204 | 79 | 0 | 0.0 | 2.0 | 0.00 | 0.01 | 0.00 | 98 | 1014.8 |
| 20260901132104 | 79 | 206 | 0.0 | 2.0 | 0.00 | 0.01 | 0.00 | 98 | 1014.8 |
| 20260901132031 | 79 | 303 | 0.0 | 1.0 | 0.00 | 0.01 | 0.00 | 98 | 1014.8 |
| 20260901132001 | 79 | 319 | 0.0 | 1.0 | 0.00 | 0.01 | 0.00 | 98 | 1014.8 |
| 20260901131856 | 79 | 307 | 0.0 | 1.0 | 0.00 | 0.01 | 0.00 | 98 | 1014.8 |
| 20260901131756 | 79 | 279 | 0.0 | 1.0 | 0.00 | 0.01 | 0.00 | 98 | 1014.7 |
| 20260901131656 | 79 | 260 | 0.0 | 1.0 | 0.00 | 0.01 | 0.00 | 98 | 1014.7 |
| 20260901131555 | 79 | 336 | 0.0 | 1.0 | 0.00 | 0.01 | 0.00 | 98 | 1014.7 |
| 20260901131530 | 79 | 0 | 0.0 | 1.0 | 0.00 | 0.01 | 0.00 | 98 | 1014.7 |
| 20260901131450 | 79 | 0 | 0.0 | 1.0 | 0.00 | 0.01 | 0.00 | 98 | 1014.7 |
| 20260901131347 | 79 | 336 | 0.0 | 1.0 | 0.00 | 0.01 | 0.00 | 98 | 1014.7 |
| 20260901131244 | 79 | 325 | 0.0 | 1.0 | 0.00 | 0.01 | 0.00 | 98 | 1014.7 |
| 20260901131144 | 79 | 297 | 0.0 | 1.0 | 0.00 | 0.01 | 0.00 | 99 | 1014.7 |
| 20260901131044 | 79 | 317 | 0.0 | 1.0 | 0.00 | 0.01 | 0.00 | 99 | 1014.7 |
| 20260901131028 | 79 | 329 | 0.0 | 1.0 | 0.00 | 0.01 | 0.00 | 99 | 1014.7 |
| 20260901130943 | 79 | 0 | 0.0 | 2.0 | 0.00 | 0.01 | 0.00 | 99 | 1014.7 |
| 20260901130840 | 79 | 0 | 0.0 | 2.0 | 0.00 | 0.01 | 0.00 | 99 | 1014.7 |
| 20260901130738 | 79 | 359 | 0.0 | 2.0 | 0.00 | 0.01 | 0.00 | 99 | 1014.6 |
| 20260901130638 | 79 | 258 | 0.0 | 2.0 | 0.00 | 0.01 | 0.00 | 99 | 1014.6 |
| 20260901130535 | 79 | 279 | 0.0 | 2.0 | 0.00 | 0.01 | 0.00 | 99 | 1014.6 |
| 20260901130528 | 79 | 251 | 0.0 | 2.0 | 0.00 | 0.01 | 0.00 | 99 | 1014.6 |
| 20260901130432 | 79 | 199 | 0.0 | 2.0 | 0.00 | 0.01 | 0.00 | 99 | 1014.6 |
| 20260901130332 | 78 | 296 | 0.0 | 2.0 | 0.00 | 0.01 | 0.00 | 99 | 1014.6 |
| 20260901130253 | 78 | 327 | 0.0 | 2.0 | 0.00 | 0.01 | 0.00 | 99 | 1014.5 |
| 20260901130228 | 78 | 0 | 0.0 | 2.0 | 0.00 | 0.01 | 0.00 | 99 | 1014.6 |
| 20260901130136 | 78 | 318 | 0.0 | 2.0 | 0.00 | 0.01 | 0.00 | 99 | 1014.5 |
| 20260901130026 | 78 | 327 | 0.0 | 2.0 | 0.00 | 0.01 | 0.00 | 99 | 1014.5 |
| 20260901125925 | 78 | 283 | 0.0 | 2.0 | 0.00 | 0.01 | 0.00 | 99 | 1014.5 |
| 20260901125825 | 78 | 0 | 0.0 | 2.0 | 0.00 | 0.01 | 0.00 | 99 | 1014.5 |
| 20260901125720 | 78 | 323 | 0.0 | 2.0 | 0.00 | 0.01 | 0.00 | 100 | 1014.4 |
| 20260901125617 | 78 | 258 | 0.0 | 2.0 | 0.00 | 0.01 | 0.00 | 100 | 1014.4 |
| 20260901125524 | 78 | 0 | 0.0 | 2.0 | 0.00 | 0.01 | 0.00 | 100 | 1014.4 |
| 20260901125514 | 78 | 0 | 0.0 | 2.0 | 0.00 | 0.01 | 0.00 | 100 | 1014.3 |
| 20260901125414 | 78 | 322 | 0.0 | 2.0 | 0.00 | 0.01 | 0.00 | 100 | 1014.3 |
| 20260901125314 | 78 | 0 | 0.0 | 2.0 | 0.00 | 0.01 | 0.00 | 100 | 1014.3 |
| 20260901125208 | 78 | 289 | 0.0 | 2.0 | 0.00 | 0.01 | 0.00 | 100 | 1014.3 |
| 20260901125108 | 78 | 353 | 0.0 | 2.0 | 0.00 | 0.01 | 0.00 | 100 | 1014.3 |
| 20260901125022 | 78 | 287 | 0.0 | 2.0 | 0.00 | 0.01 | 0.00 | 100 | 1014.3 |
| 20260901125008 | 78 | 325 | 0.0 | 2.0 | 0.00 | 0.01 | 0.00 | 100 | 1014.2 |
| 20260901124907 | 78 | 342 | 0.0 | 2.0 | 0.00 | 0.01 | 0.00 | 100 | 1014.2 |
| 20260901124807 | 78 | 0 | 0.0 | 2.0 | 0.00 | 0.01 | 0.00 | 100 | 1014.2 |
| 20260901124705 | 78 | 314 | 0.0 | 2.0 | 0.00 | 0.01 | 0.00 | 100 | 1014.2 |
| 20260901124605 | 78 | 334 | 0.0 | 2.0 | 0.00 | 0.01 | 0.00 | 100 | 1014.2 |
| 20260901124521 | 78 | 0 | 0.0 | 2.0 | 0.00 | 0.01 | 0.00 | 100 | 1014.2 |
| 20260901124506 | 78 | 328 | 0.0 | 2.0 | 0.00 | 0.01 | 0.00 | 100 | 1014.1 |
| 20260901124405 | 78 | 0 | 0.0 | 2.0 | 0.00 | 0.01 | 0.00 | 100 | 1014.1 |
| 20260901124301 | 78 | 290 | 0.0 | 2.0 | 0.00 | 0.01 | 0.00 | 100 | 1014.1 |
| 20260901124203 | 78 | 336 | 0.0 | 2.0 | 0.00 | 0.01 | 0.00 | 100 | 1014.1 |
| 20260901124103 | 78 | 263 | 0.0 | 2.0 | 0.00 | 0.01 | 0.00 | 100 | 1014.1 |
| 20260901124019 | 78 | 31 | 0.0 | 2.0 | 0.00 | 0.01 | 0.00 | 100 | 1014.1 |
| 20260901124003 | 78 | 307 | 0.0 | 2.0 | 0.00 | 0.01 | 0.00 | 100 | 1014.1 |
| 20260901123859 | 78 | 12 | 0.0 | 2.0 | 0.00 | 0.01 | 0.00 | 100 | 1014.1 |
| 20260901123759 | 78 | 0 | 1.0 | 2.0 | 0.00 | 0.01 | 0.00 | 100 | 1014.1 |
| 20260901123659 | 78 | 34 | 1.0 | 2.0 | 0.00 | 0.01 | 0.00 | 100 | 1014.1 |
| 20260901123556 | 78 | 0 | 1.0 | 2.0 | 0.00 | 0.01 | 0.00 | 100 | 1014.1 |
| 20260901123516 | 78 | 49 | 1.0 | 2.0 | 0.00 | 0.01 | 0.00 | 100 | 1014.1 |
| 20260901123456 | 78 | 0 | 1.0 | 2.0 | 0.00 | 0.01 | 0.00 | 100 | 1014.1 |
| 20260901123356 | 78 | 15 | 1.0 | 2.0 | 0.00 | 0.01 | 0.00 | 100 | 1014.1 |
| 20260901123257 | 78 | 316 | 1.0 | 2.0 | 0.00 | 0.01 | 0.00 | 100 | 1014.1 |
| 20260901123150 | 78 | 355 | 1.0 | 2.0 | 0.00 | 0.01 | 0.00 | 100 | 1014.1 |
| 20260901123050 | 78 | 294 | 0.0 | 2.0 | 0.00 | 0.01 | 0.00 | 100 | 1014.0 |
| 20260901123016 | 78 | 2 | 0.0 | 2.0 | 0.00 | 0.01 | 0.00 | 100 | 1014.0 |
| 20260901122951 | 78 | 315 | 0.0 | 2.0 | 0.00 | 0.01 | 0.00 | 100 | 1014.0 |
| 20260901122851 | 78 | 5 | 0.0 | 2.0 | 0.00 | 0.01 | 0.00 | 100 | 1014.0 |
| 20260901122756 | 78 | 267 | 0.0 | 2.0 | 0.00 | 0.01 | 0.00 | 100 | 1014.0 |
| 20260901122650 | 78 | 358 | 0.0 | 2.0 | 0.00 | 0.01 | 0.00 | 100 | 1014.0 |
| 20260901122550 | 78 | 246 | 0.0 | 2.0 | 0.00 | 0.01 | 0.00 | 100 | 1014.0 |
| 20260901122516 | 77 | 345 | 0.0 | 2.0 | 0.00 | 0.01 | 0.00 | 100 | 1014.0 |
| 20260901122451 | 77 | 324 | 0.0 | 2.0 | 0.00 | 0.01 | 0.00 | 100 | 1014.0 |
| 20260901122348 | 77 | 5 | 0.0 | 2.0 | 0.00 | 0.01 | 0.00 | 100 | 1014.0 |
| 20260901122247 | 77 | 295 | 0.0 | 2.0 | 0.00 | 0.01 | 0.00 | 100 | 1014.0 |
| 20260901122145 | 77 | 327 | 0.0 | 2.0 | 0.00 | 0.01 | 0.00 | 100 | 1013.9 |
| 20260901122045 | 77 | 286 | 0.0 | 2.0 | 0.00 | 0.01 | 0.00 | 100 | 1013.9 |
| 20260901122016 | 77 | 249 | 0.0 | 2.0 | 0.00 | 0.01 | 0.00 | 100 | 1013.9 |
| 20260901121941 | 77 | 329 | 0.0 | 2.0 | 0.00 | 0.01 | 0.00 | 100 | 1013.9 |
| 20260901121839 | 77 | 7 | 0.0 | 2.0 | 0.00 | 0.01 | 0.00 | 100 | 1013.9 |
| 20260901121739 | 77 | 293 | 0.0 | 2.0 | 0.00 | 0.01 | 0.00 | 100 | 1013.9 |
| 20260901121638 | 77 | 0 | 1.0 | 2.0 | 0.00 | 0.01 | 0.00 | 100 | 1013.9 |
| 20260901121535 | 77 | 318 | 1.0 | 2.0 | 0.00 | 0.01 | 0.00 | 100 | 1013.9 |
| 20260901121516 | 77 | 307 | 1.0 | 2.0 | 0.00 | 0.01 | 0.00 | 100 | 1013.9 |
| 20260901121433 | 77 | 319 | 1.0 | 2.0 | 0.00 | 0.01 | 0.00 | 100 | 1013.9 |
| 20260901121332 | 77 | 0 | 1.0 | 2.0 | 0.00 | 0.01 | 0.00 | 100 | 1013.8 |
| 20260901121233 | 77 | 323 | 1.0 | 2.0 | 0.00 | 0.01 | 0.00 | 100 | 1013.8 |
| 20260901121132 | 77 | 352 | 1.0 | 2.0 | 0.00 | 0.01 | 0.00 | 100 | 1013.8 |
| 20260901121027 | 77 | 272 | 1.0 | 2.0 | 0.00 | 0.01 | 0.00 | 100 | 1013.8 |
| 20260901121014 | 77 | 326 | 1.0 | 2.0 | 0.00 | 0.01 | 0.00 | 100 | 1013.8 |
| 20260901120924 | 77 | 15 | 1.0 | 2.0 | 0.00 | 0.01 | 0.00 | 100 | 1013.8 |
| 20260901120824 | 77 | 267 | 1.0 | 2.0 | 0.00 | 0.01 | 0.00 | 100 | 1013.8 |
| 20260901120721 | 77 | 346 | 1.0 | 2.0 | 0.00 | 0.01 | 0.00 | 100 | 1013.8 |
| 20260901120618 | 77 | 359 | 1.0 | 2.0 | 0.00 | 0.01 | 0.00 | 100 | 1013.8 |
| 20260901120515 | 77 | 344 | 1.0 | 2.0 | 0.00 | 0.01 | 0.00 | 100 | 1013.8 |
| 20260901120409 | 77 | 266 | 1.0 | 2.0 | 0.00 | 0.01 | 0.00 | 100 | 1013.8 |
| 20260901120309 | 77 | 317 | 0.0 | 2.0 | 0.00 | 0.01 | 0.00 | 100 | 1013.7 |
| 20260901120203 | 77 | 335 | 1.0 | 2.0 | 0.00 | 0.01 | 0.00 | 100 | 1013.7 |
| 20260901120014 | 77 | 308 | 0.0 | 2.0 | 0.00 | 0.01 | 0.00 | 100 | 1013.7 |
| 20260901120003 | 77 | 345 | 0.0 | 2.0 | 0.00 | 0.01 | 0.00 | 100 | 1013.7 |
| 20260901115857 | 77 | 297 | 0.0 | 2.0 | 0.00 | 0.01 | 0.00 | 100 | 1013.7 |
| 20260901115754 | 77 | 0 | 0.0 | 2.0 | 0.00 | 0.01 | 0.00 | 100 | 1013.7 |
| 20260901115650 | 77 | 315 | 0.0 | 2.0 | 0.00 | 0.01 | 0.00 | 100 | 1013.7 |
| 20260901115551 | 77 | 264 | 0.0 | 2.0 | 0.00 | 0.01 | 0.00 | 100 | 1013.7 |
| 20260901115508 | 77 | 326 | 0.0 | 2.0 | 0.00 | 0.01 | 0.00 | 100 | 1013.7 |
| 20260901115448 | 77 | 260 | 0.0 | 2.0 | 0.00 | 0.01 | 0.00 | 100 | 1013.7 |
| 20260901115345 | 77 | 0 | 0.0 | 2.0 | 0.00 | 0.01 | 0.00 | 100 | 1013.7 |
| 20260901115241 | 77 | 34 | 0.0 | 2.0 | 0.00 | 0.01 | 0.00 | 100 | 1013.7 |
| 20260901115142 | 77 | 0 | 0.0 | 2.0 | 0.00 | 0.01 | 0.00 | 100 | 1013.7 |
| 20260901115039 | 77 | 11 | 0.0 | 2.0 | 0.00 | 0.01 | 0.00 | 100 | 1013.7 |
| 20260901115008 | 77 | 36 | 0.0 | 2.0 | 0.00 | 0.01 | 0.00 | 100 | 1013.7 |
| 20260901114939 | 77 | 0 | 0.0 | 2.0 | 0.00 | 0.01 | 0.00 | 100 | 1013.7 |
| 20260901114831 | 77 | 349 | 0.0 | 2.0 | 0.00 | 0.01 | 0.00 | 100 | 1013.7 |
| 20260901114736 | 77 | 281 | 0.0 | 1.0 | 0.00 | 0.01 | 0.00 | 100 | 1013.7 |
| 20260901114727 | 77 | 19 | 0.0 | 1.0 | 0.00 | 0.01 | 0.00 | 100 | 1013.7 |
| 20260901114620 | 77 | 0 | 0.0 | 1.0 | 0.00 | 0.01 | 0.00 | 100 | 1013.7 |
| 20260901114613 | 77 | 0 | 0.0 | 1.0 | 0.00 | 0.01 | 0.00 | 100 | 1013.7 |
| 20260901114415 | 77 | 308 | 0.0 | 1.0 | 0.00 | 0.01 | 0.00 | 100 | 1013.7 |
| 20260901114312 | 77 | 303 | 0.0 | 2.0 | 0.00 | 0.01 | 0.00 | 100 | 1013.7 |
| 20260901114209 | 77 | 0 | 0.0 | 2.0 | 0.00 | 0.01 | 0.00 | 100 | 1013.6 |
| 20260901114109 | 77 | 0 | 0.0 | 2.0 | 0.00 | 0.01 | 0.00 | 100 | 1013.6 |
| 20260901114009 | 77 | 349 | 0.0 | 2.0 | 0.00 | 0.01 | 0.00 | 100 | 1013.6 |
| 20260901113910 | 77 | 309 | 0.0 | 2.0 | 0.00 | 0.01 | 0.00 | 100 | 1013.6 |
| 20260901113809 | 77 | 279 | 0.0 | 2.0 | 0.00 | 0.01 | 0.00 | 100 | 1013.6 |
| 20260901113709 | 77 | 347 | 0.0 | 2.0 | 0.00 | 0.01 | 0.00 | 100 | 1013.6 |
| 20260901113609 | 76 | 0 | 0.0 | 2.0 | 0.00 | 0.01 | 0.00 | 100 | 1013.7 |
| 20260901113509 | 76 | 36 | 0.0 | 2.0 | 0.00 | 0.01 | 0.00 | 100 | 1013.7 |
| 20260901113409 | 76 | 282 | 0.0 | 2.0 | 0.00 | 0.01 | 0.00 | 100 | 1013.7 |
| 20260901113310 | 76 | 21 | 0.0 | 2.0 | 0.00 | 0.01 | 0.00 | 100 | 1013.7 |
| 20260901113209 | 76 | 345 | 0.0 | 2.0 | 0.00 | 0.01 | 0.00 | 100 | 1013.7 |
| 20260901113109 | 76 | 15 | 0.0 | 2.0 | 0.00 | 0.01 | 0.00 | 100 | 1013.7 |
| 20260901113009 | 76 | 359 | 0.0 | 1.0 | 0.00 | 0.01 | 0.00 | 100 | 1013.7 |
| 20260901112909 | 76 | 0 | 0.0 | 1.0 | 0.00 | 0.01 | 0.00 | 100 | 1013.7 |
| 20260901112809 | 76 | 57 | 0.0 | 1.0 | 0.00 | 0.01 | 0.00 | 100 | 1013.7 |
| 20260901112709 | 76 | 317 | 0.0 | 1.0 | 0.00 | 0.01 | 0.00 | 100 | 1013.7 |
| 20260901112606 | 76 | 0 | 0.0 | 1.0 | 0.00 | 0.01 | 0.00 | 100 | 1013.7 |
| 20260901112506 | 76 | 288 | 0.0 | 1.0 | 0.00 | 0.01 | 0.00 | 100 | 1013.7 |
| 20260901112406 | 76 | 279 | 0.0 | 1.0 | 0.00 | 0.01 | 0.00 | 100 | 1013.6 |
| 20260901112306 | 76 | 0 | 0.0 | 1.0 | 0.00 | 0.01 | 0.00 | 100 | 1013.6 |
| 20260901112206 | 76 | 0 | 0.0 | 1.0 | 0.00 | 0.01 | 0.00 | 100 | 1013.6 |
| 20260901112106 | 76 | 273 | 0.0 | 1.0 | 0.00 | 0.01 | 0.00 | 100 | 1013.6 |
| 20260901112006 | 76 | 346 | 0.0 | 1.0 | 0.00 | 0.01 | 0.00 | 100 | 1013.6 |
| 20260901111903 | 76 | 230 | 0.0 | 1.0 | 0.00 | 0.01 | 0.00 | 100 | 1013.6 |
| 20260901111803 | 76 | 270 | 0.0 | 1.0 | 0.00 | 0.01 | 0.00 | 100 | 1013.6 |
| 20260901111703 | 76 | 0 | 0.0 | 1.0 | 0.00 | 0.01 | 0.00 | 100 | 1013.6 |
| 20260901111601 | 76 | 0 | 0.0 | 1.0 | 0.00 | 0.01 | 0.00 | 100 | 1013.6 |
| 20260901111505 | 76 | 16 | 0.0 | 1.0 | 0.00 | 0.01 | 0.00 | 100 | 1013.6 |
| 20260901111501 | 76 | 192 | 0.0 | 1.0 | 0.00 | 0.01 | 0.00 | 100 | 1013.6 |
| 20260901111400 | 76 | 0 | 0.0 | 1.0 | 0.00 | 0.01 | 0.00 | 100 | 1013.6 |
| 20260901111300 | 76 | 339 | 0.0 | 1.0 | 0.00 | 0.01 | 0.00 | 100 | 1013.6 |
| 20260901111157 | 76 | 0 | 0.0 | 1.0 | 0.00 | 0.01 | 0.00 | 100 | 1013.6 |
| 20260901111048 | 76 | 125 | 0.0 | 1.0 | 0.00 | 0.01 | 0.00 | 100 | 1013.6 |
| 20260901111000 | 76 | 341 | 0.0 | 1.0 | 0.00 | 0.01 | 0.00 | 100 | 1013.6 |
| 20260901110945 | 76 | 4 | 0.0 | 1.0 | 0.00 | 0.01 | 0.00 | 100 | 1013.6 |
| 20260901110845 | 76 | 305 | 0.0 | 1.0 | 0.00 | 0.01 | 0.00 | 100 | 1013.6 |
| 20260901110740 | 76 | 300 | 0.0 | 1.0 | 0.00 | 0.01 | 0.00 | 100 | 1013.6 |
| 20260901110636 | 76 | 0 | 0.0 | 1.0 | 0.00 | 0.01 | 0.00 | 100 | 1013.6 |
| 20260901110528 | 76 | 0 | 0.0 | 1.0 | 0.00 | 0.01 | 0.00 | 100 | 1013.6 |
| 20260901110459 | 76 | 0 | 0.0 | 1.0 | 0.00 | 0.01 | 0.00 | 100 | 1013.6 |
| 20260901110425 | 76 | 310 | 0.0 | 1.0 | 0.00 | 0.01 | 0.00 | 100 | 1013.6 |
| 20260901110325 | 76 | 0 | 0.0 | 1.0 | 0.00 | 0.01 | 0.00 | 100 | 1013.6 |
| 20260901110224 | 76 | 56 | 0.0 | 1.0 | 0.00 | 0.01 | 0.00 | 100 | 1013.6 |
| 20260901110120 | 76 | 0 | 0.0 | 2.0 | 0.00 | 0.01 | 0.00 | 100 | 1013.6 |
| 20260901110020 | 76 | 0 | 0.0 | 2.0 | 0.00 | 0.01 | 0.00 | 100 | 1013.5 |
| 20260901105959 | 76 | 2 | 0.0 | 2.0 | 0.00 | 0.01 | 0.00 | 100 | 1013.5 |
| 20260901105920 | 77 | 276 | 0.0 | 2.0 | 0.00 | 0.01 | 0.00 | 100 | 1013.5 |
| 20260901105818 | 77 | 300 | 0.0 | 2.0 | 0.00 | 0.01 | 0.00 | 100 | 1013.5 |
| 20260901105720 | 77 | 218 | 0.0 | 2.0 | 0.00 | 0.01 | 0.00 | 100 | 1013.5 |
| 20260901105619 | 77 | 0 | 0.0 | 2.0 | 0.00 | 0.01 | 0.00 | 100 | 1013.5 |
| 20260901105515 | 77 | 288 | 0.0 | 2.0 | 0.00 | 0.01 | 0.00 | 100 | 1013.5 |
| 20260901105457 | 77 | 219 | 0.0 | 2.0 | 0.00 | 0.01 | 0.00 | 100 | 1013.5 |
| 20260901105415 | 76 | 290 | 0.0 | 2.0 | 0.00 | 0.01 | 0.00 | 100 | 1013.6 |
| 20260901105316 | 76 | 0 | 0.0 | 2.0 | 0.00 | 0.01 | 0.00 | 100 | 1013.6 |
| 20260901105213 | 76 | 248 | 0.0 | 2.0 | 0.00 | 0.01 | 0.00 | 100 | 1013.6 |
| 20260901105114 | 76 | 260 | 0.0 | 2.0 | 0.00 | 0.01 | 0.00 | 100 | 1013.6 |
| 20260901105013 | 76 | 225 | 0.0 | 1.0 | 0.00 | 0.01 | 0.00 | 100 | 1013.6 |
| 20260901104953 | 76 | 275 | 0.0 | 1.0 | 0.00 | 0.01 | 0.00 | 100 | 1013.6 |
| 20260901104913 | 76 | 50 | 0.0 | 1.0 | 0.00 | 0.01 | 0.00 | 100 | 1013.6 |
| 20260901104813 | 76 | 274 | 0.0 | 2.0 | 0.00 | 0.01 | 0.00 | 100 | 1013.6 |
| 20260901104712 | 76 | 0 | 0.0 | 2.0 | 0.00 | 0.01 | 0.00 | 100 | 1013.6 |
| 20260901104610 | 76 | 240 | 0.0 | 2.0 | 0.00 | 0.01 | 0.00 | 100 | 1013.6 |
| 20260901104509 | 76 | 226 | 1.0 | 2.0 | 0.00 | 0.01 | 0.00 | 100 | 1013.6 |
| 20260901104454 | 76 | 282 | 1.0 | 2.0 | 0.00 | 0.01 | 0.00 | 100 | 1013.6 |
| 20260901104407 | 76 | 299 | 1.0 | 2.0 | 0.00 | 0.01 | 0.00 | 100 | 1013.6 |
| 20260901104304 | 76 | 7 | 1.0 | 2.0 | 0.00 | 0.01 | 0.00 | 100 | 1013.6 |
| 20260901104204 | 76 | 0 | 1.0 | 2.0 | 0.00 | 0.01 | 0.00 | 100 | 1013.6 |
| 20260901104103 | 76 | 312 | 1.0 | 2.0 | 0.00 | 0.01 | 0.00 | 100 | 1013.6 |
| 20260901103951 | 76 | 327 | 1.0 | 2.0 | 0.00 | 0.01 | 0.00 | 100 | 1013.6 |
| 20260901103858 | 76 | 339 | 0.0 | 2.0 | 0.00 | 0.01 | 0.00 | 100 | 1013.6 |
| 20260901103755 | 76 | 344 | 0.0 | 2.0 | 0.00 | 0.01 | 0.00 | 100 | 1013.6 |
| 20260901103649 | 76 | 25 | 0.0 | 1.0 | 0.00 | 0.01 | 0.00 | 100 | 1013.6 |
| 20260901103549 | 76 | 4 | 0.0 | 1.0 | 0.00 | 0.01 | 0.00 | 100 | 1013.6 |
| 20260901103448 | 76 | 0 | 0.0 | 1.0 | 0.00 | 0.01 | 0.00 | 100 | 1013.5 |
| 20260901103350 | 76 | 2 | 0.0 | 1.0 | 0.00 | 0.01 | 0.00 | 100 | 1013.5 |
| 20260901103232 | 76 | 326 | 0.0 | 1.0 | 0.00 | 0.01 | 0.00 | 100 | 1013.5 |
| 20260901103215 | 76 | 0 | 0.0 | 1.0 | 0.00 | 0.01 | 0.00 | 100 | 1013.5 |
| 20260901103129 | 76 | 339 | 0.0 | 1.0 | 0.00 | 0.01 | 0.00 | 100 | 1013.5 |
| 20260901103053 | 76 | 138 | 0.0 | 1.0 | 0.00 | 0.01 | 0.00 | 100 | 1013.5 |
| 20260901102925 | 76 | 14 | 0.0 | 1.0 | 0.00 | 0.01 | 0.00 | 100 | 1013.5 |
| 20260901102824 | 76 | 0 | 0.0 | 1.0 | 0.00 | 0.01 | 0.00 | 100 | 1013.5 |
| 20260901102725 | 76 | 0 | 0.0 | 1.0 | 0.00 | 0.01 | 0.00 | 100 | 1013.6 |
| 20260901102625 | 76 | 333 | 0.0 | 1.0 | 0.00 | 0.01 | 0.00 | 100 | 1013.6 |
| 20260901102526 | 76 | 349 | 0.0 | 1.0 | 0.00 | 0.01 | 0.00 | 100 | 1013.6 |
| 20260901102448 | 76 | 297 | 0.0 | 1.0 | 0.00 | 0.01 | 0.00 | 100 | 1013.6 |
| 20260901102425 | 76 | 0 | 0.0 | 1.0 | 0.00 | 0.01 | 0.00 | 100 | 1013.6 |
| 20260901102325 | 76 | 0 | 0.0 | 1.0 | 0.00 | 0.01 | 0.00 | 100 | 1013.6 |
| 20260901102225 | 76 | 14 | 0.0 | 1.0 | 0.00 | 0.01 | 0.00 | 100 | 1013.6 |
| 20260901102125 | 76 | 0 | 0.0 | 1.0 | 0.00 | 0.01 | 0.00 | 100 | 1013.6 |
| 20260901102026 | 76 | 54 | 0.0 | 1.0 | 0.00 | 0.01 | 0.00 | 100 | 1013.5 |
| 20260901101948 | 77 | 38 | 0.0 | 1.0 | 0.00 | 0.01 | 0.00 | 100 | 1013.6 |
| 20260901101926 | 77 | 47 | 0.0 | 1.0 | 0.00 | 0.01 | 0.00 | 100 | 1013.6 |
| 20260901101825 | 77 | 0 | 0.0 | 1.0 | 0.00 | 0.01 | 0.00 | 100 | 1013.6 |
| 20260901101725 | 77 | 0 | 0.0 | 1.0 | 0.00 | 0.01 | 0.00 | 100 | 1013.6 |
| 20260901101625 | 77 | 242 | 0.0 | 1.0 | 0.00 | 0.01 | 0.00 | 100 | 1013.6 |
| 20260901101525 | 77 | 0 | 0.0 | 1.0 | 0.00 | 0.01 | 0.00 | 100 | 1013.6 |
| 20260901101449 | 77 | 243 | 0.0 | 1.0 | 0.00 | 0.01 | 0.00 | 100 | 1013.6 |
| 20260901101425 | 77 | 308 | 0.0 | 1.0 | 0.00 | 0.01 | 0.00 | 100 | 1013.6 |
| 20260901101325 | 77 | 0 | 0.0 | 1.0 | 0.00 | 0.01 | 0.00 | 100 | 1013.6 |
| 20260901101226 | 77 | 31 | 0.0 | 1.0 | 0.00 | 0.01 | 0.00 | 100 | 1013.6 |
| 20260901101126 | 77 | 0 | 0.0 | 1.0 | 0.00 | 0.01 | 0.00 | 100 | 1013.6 |
| 20260901101025 | 77 | 285 | 0.0 | 1.0 | 0.00 | 0.01 | 0.00 | 100 | 1013.6 |
| 20260901100925 | 77 | 0 | 0.0 | 1.0 | 0.00 | 0.01 | 0.00 | 100 | 1013.6 |
| 20260901100823 | 77 | 220 | 0.0 | 1.0 | 0.00 | 0.01 | 0.00 | 100 | 1013.6 |
| 20260901100722 | 77 | 313 | 0.0 | 1.0 | 0.00 | 0.01 | 0.00 | 100 | 1013.6 |
| 20260901100622 | 77 | 0 | 0.0 | 1.0 | 0.00 | 0.01 | 0.00 | 100 | 1013.6 |
| 20260901100521 | 77 | 32 | 0.0 | 1.0 | 0.00 | 0.01 | 0.00 | 100 | 1013.5 |
| 20260901100448 | 77 | 77 | 0.0 | 1.0 | 0.00 | 0.01 | 0.00 | 100 | 1013.5 |
| 20260901100421 | 77 | 296 | 0.0 | 1.0 | 0.00 | 0.01 | 0.00 | 100 | 1013.5 |
| 20260901100322 | 77 | 0 | 0.0 | 1.0 | 0.00 | 0.01 | 0.00 | 100 | 1013.5 |
| 20260901100216 | 77 | 3 | 0.0 | 1.0 | 0.00 | 0.01 | 0.00 | 100 | 1013.5 |
| 20260901100117 | 77 | 35 | 0.0 | 1.0 | 0.00 | 0.01 | 0.00 | 100 | 1013.5 |
| 20260901100010 | 77 | 289 | 0.0 | 1.0 | 0.00 | 0.01 | 0.00 | 100 | 1013.5 |
| 20260901095948 | 77 | 0 | 0.0 | 1.0 | 0.00 | 0.01 | 0.00 | 100 | 1013.5 |
| 20260901095858 | 77 | 15 | 0.0 | 1.0 | 0.00 | 0.01 | 0.00 | 100 | 1013.5 |
| 20260901095756 | 77 | 336 | 0.0 | 1.0 | 0.00 | 0.01 | 0.00 | 100 | 1013.5 |
| 20260901095654 | 77 | 20 | 0.0 | 1.0 | 0.00 | 0.01 | 0.00 | 100 | 1013.5 |
| 20260901095550 | 77 | 351 | 0.0 | 1.0 | 0.00 | 0.01 | 0.00 | 100 | 1013.5 |
| 20260901095447 | 77 | 35 | 0.0 | 1.0 | 0.00 | 0.01 | 0.00 | 100 | 1013.5 |
| 20260901095343 | 77 | 9 | 0.0 | 1.0 | 0.00 | 0.01 | 0.00 | 100 | 1013.5 |
| 20260901095238 | 77 | 21 | 0.0 | 2.0 | 0.00 | 0.01 | 0.00 | 100 | 1013.5 |
| 20260901095138 | 77 | 297 | 0.0 | 2.0 | 0.00 | 0.01 | 0.00 | 100 | 1013.5 |
| 20260901095037 | 77 | 349 | 0.0 | 2.0 | 0.00 | 0.01 | 0.00 | 100 | 1013.5 |
| 20260901094948 | 77 | 0 | 0.0 | 2.0 | 0.00 | 0.01 | 0.00 | 100 | 1013.5 |
| 20260901094938 | 77 | 350 | 0.0 | 2.0 | 0.00 | 0.01 | 0.00 | 100 | 1013.5 |
| 20260901094838 | 77 | 0 | 0.0 | 2.0 | 0.00 | 0.01 | 0.00 | 100 | 1013.5 |
| 20260901094735 | 77 | 0 | 0.0 | 2.0 | 0.00 | 0.01 | 0.00 | 100 | 1013.5 |
| 20260901094635 | 77 | 0 | 0.0 | 2.0 | 0.00 | 0.01 | 0.00 | 100 | 1013.5 |
| 20260901094535 | 77 | 0 | 0.0 | 2.0 | 0.00 | 0.01 | 0.00 | 100 | 1013.5 |
| 20260901094446 | 77 | 341 | 0.0 | 2.0 | 0.00 | 0.01 | 0.00 | 100 | 1013.5 |
| 20260901094435 | 77 | 0 | 0.0 | 2.0 | 0.00 | 0.01 | 0.00 | 100 | 1013.5 |
| 20260901094334 | 77 | 0 | 0.0 | 2.0 | 0.00 | 0.01 | 0.00 | 100 | 1013.5 |
| 20260901094229 | 77 | 27 | 0.0 | 1.0 | 0.00 | 0.01 | 0.00 | 100 | 1013.5 |
| 20260901094126 | 77 | 28 | 0.0 | 1.0 | 0.00 | 0.01 | 0.00 | 100 | 1013.6 |
| 20260901094025 | 77 | 61 | 0.0 | 1.0 | 0.00 | 0.01 | 0.00 | 100 | 1013.6 |
| 20260901093942 | 77 | 334 | 0.0 | 1.0 | 0.00 | 0.01 | 0.00 | 100 | 1013.6 |
| 20260901093926 | 77 | 0 | 0.0 | 1.0 | 0.00 | 0.01 | 0.00 | 100 | 1013.6 |
| 20260901093827 | 77 | 35 | 0.0 | 1.0 | 0.00 | 0.01 | 0.00 | 100 | 1013.6 |
| 20260901093726 | 77 | 0 | 0.0 | 1.0 | 0.00 | 0.01 | 0.00 | 100 | 1013.6 |
| 20260901093621 | 77 | 25 | 0.0 | 1.0 | 0.00 | 0.01 | 0.00 | 100 | 1013.7 |
| 20260901093522 | 77 | 318 | 0.0 | 1.0 | 0.00 | 0.01 | 0.00 | 100 | 1013.7 |
| 20260901093440 | 77 | 14 | 0.0 | 1.0 | 0.00 | 0.01 | 0.00 | 100 | 1013.7 |
| 20260901093422 | 77 | 7 | 0.0 | 1.0 | 0.00 | 0.01 | 0.00 | 100 | 1013.7 |
| 20260901093322 | 77 | 27 | 0.0 | 1.0 | 0.00 | 0.01 | 0.00 | 100 | 1013.7 |
| 20260901093220 | 77 | 319 | 0.0 | 1.0 | 0.00 | 0.01 | 0.00 | 100 | 1013.7 |
| 20260901093120 | 77 | 10 | 0.0 | 1.0 | 0.00 | 0.01 | 0.00 | 100 | 1013.7 |
| 20260901093020 | 0 | 8 | 0.0 | 1.0 | 0.00 | 0.01 | 0.00 | ||
| 20260901092939 | 0 | 18 | 0.0 | 1.0 | 0.00 | 0.01 | 0.00 | ||
| 20260901092857 | 0 | 287 | 0.0 | 1.0 | 0.00 | 0.01 | 0.00 | ||
| 20260901092756 | 0 | 345 | 0.0 | 1.0 | 0.00 | 0.01 | 0.00 | ||
| 20260901092653 | 0 | 286 | 0.0 | 1.0 | 0.00 | 0.01 | 0.00 | ||
| 20260901092550 | 77 | 356 | 0.0 | 1.0 | 0.00 | 0.01 | 0.00 | 100 | 1013.8 |
| 20260901092438 | 77 | 266 | 0.0 | 1.0 | 0.00 | 0.01 | 0.00 | 100 | 1013.8 |
| 20260901092317 | 77 | 229 | 0.0 | 1.0 | 0.00 | 0.01 | 0.00 | 100 | 1013.8 |
| 20260901092154 | 77 | 354 | 0.0 | 1.0 | 0.00 | 0.01 | 0.00 | 100 | 1013.8 |
| 20260901092047 | 77 | 146 | 0.0 | 1.0 | 0.00 | 0.01 | 0.00 | 100 | 1013.8 |
| 20260901091936 | 77 | 51 | 0.0 | 1.0 | 0.00 | 0.01 | 0.00 | 100 | 1013.8 |
| 20260901091823 | 77 | 0 | 0.0 | 2.0 | 0.00 | 0.01 | 0.00 | 100 | 1013.8 |
| 20260901091653 | 77 | 0 | 0.0 | 2.0 | 0.00 | 0.01 | 0.00 | 100 | 1013.8 |
| 20260901091547 | 77 | 295 | 0.0 | 2.0 | 0.00 | 0.01 | 0.00 | 100 | 1013.9 |
| 20260901091447 | 77 | 29 | 0.0 | 2.0 | 0.00 | 0.01 | 0.00 | 100 | 1013.9 |
| 20260901091409 | 77 | 0 | 0.0 | 2.0 | 0.00 | 0.01 | 0.00 | 100 | 1013.9 |
| 20260901091341 | 77 | 358 | 1.0 | 2.0 | 0.00 | 0.01 | 0.00 | 100 | 1013.9 |
| 20260901091241 | 77 | 3 | 1.0 | 2.0 | 0.00 | 0.01 | 0.00 | 100 | 1013.9 |
| 20260901091136 | 77 | 145 | 1.0 | 2.0 | 0.00 | 0.01 | 0.00 | 100 | 1014.0 |
| 20260901091030 | 77 | 275 | 1.0 | 2.0 | 0.00 | 0.01 | 0.00 | 100 | 1014.0 |
| 20260901090930 | 77 | 328 | 1.0 | 2.0 | 0.00 | 0.01 | 0.00 | 100 | 1014.0 |
| 20260901090859 | 77 | 325 | 1.0 | 2.0 | 0.00 | 0.01 | 0.00 | 100 | 1014.0 |
| 20260901090829 | 77 | 344 | 1.0 | 2.0 | 0.00 | 0.01 | 0.00 | 100 | 1014.0 |
| 20260901090729 | 77 | 329 | 1.0 | 2.0 | 0.00 | 0.01 | 0.00 | 100 | 1014.0 |
| 20260901090629 | 77 | 347 | 1.0 | 2.0 | 0.00 | 0.01 | 0.00 | 100 | 1014.0 |
| 20260901090529 | 77 | 312 | 1.0 | 2.0 | 0.00 | 0.01 | 0.00 | 100 | 1014.0 |
| 20260901090427 | 77 | 321 | 1.0 | 2.0 | 0.00 | 0.01 | 0.00 | 100 | 1014.0 |
| 20260901090355 | 77 | 346 | 1.0 | 2.0 | 0.00 | 0.01 | 0.00 | 100 | 1014.0 |
| 20260901090323 | 77 | 5 | 1.0 | 2.0 | 0.00 | 0.01 | 0.00 | 100 | 1014.0 |
| 20260901090222 | 77 | 15 | 0.0 | 2.0 | 0.00 | 0.01 | 0.00 | 100 | 1014.0 |
| 20260901090121 | 76 | 32 | 0.0 | 2.0 | 0.00 | 0.01 | 0.00 | 100 | 1014.0 |
| 20260901090017 | 76 | 343 | 0.0 | 2.0 | 0.00 | 0.01 | 0.00 | 100 | 1014.0 |
| 20260901085918 | 76 | 312 | 0.0 | 2.0 | 0.00 | 0.01 | 0.00 | 100 | 1014.0 |
| 20260901085856 | 76 | 43 | 0.0 | 2.0 | 0.00 | 0.01 | 0.00 | 100 | 1014.0 |
| 20260901085817 | 76 | 297 | 0.0 | 2.0 | 0.00 | 0.01 | 0.00 | 100 | 1014.0 |
| 20260901085717 | 76 | 294 | 0.0 | 2.0 | 0.00 | 0.01 | 0.00 | 100 | 1014.0 |
| 20260901085617 | 76 | 0 | 0.0 | 2.0 | 0.00 | 0.01 | 0.00 | 100 | 1014.0 |
| 20260901085518 | 76 | 8 | 0.0 | 1.0 | 0.00 | 0.01 | 0.00 | 100 | 1014.1 |
| 20260901085411 | 76 | 353 | 0.0 | 1.0 | 0.00 | 0.01 | 0.00 | 100 | 1014.1 |
| 20260901085355 | 76 | 2 | 0.0 | 1.0 | 0.00 | 0.01 | 0.00 | 100 | 1014.1 |
| 20260901085311 | 77 | 0 | 0.0 | 1.0 | 0.00 | 0.01 | 0.00 | 100 | 1014.1 |
| 20260901085206 | 77 | 358 | 0.0 | 1.0 | 0.00 | 0.01 | 0.00 | 100 | 1014.0 |
| 20260901085102 | 77 | 303 | 0.0 | 1.0 | 0.00 | 0.01 | 0.00 | 100 | 1014.0 |
| 20260901085000 | 77 | 293 | 0.0 | 1.0 | 0.00 | 0.01 | 0.00 | 100 | 1014.0 |
| 20260901084856 | 77 | 0 | 0.0 | 1.0 | 0.00 | 0.01 | 0.00 | 100 | 1014.0 |
| 20260901084759 | 77 | 354 | 0.0 | 1.0 | 0.00 | 0.01 | 0.00 | 100 | 1014.0 |
| 20260901084659 | 77 | 356 | 0.0 | 1.0 | 0.00 | 0.01 | 0.00 | 100 | 1014.0 |
| 20260901084600 | 77 | 314 | 0.0 | 1.0 | 0.00 | 0.01 | 0.00 | 100 | 1014.0 |
| 20260901084500 | 77 | 264 | 0.0 | 1.0 | 0.00 | 0.01 | 0.00 | 100 | 1014.0 |
| 20260901084400 | 77 | 0 | 0.0 | 1.0 | 0.00 | 0.01 | 0.00 | 100 | 1014.0 |
| 20260901084352 | 77 | 292 | 0.0 | 1.0 | 0.00 | 0.01 | 0.00 | 100 | 1014.0 |
| 20260901084259 | 76 | 0 | 0.0 | 1.0 | 0.00 | 0.01 | 0.00 | 100 | 1014.0 |
| 20260901084157 | 76 | 280 | 0.0 | 1.0 | 0.00 | 0.01 | 0.00 | 100 | 1014.0 |
| 20260901084056 | 76 | 0 | 0.0 | 1.0 | 0.00 | 0.01 | 0.00 | 100 | 1014.1 |
| 20260901083956 | 76 | 140 | 0.0 | 1.0 | 0.00 | 0.01 | 0.00 | 100 | 1014.1 |
| 20260901083847 | 76 | 0 | 0.0 | 1.0 | 0.00 | 0.01 | 0.00 | 100 | 1014.1 |
| 20260901083757 | 76 | 0 | 0.0 | 1.0 | 0.00 | 0.01 | 0.00 | 100 | 1014.1 |
| 20260901083654 | 76 | 0 | 0.0 | 1.0 | 0.00 | 0.01 | 0.00 | 100 | 1014.1 |
| 20260901083550 | 76 | 0 | 0.0 | 2.0 | 0.00 | 0.01 | 0.00 | 100 | 1014.1 |
| 20260901083447 | 76 | 0 | 0.0 | 2.0 | 0.00 | 0.01 | 0.00 | 100 | 1014.1 |
| 20260901083344 | 76 | 0 | 0.0 | 2.0 | 0.00 | 0.01 | 0.00 | 100 | 1014.1 |
| 20260901083242 | 76 | 0 | 0.0 | 2.0 | 0.00 | 0.01 | 0.00 | 100 | 1014.1 |
| 20260901083142 | 76 | 9 | 0.0 | 2.0 | 0.00 | 0.01 | 0.00 | 100 | 1014.1 |
| 20260901083041 | 76 | 1 | 0.0 | 2.0 | 0.00 | 0.01 | 0.00 | 100 | 1014.0 |
| 20260901082938 | 76 | 0 | 0.0 | 2.0 | 0.00 | 0.01 | 0.00 | 100 | 1014.0 |
| 20260901082844 | 76 | 286 | 0.0 | 2.0 | 0.00 | 0.01 | 0.00 | 100 | 1014.0 |
| 20260901082835 | 76 | 275 | 0.0 | 2.0 | 0.00 | 0.01 | 0.00 | 100 | 1014.0 |
| 20260901082732 | 76 | 0 | 0.0 | 2.0 | 0.00 | 0.01 | 0.00 | 100 | 1014.0 |
| 20260901082633 | 76 | 0 | 0.0 | 2.0 | 0.00 | 0.01 | 0.00 | 100 | 1014.0 |
| 20260901082527 | 76 | 295 | 0.0 | 1.0 | 0.00 | 0.01 | 0.00 | 100 | 1014.0 |
| 20260901082424 | 76 | 0 | 0.0 | 1.0 | 0.00 | 0.01 | 0.00 | 100 | 1014.0 |
| 20260901082344 | 76 | 0 | 0.0 | 1.0 | 0.00 | 0.01 | 0.00 | 100 | 1014.0 |
| 20260901082324 | 76 | 324 | 0.0 | 1.0 | 0.00 | 0.01 | 0.00 | 100 | 1014.0 |
| 20260901082225 | 76 | 356 | 0.0 | 1.0 | 0.00 | 0.01 | 0.00 | 100 | 1014.0 |
| 20260901082121 | 76 | 0 | 0.0 | 1.0 | 0.00 | 0.01 | 0.00 | 100 | 1014.0 |
| 20260901082020 | 76 | 339 | 0.0 | 1.0 | 0.00 | 0.01 | 0.00 | 100 | 1014.0 |
| 20260901081922 | 76 | 66 | 0.0 | 1.0 | 0.00 | 0.01 | 0.00 | 100 | 1013.9 |
| 20260901081839 | 76 | 12 | 0.0 | 1.0 | 0.00 | 0.01 | 0.00 | 100 | 1013.9 |
| 20260901081821 | 76 | 352 | 0.0 | 1.0 | 0.00 | 0.01 | 0.00 | 100 | 1013.9 |
| 20260901081722 | 76 | 348 | 0.0 | 1.0 | 0.00 | 0.01 | 0.00 | 100 | 1013.9 |
| 20260901081621 | 76 | 19 | 0.0 | 1.0 | 0.00 | 0.01 | 0.00 | 100 | 1013.9 |
| 20260901081521 | 76 | 6 | 0.0 | 1.0 | 0.00 | 0.01 | 0.00 | 100 | 1013.9 |
| 20260901081418 | 76 | 0 | 0.0 | 1.0 | 0.00 | 0.01 | 0.00 | 100 | 1013.8 |
| 20260901081317 | 76 | 0 | 0.0 | 1.0 | 0.00 | 0.01 | 0.00 | 100 | 1013.8 |
| 20260901081215 | 76 | 282 | 0.0 | 1.0 | 0.00 | 0.01 | 0.00 | 100 | 1013.8 |
| 20260901081112 | 76 | 9 | 0.0 | 1.0 | 0.00 | 0.01 | 0.00 | 100 | 1013.8 |
| 20260901081012 | 76 | 276 | 0.0 | 1.0 | 0.00 | 0.01 | 0.00 | 100 | 1013.8 |
| 20260901080912 | 76 | 353 | 0.0 | 1.0 | 0.00 | 0.01 | 0.00 | 100 | 1013.8 |
| 20260901080838 | 76 | 276 | 0.0 | 1.0 | 0.00 | 0.01 | 0.00 | 100 | 1013.8 |
| 20260901080813 | 76 | 278 | 0.0 | 1.0 | 0.00 | 0.01 | 0.00 | 100 | 1013.7 |
| 20260901080712 | 76 | 0 | 0.0 | 1.0 | 0.00 | 0.01 | 0.00 | 100 | 1013.7 |
| 20260901080624 | 76 | 250 | 0.0 | 1.0 | 0.00 | 0.01 | 0.00 | 100 | 1013.7 |
| 20260901080439 | 76 | 252 | 0.0 | 1.0 | 0.00 | 0.01 | 0.00 | 100 | 1013.7 |
| 20260901080336 | 76 | 11 | 0.0 | 1.0 | 0.00 | 0.01 | 0.00 | 100 | 1013.7 |
| 20260901075951 | 76 | 0 | 0.0 | 1.0 | 0.00 | 0.01 | 0.00 | 100 | 1013.7 |
| 20260901075851 | 76 | 293 | 0.0 | 1.0 | 0.00 | 0.01 | 0.00 | 100 | 1013.7 |
| 20260901075751 | 76 | 0 | 0.0 | 1.0 | 0.00 | 0.01 | 0.00 | 100 | 1013.7 |
| 20260901075718 | 76 | 20 | 0.0 | 1.0 | 0.00 | 0.01 | 0.00 | 100 | 1013.7 |
| 20260901075651 | 76 | 0 | 0.0 | 1.0 | 0.00 | 0.01 | 0.00 | 100 | 1013.7 |
| 20260901075551 | 76 | 21 | 0.0 | 1.0 | 0.00 | 0.01 | 0.00 | 100 | 1013.8 |
| 20260901075452 | 76 | 306 | 0.0 | 1.0 | 0.00 | 0.01 | 0.00 | 100 | 1013.8 |
| 20260901075442 | 76 | 0 | 0.0 | 1.0 | 0.00 | 0.01 | 0.00 | 100 | 1013.8 |
| 20260901075349 | 76 | 23 | 0.0 | 1.0 | 0.00 | 0.01 | 0.00 | 100 | 1013.8 |
| 20260901075323 | 76 | 101 | 0.0 | 1.0 | 0.00 | 0.01 | 0.00 | 100 | 1013.8 |
| 20260901075142 | 76 | 301 | 0.0 | 1.0 | 0.00 | 0.01 | 0.00 | 100 | 1013.8 |
| 20260901075039 | 76 | 10 | 0.0 | 1.0 | 0.00 | 0.01 | 0.00 | 100 | 1013.8 |
| 20260901074936 | 76 | 0 | 0.0 | 1.0 | 0.00 | 0.01 | 0.00 | 100 | 1013.8 |
| 20260901074836 | 76 | 294 | 0.0 | 1.0 | 0.00 | 0.01 | 0.00 | 100 | 1013.9 |
| 20260901074731 | 76 | 0 | 0.0 | 1.0 | 0.00 | 0.01 | 0.00 | 100 | 1013.9 |
| 20260901074714 | 76 | 310 | 0.0 | 1.0 | 0.00 | 0.01 | 0.00 | 100 | 1013.9 |
| 20260901074627 | 76 | 358 | 0.0 | 1.0 | 0.00 | 0.01 | 0.00 | 100 | 1013.9 |
| 20260901074525 | 76 | 279 | 0.0 | 1.0 | 0.00 | 0.01 | 0.00 | 100 | 1013.9 |
| 20260901074424 | 76 | 0 | 0.0 | 1.0 | 0.00 | 0.01 | 0.00 | 100 | 1013.8 |
| 20260901074325 | 76 | 359 | 0.0 | 1.0 | 0.00 | 0.01 | 0.00 | 100 | 1013.8 |
| 20260901074224 | 76 | 0 | 0.0 | 1.0 | 0.00 | 0.01 | 0.00 | 100 | 1013.8 |
| 20260901074214 | 76 | 0 | 0.0 | 1.0 | 0.00 | 0.01 | 0.00 | 100 | 1013.9 |
| 20260901074124 | 76 | 0 | 0.0 | 1.0 | 0.00 | 0.01 | 0.00 | 100 | 1013.9 |
| 20260901074022 | 76 | 23 | 0.0 | 1.0 | 0.00 | 0.01 | 0.00 | 100 | 1013.9 |
| 20260901073918 | 76 | 22 | 0.0 | 1.0 | 0.00 | 0.01 | 0.00 | 100 | 1013.9 |
| 20260901073816 | 76 | 348 | 0.0 | 1.0 | 0.00 | 0.01 | 0.00 | 100 | 1013.9 |
| 20260901073712 | 76 | 14 | 0.0 | 1.0 | 0.00 | 0.01 | 0.00 | 100 | 1013.9 |
| 20260901073612 | 76 | 0 | 0.0 | 1.0 | 0.00 | 0.01 | 0.00 | 100 | 1013.9 |
| 20260901073510 | 76 | 303 | 0.0 | 1.0 | 0.00 | 0.01 | 0.00 | 100 | 1014.0 |
| 20260901073435 | 76 | 250 | 0.0 | 1.0 | 0.00 | 0.01 | 0.00 | 100 | 1014.0 |
| 20260901073407 | 76 | 55 | 0.0 | 1.0 | 0.00 | 0.01 | 0.00 | 100 | 1014.0 |
| 20260901073320 | 76 | 330 | 0.0 | 1.0 | 0.00 | 0.01 | 0.00 | 100 | 1014.0 |
| 20260901073059 | 76 | 310 | 0.0 | 1.0 | 0.00 | 0.01 | 0.00 | 100 | 1014.0 |
| 20260901072955 | 76 | 325 | 0.0 | 1.0 | 0.00 | 0.01 | 0.00 | 100 | 1014.0 |
| 20260901072852 | 76 | 262 | 0.0 | 1.0 | 0.00 | 0.01 | 0.00 | 100 | 1014.0 |
| 20260901072749 | 76 | 357 | 0.0 | 1.0 | 0.00 | 0.01 | 0.00 | 100 | 1014.0 |
| 20260901072712 | 76 | 331 | 0.0 | 1.0 | 0.00 | 0.01 | 0.00 | 100 | 1014.1 |
| 20260901072649 | 76 | 263 | 0.0 | 1.0 | 0.00 | 0.01 | 0.00 | 100 | 1014.1 |
| 20260901072548 | 76 | 294 | 0.0 | 1.0 | 0.00 | 0.01 | 0.00 | 100 | 1014.1 |
| 20260901072448 | 76 | 344 | 0.0 | 1.0 | 0.00 | 0.01 | 0.00 | 100 | 1014.1 |
| 20260901072346 | 76 | 5 | 0.0 | 1.0 | 0.00 | 0.01 | 0.00 | 100 | 1014.0 |
| 20260901072243 | 76 | 0 | 0.0 | 1.0 | 0.00 | 0.01 | 0.00 | 100 | 1014.0 |
| 20260901072212 | 76 | 316 | 0.0 | 1.0 | 0.00 | 0.01 | 0.00 | 100 | 1014.0 |
| 20260901072140 | 76 | 0 | 0.0 | 1.0 | 0.00 | 0.01 | 0.00 | 100 | 1014.0 |
| 20260901072037 | 76 | 0 | 0.0 | 1.0 | 0.00 | 0.01 | 0.00 | 100 | 1014.0 |
| 20260901071930 | 76 | 0 | 0.0 | 1.0 | 0.00 | 0.01 | 0.00 | 100 | 1014.0 |
| 20260901071828 | 76 | 0 | 0.0 | 1.0 | 0.00 | 0.01 | 0.00 | 100 | 1014.0 |
| 20260901071728 | 76 | 0 | 0.0 | 1.0 | 0.00 | 0.01 | 0.00 | 100 | 1014.0 |
| 20260901071709 | 76 | 352 | 0.0 | 1.0 | 0.00 | 0.01 | 0.00 | 100 | 1014.0 |
| 20260901071628 | 76 | 30 | 0.0 | 1.0 | 0.00 | 0.01 | 0.00 | 100 | 1014.0 |
| 20260901071528 | 76 | 339 | 0.0 | 1.0 | 0.00 | 0.01 | 0.00 | 100 | 1014.0 |
| 20260901071428 | 76 | 0 | 0.0 | 1.0 | 0.00 | 0.01 | 0.00 | 100 | 1014.0 |
| 20260901071328 | 76 | 0 | 0.0 | 1.0 | 0.00 | 0.01 | 0.00 | 100 | 1014.0 |
| 20260901071228 | 76 | 0 | 0.0 | 1.0 | 0.00 | 0.01 | 0.00 | 100 | 1014.0 |
| 20260901071208 | 76 | 0 | 0.0 | 1.0 | 0.00 | 0.01 | 0.00 | 100 | 1014.1 |
| 20260901071128 | 76 | 0 | 0.0 | 1.0 | 0.00 | 0.01 | 0.00 | 100 | 1014.1 |
| 20260901071022 | 76 | 0 | 0.0 | 1.0 | 0.00 | 0.01 | 0.00 | 100 | 1014.1 |
| 20260901070918 | 76 | 0 | 0.0 | 1.0 | 0.00 | 0.01 | 0.00 | 100 | 1014.1 |
| 20260901070819 | 76 | 0 | 0.0 | 1.0 | 0.00 | 0.01 | 0.00 | 100 | 1014.1 |
| 20260901070719 | 76 | 295 | 0.0 | 1.0 | 0.00 | 0.01 | 0.00 | 100 | 1014.1 |
| 20260901070708 | 76 | 0 | 0.0 | 1.0 | 0.00 | 0.01 | 0.00 | 100 | 1014.1 |
| 20260901070619 | 76 | 0 | 0.0 | 1.0 | 0.00 | 0.01 | 0.00 | 100 | 1014.1 |
| 20260901070519 | 77 | 297 | 0.0 | 1.0 | 0.00 | 0.01 | 0.00 | 100 | 1014.1 |
| 20260901070419 | 77 | 0 | 0.0 | 1.0 | 0.00 | 0.01 | 0.00 | 100 | 1014.1 |
| 20260901070316 | 77 | 41 | 0.0 | 1.0 | 0.00 | 0.01 | 0.00 | 100 | 1014.1 |
| 20260901070208 | 77 | 85 | 0.0 | 1.0 | 0.00 | 0.01 | 0.00 | 100 | 1014.1 |
| 20260901070114 | 77 | 312 | 0.0 | 1.0 | 0.00 | 0.01 | 0.00 | 100 | 1014.1 |
| 20260901070010 | 77 | 0 | 0.0 | 1.0 | 0.00 | 0.01 | 0.00 | 100 | 1014.1 |
| 20260901065928 | 77 | 285 | 0.0 | 1.0 | 0.00 | 0.01 | 0.00 | 100 | 1014.1 |
| 20260901065911 | 77 | 319 | 0.0 | 1.0 | 0.00 | 0.01 | 0.00 | 100 | 1014.1 |
| 20260901065814 | 77 | 319 | 0.0 | 1.0 | 0.00 | 0.01 | 0.00 | 100 | 1014.1 |
| 20260901065704 | 77 | 285 | 0.0 | 1.0 | 0.00 | 0.01 | 0.00 | 100 | 1014.1 |
| 20260901065602 | 77 | 52 | 0.0 | 1.0 | 0.00 | 0.01 | 0.00 | 100 | 1014.1 |
| 20260901065501 | 77 | 0 | 0.0 | 1.0 | 0.00 | 0.01 | 0.00 | 100 | 1014.1 |
| 20260901065401 | 77 | 284 | 0.0 | 1.0 | 0.00 | 0.01 | 0.00 | 100 | 1014.1 |
| 20260901065258 | 77 | 293 | 0.0 | 1.0 | 0.00 | 0.01 | 0.00 | 100 | 1014.1 |
| 20260901065209 | 77 | 277 | 0.0 | 1.0 | 0.00 | 0.01 | 0.00 | 100 | 1014.1 |
| 20260901065159 | 77 | 246 | 0.0 | 1.0 | 0.00 | 0.01 | 0.00 | 100 | 1014.1 |
| 20260901065056 | 77 | 312 | 0.0 | 1.0 | 0.00 | 0.01 | 0.00 | 100 | 1014.1 |
| 20260901064955 | 77 | 215 | 0.0 | 1.0 | 0.00 | 0.01 | 0.00 | 100 | 1014.1 |
| 20260901064855 | 77 | 0 | 0.0 | 1.0 | 0.00 | 0.01 | 0.00 | 100 | 1014.1 |
| 20260901064755 | 77 | 0 | 0.0 | 1.0 | 0.00 | 0.01 | 0.00 | 100 | 1014.0 |
| 20260901064709 | 77 | 0 | 0.0 | 1.0 | 0.00 | 0.01 | 0.00 | 100 | 1014.0 |
| 20260901064652 | 77 | 0 | 0.0 | 1.0 | 0.00 | 0.01 | 0.00 | 100 | 1014.0 |
| 20260901064547 | 77 | 221 | 0.0 | 1.0 | 0.00 | 0.01 | 0.00 | 100 | 1014.1 |
| 20260901064443 | 77 | 271 | 0.0 | 1.0 | 0.00 | 0.01 | 0.00 | 100 | 1014.1 |
| 20260901064343 | 77 | 0 | 0.0 | 1.0 | 0.00 | 0.01 | 0.00 | 100 | 1014.1 |
| 20260901064240 | 77 | 0 | 0.0 | 1.0 | 0.00 | 0.01 | 0.00 | 100 | 1014.1 |
| 20260901064209 | 77 | 0 | 0.0 | 1.0 | 0.00 | 0.01 | 0.00 | 100 | 1014.1 |
| 20260901064140 | 77 | 0 | 0.0 | 1.0 | 0.00 | 0.01 | 0.00 | 100 | 1014.1 |
| 20260901064038 | 77 | 0 | 0.0 | 1.0 | 0.00 | 0.01 | 0.00 | 100 | 1014.1 |
| 20260901063932 | 77 | 55 | 0.0 | 1.0 | 0.00 | 0.01 | 0.00 | 100 | 1014.1 |
| 20260901063832 | 77 | 253 | 0.0 | 1.0 | 0.00 | 0.01 | 0.00 | 100 | 1014.1 |
| 20260901063729 | 77 | 0 | 0.0 | 1.0 | 0.00 | 0.01 | 0.00 | 100 | 1014.1 |
| 20260901063707 | 77 | 281 | 0.0 | 1.0 | 0.00 | 0.01 | 0.00 | 100 | 1014.1 |
| 20260901063626 | 77 | 304 | 0.0 | 1.0 | 0.00 | 0.01 | 0.00 | 100 | 1014.1 |
| 20260901063524 | 76 | 0 | 0.0 | 1.0 | 0.00 | 0.01 | 0.00 | 100 | 1014.1 |
| 20260901063424 | 76 | 285 | 0.0 | 1.0 | 0.00 | 0.01 | 0.00 | 100 | 1014.1 |
| 20260901063324 | 76 | 0 | 0.0 | 1.0 | 0.00 | 0.01 | 0.00 | 100 | 1014.1 |
| 20260901063224 | 76 | 289 | 0.0 | 1.0 | 0.00 | 0.01 | 0.00 | 100 | 1014.1 |
| 20260901063207 | 76 | 276 | 0.0 | 1.0 | 0.00 | 0.01 | 0.00 | 100 | 1014.1 |
| 20260901063124 | 76 | 26 | 0.0 | 1.0 | 0.00 | 0.01 | 0.00 | 100 | 1014.1 |
| 20260901063020 | 76 | 13 | 0.0 | 1.0 | 0.00 | 0.01 | 0.00 | 100 | 1014.1 |
| 20260901062920 | 76 | 346 | 0.0 | 1.0 | 0.00 | 0.01 | 0.00 | 100 | 1014.1 |
| 20260901062820 | 76 | 248 | 0.0 | 1.0 | 0.00 | 0.01 | 0.00 | 100 | 1014.1 |
| 20260901062706 | 76 | 0 | 0.0 | 1.0 | 0.00 | 0.01 | 0.00 | 100 | 1014.2 |
| 20260901062620 | 77 | 40 | 0.0 | 1.0 | 0.00 | 0.01 | 0.00 | 100 | 1014.2 |
| 20260901062520 | 77 | 0 | 0.0 | 1.0 | 0.00 | 0.01 | 0.00 | 100 | 1014.2 |
| 20260901062420 | 77 | 0 | 0.0 | 1.0 | 0.00 | 0.01 | 0.00 | 100 | 1014.2 |
| 20260901062318 | 77 | 28 | 0.0 | 1.0 | 0.00 | 0.01 | 0.00 | 100 | 1014.2 |
| 20260901062217 | 77 | 279 | 0.0 | 1.0 | 0.00 | 0.01 | 0.00 | 100 | 1014.2 |
| 20260901062204 | 77 | 293 | 0.0 | 1.0 | 0.00 | 0.01 | 0.00 | 100 | 1014.2 |
| 20260901062117 | 77 | 0 | 0.0 | 1.0 | 0.00 | 0.01 | 0.00 | 100 | 1014.2 |
| 20260901062013 | 77 | 315 | 0.0 | 1.0 | 0.00 | 0.01 | 0.00 | 100 | 1014.2 |
| 20260901061913 | 77 | 0 | 0.0 | 1.0 | 0.00 | 0.01 | 0.00 | 100 | 1014.3 |
| 20260901061813 | 77 | 0 | 0.0 | 1.0 | 0.00 | 0.01 | 0.00 | 100 | 1014.3 |
| 20260901061711 | 77 | 282 | 0.0 | 1.0 | 0.00 | 0.01 | 0.00 | 100 | 1014.3 |
| 20260901061704 | 77 | 8 | 0.0 | 1.0 | 0.00 | 0.01 | 0.00 | 100 | 1014.3 |
| 20260901061610 | 77 | 0 | 0.0 | 1.0 | 0.00 | 0.01 | 0.00 | 100 | 1014.3 |
| 20260901061508 | 77 | 281 | 0.0 | 1.0 | 0.00 | 0.01 | 0.00 | 100 | 1014.3 |
| 20260901061405 | 77 | 346 | 0.0 | 2.0 | 0.00 | 0.01 | 0.00 | 100 | 1014.3 |
| 20260901061302 | 77 | 292 | 0.0 | 2.0 | 0.00 | 0.01 | 0.00 | 100 | 1014.3 |
| 20260901061202 | 77 | 257 | 0.0 | 2.0 | 0.00 | 0.01 | 0.00 | 100 | 1014.3 |
| 20260901061103 | 77 | 291 | 0.0 | 2.0 | 0.00 | 0.01 | 0.00 | 100 | 1014.3 |
| 20260901061001 | 77 | 266 | 0.0 | 2.0 | 0.00 | 0.01 | 0.00 | 100 | 1014.3 |
| 20260901060902 | 76 | 212 | 0.0 | 2.0 | 0.00 | 0.01 | 0.00 | 100 | 1014.3 |
| 20260901060802 | 76 | 285 | 0.0 | 2.0 | 0.00 | 0.01 | 0.00 | 99 | 1014.3 |
| 20260901060703 | 76 | 277 | 0.0 | 2.0 | 0.00 | 0.01 | 0.00 | 99 | 1014.3 |
| 20260901060602 | 76 | 330 | 0.0 | 2.0 | 0.00 | 0.01 | 0.00 | 99 | 1014.3 |
| 20260901060459 | 76 | 97 | 0.0 | 2.0 | 0.00 | 0.01 | 0.00 | 99 | 1014.3 |
| 20260901060359 | 76 | 356 | 0.0 | 2.0 | 0.00 | 0.01 | 0.00 | 99 | 1014.4 |
| 20260901060259 | 76 | 352 | 0.0 | 1.0 | 0.00 | 0.01 | 0.00 | 99 | 1014.4 |
| 20260901060203 | 76 | 193 | 0.0 | 1.0 | 0.00 | 0.01 | 0.00 | 99 | 1014.4 |
| 20260901060159 | 76 | 246 | 0.0 | 1.0 | 0.00 | 0.01 | 0.00 | 99 | 1014.4 |
| 20260901060059 | 76 | 329 | 0.0 | 1.0 | 0.00 | 0.01 | 0.00 | 99 | 1014.4 |
| 20260901055953 | 76 | 288 | 0.0 | 1.0 | 0.00 | 0.01 | 0.00 | 99 | 1014.4 |
| 20260901055920 | 77 | 0 | 0.0 | 1.0 | 0.00 | 0.01 | 0.00 | 99 | 1014.4 |
| 20260901055853 | 76 | 0 | 0.0 | 1.0 | 0.00 | 0.01 | 0.00 | 99 | 1014.4 |
| 20260901055806 | 77 | 276 | 0.0 | 1.0 | 0.00 | 0.01 | 0.00 | 99 | 1014.4 |
| 20260901055652 | 77 | 295 | 0.0 | 1.0 | 0.00 | 0.01 | 0.00 | 99 | 1014.4 |
| 20260901055553 | 77 | 46 | 0.0 | 1.0 | 0.00 | 0.01 | 0.00 | 99 | 1014.4 |
| 20260901055450 | 77 | 305 | 0.0 | 1.0 | 0.00 | 0.01 | 0.00 | 99 | 1014.4 |
| 20260901055350 | 77 | 315 | 0.0 | 1.0 | 0.00 | 0.01 | 0.00 | 99 | 1014.4 |
| 20260901055250 | 77 | 304 | 0.0 | 1.0 | 0.00 | 0.01 | 0.00 | 99 | 1014.4 |
| 20260901055201 | 77 | 0 | 0.0 | 1.0 | 0.00 | 0.01 | 0.00 | 99 | 1014.4 |
| 20260901055150 | 77 | 35 | 0.0 | 1.0 | 0.00 | 0.01 | 0.00 | 99 | 1014.4 |
| 20260901055050 | 77 | 0 | 0.0 | 1.0 | 0.00 | 0.01 | 0.00 | 99 | 1014.4 |
| 20260901054950 | 77 | 253 | 0.0 | 1.0 | 0.00 | 0.01 | 0.00 | 99 | 1014.4 |
| 20260901054851 | 77 | 232 | 0.0 | 1.0 | 0.00 | 0.01 | 0.00 | 99 | 1014.4 |
| 20260901054747 | 77 | 0 | 0.0 | 1.0 | 0.00 | 0.01 | 0.00 | 99 | 1014.4 |
| 20260901054702 | 77 | 354 | 0.0 | 1.0 | 0.00 | 0.01 | 0.00 | 99 | 1014.4 |
| 20260901054648 | 77 | 354 | 0.0 | 1.0 | 0.00 | 0.01 | 0.00 | 99 | 1014.4 |
| 20260901054545 | 77 | 312 | 0.0 | 1.0 | 0.00 | 0.01 | 0.00 | 99 | 1014.3 |
| 20260901054441 | 77 | 287 | 0.0 | 1.0 | 0.00 | 0.01 | 0.00 | 99 | 1014.3 |
| 20260901054425 | 77 | 0 | 0.0 | 1.0 | 0.00 | 0.01 | 0.00 | 99 | 1014.3 |
| 20260901054341 | 77 | 0 | 0.0 | 1.0 | 0.00 | 0.01 | 0.00 | 99 | 1014.3 |
| 20260901054307 | 77 | 308 | 0.0 | 1.0 | 0.00 | 0.01 | 0.00 | 99 | 1014.3 |
| 20260901054142 | 77 | 156 | 0.0 | 1.0 | 0.00 | 0.01 | 0.00 | 99 | 1014.3 |
| 20260901054042 | 77 | 277 | 0.0 | 1.0 | 0.00 | 0.01 | 0.00 | 99 | 1014.3 |
| 20260901053942 | 77 | 0 | 0.0 | 1.0 | 0.00 | 0.01 | 0.00 | 99 | 1014.3 |
| 20260901053841 | 77 | 15 | 0.0 | 1.0 | 0.00 | 0.01 | 0.00 | 99 | 1014.3 |
| 20260901053741 | 77 | 295 | 0.0 | 1.0 | 0.00 | 0.01 | 0.00 | 99 | 1014.3 |
| 20260901053700 | 77 | 293 | 0.0 | 1.0 | 0.00 | 0.01 | 0.00 | 99 | 1014.3 |
| 20260901053638 | 77 | 0 | 0.0 | 1.0 | 0.00 | 0.01 | 0.00 | 99 | 1014.3 |
| 20260901053538 | 77 | 0 | 0.0 | 1.0 | 0.00 | 0.01 | 0.00 | 99 | 1014.3 |
| 20260901053439 | 77 | 343 | 0.0 | 1.0 | 0.00 | 0.01 | 0.00 | 99 | 1014.3 |
| 20260901053338 | 77 | 0 | 0.0 | 1.0 | 0.00 | 0.01 | 0.00 | 99 | 1014.3 |
| 20260901053236 | 77 | 303 | 0.0 | 1.0 | 0.00 | 0.01 | 0.00 | 99 | 1014.3 |
| 20260901053201 | 77 | 221 | 0.0 | 1.0 | 0.00 | 0.01 | 0.00 | 99 | 1014.2 |
| 20260901053136 | 77 | 0 | 0.0 | 1.0 | 0.00 | 0.01 | 0.00 | 99 | 1014.2 |
| 20260901053035 | 77 | 0 | 0.0 | 1.0 | 0.00 | 0.01 | 0.00 | 99 | 1014.2 |
| 20260901052933 | 77 | 236 | 0.0 | 1.0 | 0.00 | 0.01 | 0.00 | 99 | 1014.2 |
| 20260901052832 | 77 | 0 | 0.0 | 1.0 | 0.00 | 0.01 | 0.00 | 99 | 1014.2 |
| 20260901052730 | 77 | 323 | 0.0 | 1.0 | 0.00 | 0.01 | 0.00 | 99 | 1014.2 |
| 20260901052701 | 77 | 0 | 0.0 | 1.0 | 0.00 | 0.01 | 0.00 | 99 | 1014.2 |
| 20260901052629 | 77 | 281 | 0.0 | 1.0 | 0.00 | 0.01 | 0.00 | 99 | 1014.2 |
| 20260901052527 | 77 | 344 | 0.0 | 1.0 | 0.00 | 0.01 | 0.00 | 99 | 1014.2 |
| 20260901052427 | 77 | 288 | 0.0 | 2.0 | 0.00 | 0.01 | 0.00 | 99 | 1014.2 |
| 20260901052323 | 77 | 275 | 0.0 | 2.0 | 0.00 | 0.01 | 0.00 | 99 | 1014.2 |
| 20260901052224 | 77 | 34 | 0.0 | 2.0 | 0.00 | 0.01 | 0.00 | 99 | 1014.2 |
| 20260901052201 | 77 | 279 | 0.0 | 2.0 | 0.00 | 0.01 | 0.00 | 99 | 1014.2 |
| 20260901052124 | 77 | 0 | 0.0 | 2.0 | 0.00 | 0.01 | 0.00 | 99 | 1014.2 |
| 20260901052021 | 77 | 272 | 0.0 | 2.0 | 0.00 | 0.01 | 0.00 | 99 | 1014.2 |
| 20260901051918 | 77 | 19 | 0.0 | 2.0 | 0.00 | 0.01 | 0.00 | 99 | 1014.3 |
| 20260901051818 | 77 | 291 | 0.0 | 2.0 | 0.00 | 0.01 | 0.00 | 99 | 1014.3 |
| 20260901051702 | 77 | 276 | 0.0 | 2.0 | 0.00 | 0.01 | 0.00 | 99 | 1014.3 |
| 20260901051613 | 77 | 351 | 0.0 | 2.0 | 0.00 | 0.01 | 0.00 | 99 | 1014.3 |
| 20260901051513 | 77 | 317 | 0.0 | 2.0 | 0.00 | 0.01 | 0.00 | 99 | 1014.3 |
| 20260901051409 | 77 | 0 | 0.0 | 1.0 | 0.00 | 0.01 | 0.00 | 99 | 1014.3 |
| 20260901051256 | 77 | 0 | 0.0 | 1.0 | 0.00 | 0.01 | 0.00 | 99 | 1014.3 |
| 20260901051158 | 77 | 284 | 0.0 | 1.0 | 0.00 | 0.01 | 0.00 | 99 | 1014.3 |
| 20260901051154 | 77 | 19 | 0.0 | 1.0 | 0.00 | 0.01 | 0.00 | 99 | 1014.3 |
| 20260901051054 | 77 | 0 | 0.0 | 1.0 | 0.00 | 0.01 | 0.00 | 99 | 1014.3 |
| 20260901050949 | 77 | 315 | 0.0 | 1.0 | 0.00 | 0.01 | 0.00 | 99 | 1014.3 |
| 20260901050921 | 77 | 0 | 0.0 | 1.0 | 0.00 | 0.01 | 0.00 | 98 | 1014.3 |
| 20260901050842 | 77 | 0 | 0.0 | 1.0 | 0.00 | 0.01 | 0.00 | 98 | 1014.3 |
| 20260901050804 | 77 | 293 | 0.0 | 1.0 | 0.00 | 0.01 | 0.00 | 98 | 1014.3 |
| 20260901050642 | 77 | 280 | 0.0 | 1.0 | 0.00 | 0.01 | 0.00 | 98 | 1014.3 |
| 20260901050539 | 77 | 239 | 0.0 | 1.0 | 0.00 | 0.01 | 0.00 | 98 | 1014.2 |
| 20260901050439 | 77 | 45 | 0.0 | 1.0 | 0.00 | 0.01 | 0.00 | 98 | 1014.2 |
| 20260901050339 | 77 | 251 | 0.0 | 1.0 | 0.00 | 0.01 | 0.00 | 98 | 1014.2 |
| 20260901050239 | 77 | 0 | 0.0 | 1.0 | 0.00 | 0.01 | 0.00 | 98 | 1014.2 |
| 20260901050155 | 77 | 279 | 0.0 | 1.0 | 0.00 | 0.01 | 0.00 | 98 | 1014.2 |
| 20260901050136 | 77 | 311 | 0.0 | 1.0 | 0.00 | 0.01 | 0.00 | 98 | 1014.2 |
| 20260901050036 | 77 | 279 | 0.0 | 1.0 | 0.00 | 0.01 | 0.00 | 98 | 1014.2 |
| 20260901045936 | 77 | 270 | 0.0 | 1.0 | 0.00 | 0.01 | 0.01 | 98 | 1014.2 |
| 20260901045830 | 77 | 0 | 0.0 | 1.0 | 0.00 | 0.01 | 0.01 | 98 | 1014.1 |
| 20260901045727 | 77 | 0 | 0.0 | 1.0 | 0.00 | 0.01 | 0.01 | 98 | 1014.1 |
| 20260901045656 | 77 | 270 | 0.0 | 1.0 | 0.00 | 0.01 | 0.01 | 98 | 1014.1 |
| 20260901045627 | 77 | 0 | 0.0 | 1.0 | 0.00 | 0.01 | 0.01 | 98 | 1014.1 |
| 20260901045526 | 77 | 0 | 0.0 | 1.0 | 0.00 | 0.01 | 0.01 | 98 | 1014.1 |
| 20260901045426 | 77 | 26 | 0.0 | 1.0 | 0.00 | 0.01 | 0.01 | 98 | 1014.1 |
| 20260901045417 | 77 | 328 | 0.0 | 1.0 | 0.00 | 0.01 | 0.01 | 98 | 1014.1 |
| 20260901045324 | 77 | 0 | 0.0 | 1.0 | 0.00 | 0.01 | 0.01 | 98 | 1014.1 |
| 20260901045302 | 77 | 0 | 0.0 | 1.0 | 0.00 | 0.01 | 0.01 | 98 | 1014.1 |
| 20260901045124 | 77 | 0 | 0.0 | 1.0 | 0.00 | 0.01 | 0.01 | 98 | 1014.0 |
| 20260901045016 | 77 | 0 | 0.0 | 1.0 | 0.00 | 0.01 | 0.01 | 98 | 1014.0 |
| 20260901044923 | 77 | 160 | 0.0 | 1.0 | 0.00 | 0.01 | 0.01 | 98 | 1014.0 |
| 20260901044916 | 77 | 0 | 0.0 | 1.0 | 0.00 | 0.01 | 0.01 | 98 | 1014.0 |
| 20260901044814 | 77 | 0 | 0.0 | 1.0 | 0.00 | 0.01 | 0.01 | 98 | 1014.0 |
| 20260901044801 | 77 | 14 | 0.0 | 1.0 | 0.00 | 0.01 | 0.01 | 98 | 1014.0 |
| 20260901044606 | 77 | 325 | 0.0 | 1.0 | 0.00 | 0.01 | 0.01 | 98 | 1014.0 |
| 20260901044507 | 77 | 8 | 0.0 | 1.0 | 0.00 | 0.01 | 0.01 | 98 | 1014.0 |
| 20260901044406 | 77 | 289 | 0.0 | 1.0 | 0.00 | 0.01 | 0.01 | 98 | 1014.0 |
| 20260901044303 | 77 | 282 | 0.0 | 1.0 | 0.00 | 0.01 | 0.01 | 98 | 1014.0 |
| 20260901044203 | 78 | 0 | 0.0 | 1.0 | 0.00 | 0.01 | 0.01 | 98 | 1014.0 |
| 20260901044156 | 78 | 64 | 0.0 | 1.0 | 0.00 | 0.01 | 0.01 | 98 | 1014.0 |
| 20260901044101 | 78 | 0 | 0.0 | 1.0 | 0.00 | 0.01 | 0.01 | 98 | 1014.0 |
| 20260901044000 | 78 | 0 | 0.0 | 1.0 | 0.00 | 0.01 | 0.01 | 98 | 1014.0 |
| 20260901043901 | 78 | 0 | 0.0 | 1.0 | 0.00 | 0.01 | 0.01 | 98 | 1014.0 |
| 20260901043800 | 78 | 14 | 0.0 | 1.0 | 0.00 | 0.01 | 0.01 | 98 | 1014.0 |
| 20260901043657 | 78 | 6 | 0.0 | 1.0 | 0.00 | 0.01 | 0.01 | 98 | 1014.0 |
| 20260901043552 | 78 | 20 | 0.0 | 1.0 | 0.00 | 0.01 | 0.01 | 97 | 1014.0 |
| 20260901043452 | 78 | 0 | 0.0 | 1.0 | 0.00 | 0.01 | 0.01 | 98 | 1014.0 |
| 20260901043352 | 78 | 21 | 0.0 | 1.0 | 0.00 | 0.01 | 0.01 | 98 | 1014.0 |
| 20260901043252 | 78 | 0 | 0.0 | 2.0 | 0.00 | 0.01 | 0.01 | 97 | 1014.0 |
| 20260901043152 | 78 | 0 | 0.0 | 2.0 | 0.00 | 0.01 | 0.01 | 97 | 1014.0 |
| 20260901043145 | 78 | 341 | 0.0 | 2.0 | 0.00 | 0.01 | 0.01 | 97 | 1014.0 |
| 20260901043053 | 78 | 343 | 0.0 | 2.0 | 0.00 | 0.01 | 0.01 | 97 | 1014.0 |
| 20260901042953 | 78 | 242 | 0.0 | 2.0 | 0.00 | 0.01 | 0.01 | 97 | 1014.0 |
| 20260901042853 | 78 | 292 | 0.0 | 2.0 | 0.00 | 0.01 | 0.01 | 97 | 1014.0 |
| 20260901042753 | 78 | 0 | 0.0 | 2.0 | 0.00 | 0.01 | 0.01 | 97 | 1014.0 |
| 20260901042652 | 78 | 354 | 0.0 | 2.0 | 0.00 | 0.01 | 0.01 | 97 | 1014.0 |
| 20260901042645 | 78 | 0 | 0.0 | 2.0 | 0.00 | 0.01 | 0.01 | 97 | 1014.0 |
| 20260901042552 | 78 | 317 | 0.0 | 2.0 | 0.00 | 0.01 | 0.01 | 97 | 1014.0 |
| 20260901042453 | 78 | 304 | 0.0 | 2.0 | 0.00 | 0.01 | 0.01 | 97 | 1014.0 |
| 20260901042353 | 78 | 340 | 0.0 | 2.0 | 0.00 | 0.01 | 0.01 | 97 | 1014.0 |
| 20260901042252 | 78 | 347 | 0.0 | 2.0 | 0.00 | 0.01 | 0.01 | 97 | 1014.0 |
| 20260901042153 | 78 | 23 | 0.0 | 2.0 | 0.00 | 0.01 | 0.01 | 97 | 1014.0 |
| 20260901042145 | 78 | 6 | 0.0 | 2.0 | 0.00 | 0.01 | 0.01 | 97 | 1014.0 |
| 20260901042053 | 78 | 0 | 0.0 | 2.0 | 0.00 | 0.01 | 0.01 | 97 | 1014.0 |
| 20260901041952 | 78 | 0 | 0.0 | 2.0 | 0.00 | 0.01 | 0.01 | 97 | 1014.0 |
| 20260901041909 | 78 | 0 | 0.0 | 2.0 | 0.00 | 0.01 | 0.01 | 97 | 1014.0 |
| 20260901041852 | 78 | 276 | 0.0 | 2.0 | 0.00 | 0.01 | 0.01 | 97 | 1014.0 |
| 20260901041755 | 78 | 347 | 0.0 | 2.0 | 0.00 | 0.01 | 0.01 | 97 | 1014.0 |
| 20260901041750 | 78 | 359 | 0.0 | 2.0 | 0.00 | 0.01 | 0.01 | 97 | 1014.0 |
| 20260901041550 | 78 | 0 | 0.0 | 2.0 | 0.00 | 0.01 | 0.01 | 97 | 1014.1 |
| 20260901041450 | 78 | 79 | 0.0 | 2.0 | 0.00 | 0.01 | 0.01 | 97 | 1014.1 |
| 20260901041349 | 78 | 0 | 0.0 | 2.0 | 0.00 | 0.01 | 0.01 | 97 | 1014.1 |
| 20260901041250 | 78 | 0 | 0.0 | 1.0 | 0.00 | 0.01 | 0.01 | 97 | 1014.1 |
| 20260901041147 | 78 | 49 | 0.0 | 1.0 | 0.00 | 0.01 | 0.01 | 97 | 1014.1 |
| 20260901041125 | 78 | 0 | 0.0 | 1.0 | 0.00 | 0.01 | 0.01 | 97 | 1014.1 |
| 20260901041046 | 78 | 0 | 0.0 | 1.0 | 0.00 | 0.01 | 0.01 | 97 | 1014.1 |
| 20260901041014 | 78 | 280 | 0.0 | 1.0 | 0.00 | 0.01 | 0.01 | 97 | 1014.1 |
| 20260901040844 | 78 | 311 | 0.0 | 1.0 | 0.00 | 0.01 | 0.01 | 97 | 1014.1 |
| 20260901040750 | 78 | 230 | 0.0 | 1.0 | 0.00 | 0.01 | 0.01 | 97 | 1014.1 |
| 20260901040641 | 78 | 26 | 0.0 | 1.0 | 0.00 | 0.01 | 0.01 | 97 | 1014.1 |
| 20260901040546 | 78 | 0 | 0.0 | 1.0 | 0.00 | 0.01 | 0.01 | 97 | 1014.1 |
| 20260901040440 | 78 | 0 | 0.0 | 1.0 | 0.00 | 0.01 | 0.01 | 97 | 1014.1 |
| 20260901040341 | 78 | 0 | 0.0 | 1.0 | 0.00 | 0.01 | 0.01 | 97 | 1014.1 |
| 20260901040241 | 78 | 296 | 0.0 | 1.0 | 0.00 | 0.01 | 0.01 | 97 | 1014.1 |
| 20260901040145 | 78 | 12 | 0.0 | 1.0 | 0.00 | 0.01 | 0.01 | 97 | 1014.1 |
| 20260901040141 | 78 | 285 | 0.0 | 1.0 | 0.00 | 0.01 | 0.01 | 97 | 1014.1 |
| 20260901040041 | 78 | 314 | 0.0 | 1.0 | 0.00 | 0.01 | 0.01 | 97 | 1014.1 |
| 20260901035941 | 78 | 295 | 0.0 | 1.0 | 0.00 | 0.01 | 0.01 | 97 | 1014.1 |
| 20260901035841 | 78 | 47 | 0.0 | 1.0 | 0.00 | 0.01 | 0.01 | 97 | 1014.1 |
| 20260901035738 | 78 | 295 | 0.0 | 1.0 | 0.00 | 0.01 | 0.01 | 97 | 1014.1 |
| 20260901035642 | 78 | 237 | 0.0 | 1.0 | 0.00 | 0.01 | 0.01 | 97 | 1014.1 |
| 20260901035634 | 78 | 280 | 0.0 | 1.0 | 0.00 | 0.01 | 0.01 | 97 | 1014.1 |
| 20260901035534 | 78 | 0 | 0.0 | 1.0 | 0.00 | 0.01 | 0.01 | 97 | 1014.1 |
| 20260901035434 | 78 | 0 | 0.0 | 1.0 | 0.00 | 0.01 | 0.01 | 97 | 1014.1 |
| 20260901035335 | 78 | 7 | 0.0 | 1.0 | 0.00 | 0.01 | 0.01 | 97 | 1014.1 |
| 20260901035231 | 78 | 321 | 0.0 | 1.0 | 0.00 | 0.01 | 0.01 | 97 | 1014.1 |
| 20260901035140 | 78 | 268 | 0.0 | 1.0 | 0.00 | 0.01 | 0.01 | 97 | 1014.1 |
| 20260901035132 | 78 | 321 | 0.0 | 1.0 | 0.00 | 0.01 | 0.01 | 97 | 1014.1 |
| 20260901035032 | 78 | 311 | 0.0 | 1.0 | 0.00 | 0.01 | 0.01 | 97 | 1014.1 |
| 20260901034929 | 78 | 330 | 0.0 | 1.0 | 0.00 | 0.01 | 0.01 | 97 | 1014.1 |
| 20260901034827 | 78 | 338 | 0.0 | 1.0 | 0.00 | 0.01 | 0.01 | 97 | 1014.1 |
| 20260901034727 | 78 | 301 | 0.0 | 1.0 | 0.00 | 0.01 | 0.01 | 97 | 1014.1 |
| 20260901034640 | 78 | 330 | 0.0 | 1.0 | 0.00 | 0.01 | 0.01 | 97 | 1014.1 |
| 20260901034626 | 78 | 0 | 0.0 | 1.0 | 0.00 | 0.01 | 0.01 | 97 | 1014.1 |
| 20260901034523 | 78 | 347 | 0.0 | 1.0 | 0.00 | 0.01 | 0.01 | 97 | 1014.0 |
| 20260901034423 | 78 | 0 | 0.0 | 1.0 | 0.00 | 0.01 | 0.01 | 96 | 1014.0 |
| 20260901034401 | 78 | 0 | 0.0 | 1.0 | 0.00 | 0.01 | 0.01 | 96 | 1014.0 |
| 20260901034320 | 78 | 0 | 0.0 | 1.0 | 0.00 | 0.01 | 0.01 | 96 | 1014.0 |
| 20260901034242 | 78 | 12 | 0.0 | 1.0 | 0.00 | 0.01 | 0.01 | 96 | 1014.0 |
| 20260901034108 | 78 | 0 | 0.0 | 1.0 | 0.00 | 0.01 | 0.01 | 96 | 1014.0 |
| 20260901034004 | 78 | 104 | 0.0 | 1.0 | 0.00 | 0.01 | 0.01 | 96 | 1014.0 |
| 20260901033902 | 78 | 0 | 0.0 | 1.0 | 0.00 | 0.01 | 0.01 | 96 | 1014.0 |
| 20260901033759 | 78 | 272 | 0.0 | 1.0 | 0.00 | 0.01 | 0.01 | 96 | 1014.0 |
| 20260901033659 | 79 | 354 | 0.0 | 1.0 | 0.00 | 0.01 | 0.01 | 96 | 1014.0 |
| 20260901033636 | 79 | 56 | 0.0 | 1.0 | 0.00 | 0.01 | 0.01 | 96 | 1014.0 |
| 20260901033553 | 79 | 298 | 0.0 | 1.0 | 0.00 | 0.01 | 0.01 | 96 | 1014.0 |
| 20260901033453 | 79 | 328 | 0.0 | 1.0 | 0.00 | 0.01 | 0.01 | 96 | 1014.0 |
| 20260901033353 | 79 | 31 | 0.0 | 1.0 | 0.00 | 0.01 | 0.01 | 96 | 1014.0 |
| 20260901033253 | 79 | 0 | 0.0 | 1.0 | 0.00 | 0.01 | 0.01 | 96 | 1014.1 |
| 20260901033137 | 79 | 0 | 0.0 | 1.0 | 0.00 | 0.01 | 0.01 | 96 | 1014.1 |
| 20260901033050 | 79 | 176 | 0.0 | 1.0 | 0.00 | 0.01 | 0.01 | 96 | 1014.1 |
| 20260901032950 | 79 | 236 | 0.0 | 1.0 | 0.00 | 0.01 | 0.01 | 96 | 1014.1 |
| 20260901032848 | 79 | 10 | 0.0 | 1.0 | 0.00 | 0.01 | 0.01 | 96 | 1014.1 |
| 20260901032746 | 79 | 317 | 0.0 | 1.0 | 0.00 | 0.01 | 0.01 | 96 | 1014.0 |
| 20260901032648 | 79 | 183 | 0.0 | 1.0 | 0.00 | 0.01 | 0.01 | 96 | 1014.0 |
| 20260901032637 | 79 | 349 | 0.0 | 1.0 | 0.00 | 0.01 | 0.01 | 96 | 1014.0 |
| 20260901032544 | 79 | 341 | 0.0 | 1.0 | 0.00 | 0.01 | 0.01 | 96 | 1014.0 |
| 20260901032444 | 79 | 352 | 0.0 | 1.0 | 0.00 | 0.01 | 0.01 | 96 | 1014.0 |
| 20260901032344 | 79 | 0 | 0.0 | 1.0 | 0.00 | 0.01 | 0.01 | 96 | 1014.0 |
| 20260901032244 | 79 | 334 | 0.0 | 1.0 | 0.00 | 0.01 | 0.01 | 96 | 1014.0 |
| 20260901032144 | 79 | 244 | 0.0 | 1.0 | 0.00 | 0.01 | 0.01 | 96 | 1013.9 |
| 20260901032137 | 79 | 272 | 0.0 | 1.0 | 0.00 | 0.01 | 0.01 | 96 | 1013.9 |
| 20260901032044 | 79 | 268 | 0.0 | 1.0 | 0.00 | 0.01 | 0.01 | 96 | 1013.9 |
| 20260901031942 | 79 | 258 | 0.0 | 1.0 | 0.00 | 0.01 | 0.01 | 96 | 1013.9 |
| 20260901031838 | 79 | 292 | 0.0 | 1.0 | 0.00 | 0.01 | 0.01 | 96 | 1014.0 |
| 20260901031735 | 79 | 0 | 0.0 | 2.0 | 0.00 | 0.01 | 0.01 | 96 | 1014.0 |
| 20260901031636 | 79 | 0 | 0.0 | 2.0 | 0.00 | 0.01 | 0.01 | 96 | 1014.0 |
| 20260901031535 | 79 | 0 | 0.0 | 2.0 | 0.00 | 0.01 | 0.01 | 95 | 1014.0 |
| 20260901031436 | 79 | 338 | 0.0 | 2.0 | 0.00 | 0.01 | 0.01 | 95 | 1014.0 |
| 20260901031332 | 79 | 112 | 0.0 | 2.0 | 0.00 | 0.01 | 0.01 | 95 | 1014.0 |
| 20260901031233 | 79 | 312 | 0.0 | 2.0 | 0.00 | 0.01 | 0.01 | 95 | 1014.0 |
| 20260901031137 | 79 | 0 | 0.0 | 2.0 | 0.00 | 0.01 | 0.01 | 95 | 1014.0 |
| 20260901031132 | 79 | 292 | 0.0 | 2.0 | 0.00 | 0.01 | 0.01 | 95 | 1014.0 |
| 20260901031033 | 79 | 13 | 0.0 | 2.0 | 0.00 | 0.01 | 0.01 | 95 | 1014.0 |
| 20260901030927 | 79 | 43 | 0.0 | 2.0 | 0.00 | 0.01 | 0.01 | 95 | 1014.0 |
| 20260901030826 | 79 | 352 | 0.0 | 2.0 | 0.00 | 0.01 | 0.01 | 95 | 1014.0 |
| 20260901030726 | 79 | 30 | 0.0 | 2.0 | 0.00 | 0.01 | 0.01 | 95 | 1014.0 |
| 20260901030626 | 79 | 0 | 0.0 | 2.0 | 0.00 | 0.01 | 0.01 | 95 | 1014.0 |
| 20260901030523 | 79 | 0 | 0.0 | 2.0 | 0.00 | 0.01 | 0.01 | 95 | 1013.9 |
| 20260901030423 | 79 | 0 | 0.0 | 2.0 | 0.00 | 0.01 | 0.01 | 95 | 1013.9 |
| 20260901030401 | 79 | 10 | 0.0 | 1.0 | 0.00 | 0.01 | 0.01 | 95 | 1013.9 |
| 20260901030324 | 79 | 56 | 0.0 | 1.0 | 0.00 | 0.01 | 0.01 | 95 | 1013.9 |
| 20260901030243 | 79 | 194 | 0.0 | 1.0 | 0.00 | 0.01 | 0.01 | 95 | 1013.9 |
| 20260901030121 | 79 | 36 | 0.0 | 1.0 | 0.00 | 0.01 | 0.01 | 95 | 1013.9 |
| 20260901030020 | 79 | 9 | 0.0 | 1.0 | 0.00 | 0.01 | 0.01 | 95 | 1013.9 |
| 20260901025915 | 79 | 354 | 0.0 | 2.0 | 0.00 | 0.01 | 0.01 | 95 | 1013.8 |
| 20260901025815 | 79 | 351 | 1.0 | 2.0 | 0.00 | 0.01 | 0.01 | 95 | 1013.8 |
| 20260901025715 | 79 | 354 | 1.0 | 2.0 | 0.00 | 0.01 | 0.01 | 95 | 1013.8 |
| 20260901025637 | 79 | 357 | 1.0 | 2.0 | 0.00 | 0.01 | 0.01 | 95 | 1013.8 |
| 20260901025611 | 79 | 14 | 1.0 | 2.0 | 0.00 | 0.01 | 0.01 | 95 | 1013.7 |
| 20260901025511 | 79 | 0 | 1.0 | 2.0 | 0.00 | 0.01 | 0.01 | 95 | 1013.7 |
| 20260901025409 | 79 | 343 | 1.0 | 2.0 | 0.00 | 0.01 | 0.01 | 95 | 1013.7 |
| 20260901025355 | 79 | 340 | 1.0 | 2.0 | 0.00 | 0.01 | 0.01 | 94 | 1013.7 |
| 20260901025308 | 79 | 22 | 1.0 | 2.0 | 0.00 | 0.01 | 0.01 | 95 | 1013.7 |
| 20260901025237 | 79 | 63 | 1.0 | 2.0 | 0.00 | 0.01 | 0.01 | 94 | 1013.7 |
| 20260901025109 | 79 | 3 | 1.0 | 2.0 | 0.00 | 0.01 | 0.01 | 94 | 1013.7 |
| 20260901025006 | 79 | 358 | 1.0 | 2.0 | 0.00 | 0.01 | 0.01 | 94 | 1013.6 |
| 20260901024903 | 79 | 29 | 1.0 | 1.0 | 0.00 | 0.01 | 0.01 | 94 | 1013.6 |
| 20260901024852 | 79 | 335 | 0.0 | 1.0 | 0.00 | 0.01 | 0.01 | 94 | 1013.6 |
| 20260901024800 | 79 | 3 | 1.0 | 1.0 | 0.00 | 0.01 | 0.01 | 94 | 1013.6 |
| 20260901024734 | 79 | 34 | 0.0 | 1.0 | 0.00 | 0.01 | 0.01 | 94 | 1013.6 |
| 20260901024559 | 79 | 357 | 0.0 | 2.0 | 0.00 | 0.01 | 0.01 | 94 | 1013.5 |
| 20260901024457 | 79 | 26 | 0.0 | 2.0 | 0.00 | 0.01 | 0.01 | 94 | 1013.5 |
| 20260901024354 | 79 | 353 | 0.0 | 2.0 | 0.00 | 0.01 | 0.01 | 94 | 1013.5 |
| 20260901024251 | 79 | 357 | 0.0 | 2.0 | 0.00 | 0.01 | 0.01 | 93 | 1013.4 |
| 20260901024152 | 79 | 36 | 0.0 | 2.0 | 0.00 | 0.01 | 0.01 | 93 | 1013.4 |
| 20260901024129 | 79 | 24 | 0.0 | 2.0 | 0.00 | 0.01 | 0.01 | 93 | 1013.4 |
| 20260901024050 | 79 | 0 | 0.0 | 2.0 | 0.00 | 0.01 | 0.01 | 93 | 1013.4 |
| 20260901023951 | 80 | 26 | 0.0 | 2.0 | 0.00 | 0.01 | 0.01 | 93 | 1013.3 |
| 20260901023847 | 80 | 9 | 0.0 | 2.0 | 0.00 | 0.01 | 0.01 | 93 | 1013.3 |
| 20260901023748 | 80 | 339 | 0.0 | 2.0 | 0.00 | 0.01 | 0.01 | 93 | 1013.3 |
| 20260901023642 | 80 | 329 | 0.0 | 2.0 | 0.00 | 0.01 | 0.01 | 93 | 1013.3 |
| 20260901023627 | 80 | 354 | 0.0 | 2.0 | 0.00 | 0.01 | 0.01 | 93 | 1013.3 |
| 20260901023542 | 80 | 9 | 0.0 | 2.0 | 0.00 | 0.01 | 0.01 | 93 | 1013.3 |
| 20260901023441 | 80 | 0 | 0.0 | 2.0 | 0.00 | 0.01 | 0.01 | 93 | 1013.3 |
| 20260901023342 | 80 | 124 | 0.0 | 2.0 | 0.00 | 0.01 | 0.01 | 93 | 1013.2 |
| 20260901023242 | 80 | 322 | 0.0 | 2.0 | 0.00 | 0.01 | 0.01 | 93 | 1013.2 |
| 20260901023140 | 80 | 4 | 0.0 | 2.0 | 0.00 | 0.01 | 0.01 | 93 | 1013.2 |
| 20260901023126 | 80 | 0 | 0.0 | 2.0 | 0.00 | 0.01 | 0.01 | 92 | 1013.2 |
| 20260901023039 | 80 | 60 | 0.0 | 2.0 | 0.00 | 0.01 | 0.01 | 92 | 1013.2 |
| 20260901022939 | 80 | 334 | 0.0 | 2.0 | 0.00 | 0.01 | 0.01 | 92 | 1013.1 |
| 20260901022839 | 80 | 10 | 0.0 | 2.0 | 0.00 | 0.01 | 0.01 | 92 | 1013.1 |
| 20260901022739 | 80 | 51 | 0.0 | 2.0 | 0.00 | 0.01 | 0.01 | 92 | 1013.1 |
| 20260901022633 | 80 | 279 | 0.0 | 2.0 | 0.00 | 0.01 | 0.01 | 92 | 1013.1 |
| 20260901022623 | 80 | 17 | 0.0 | 2.0 | 0.00 | 0.01 | 0.01 | 92 | 1013.1 |
| 20260901022533 | 80 | 336 | 0.0 | 2.0 | 0.00 | 0.01 | 0.01 | 92 | 1013.1 |
| 20260901022427 | 80 | 0 | 0.0 | 2.0 | 0.00 | 0.01 | 0.01 | 92 | 1013.1 |
| 20260901022326 | 80 | 248 | 0.0 | 2.0 | 0.00 | 0.01 | 0.01 | 92 | 1013.1 |
| 20260901022224 | 80 | 349 | 0.0 | 2.0 | 0.00 | 0.01 | 0.01 | 92 | 1013.1 |
| 20260901022124 | 80 | 338 | 0.0 | 2.0 | 0.00 | 0.01 | 0.01 | 91 | 1013.1 |
| 20260901022021 | 80 | 0 | 0.0 | 2.0 | 0.00 | 0.01 | 0.01 | 91 | 1013.1 |
| 20260901021921 | 80 | 297 | 0.0 | 2.0 | 0.00 | 0.01 | 0.01 | 91 | 1013.0 |
| 20260901021820 | 80 | 56 | 0.0 | 2.0 | 0.00 | 0.01 | 0.01 | 91 | 1013.0 |
| 20260901021718 | 80 | 0 | 0.0 | 2.0 | 0.00 | 0.01 | 0.01 | 91 | 1013.0 |
| 20260901021623 | 80 | 331 | 0.0 | 2.0 | 0.00 | 0.01 | 0.01 | 91 | 1013.0 |
| 20260901021619 | 80 | 346 | 0.0 | 2.0 | 0.00 | 0.01 | 0.01 | 91 | 1013.0 |
| 20260901021518 | 81 | 340 | 0.0 | 2.0 | 0.00 | 0.01 | 0.01 | 91 | 1013.0 |
| 20260901021418 | 81 | 0 | 0.0 | 2.0 | 0.00 | 0.01 | 0.01 | 91 | 1013.0 |
| 20260901021318 | 81 | 0 | 0.0 | 2.0 | 0.00 | 0.01 | 0.01 | 91 | 1013.0 |
| 20260901021218 | 81 | 346 | 0.0 | 2.0 | 0.00 | 0.01 | 0.01 | 91 | 1013.0 |
| 20260901021123 | 81 | 0 | 0.0 | 2.0 | 0.00 | 0.01 | 0.01 | 91 | 1013.0 |
| 20260901021118 | 81 | 359 | 0.0 | 2.0 | 0.00 | 0.01 | 0.01 | 91 | 1013.0 |
| 20260901021018 | 81 | 0 | 0.0 | 2.0 | 0.00 | 0.01 | 0.01 | 90 | 1013.0 |
| 20260901020918 | 81 | 0 | 0.0 | 1.0 | 0.00 | 0.01 | 0.01 | 90 | 1013.0 |
| 20260901020818 | 81 | 277 | 0.0 | 1.0 | 0.00 | 0.01 | 0.01 | 90 | 1013.0 |
| 20260901020719 | 81 | 18 | 0.0 | 1.0 | 0.00 | 0.01 | 0.01 | 90 | 1013.0 |
| 20260901020616 | 81 | 290 | 0.0 | 1.0 | 0.00 | 0.01 | 0.01 | 90 | 1013.0 |
| 20260901020513 | 81 | 0 | 0.0 | 1.0 | 0.00 | 0.01 | 0.01 | 90 | 1013.0 |
| 20260901020413 | 81 | 350 | 0.0 | 1.0 | 0.00 | 0.01 | 0.01 | 90 | 1013.0 |
| 20260901020306 | 81 | 336 | 0.0 | 1.0 | 0.00 | 0.01 | 0.01 | 90 | 1012.9 |
| 20260901020207 | 81 | 24 | 0.0 | 1.0 | 0.00 | 0.01 | 0.01 | 90 | 1012.9 |
| 20260901020116 | 81 | 62 | 0.0 | 1.0 | 0.00 | 0.01 | 0.01 | 89 | 1012.9 |
| 20260901020107 | 81 | 99 | 0.0 | 1.0 | 0.00 | 0.01 | 0.01 | 89 | 1012.9 |
| 20260901020006 | 81 | 277 | 0.0 | 1.0 | 0.00 | 0.01 | 0.01 | 89 | 1012.9 |
| 20260901015906 | 81 | 2 | 0.0 | 1.0 | 0.00 | 0.01 | 0.01 | 89 | 1012.9 |
| 20260901015806 | 81 | 83 | 0.0 | 1.0 | 0.00 | 0.01 | 0.01 | 89 | 1012.9 |
| 20260901015707 | 82 | 332 | 0.0 | 1.0 | 0.00 | 0.01 | 0.01 | 89 | 1012.9 |
| 20260901015616 | 82 | 0 | 0.0 | 1.0 | 0.00 | 0.01 | 0.01 | 89 | 1012.9 |
| 20260901015606 | 82 | 19 | 0.0 | 1.0 | 0.00 | 0.01 | 0.01 | 89 | 1012.9 |
| 20260901015504 | 82 | 320 | 0.0 | 2.0 | 0.00 | 0.01 | 0.01 | 89 | 1012.9 |
| 20260901015403 | 82 | 328 | 0.0 | 2.0 | 0.00 | 0.01 | 0.01 | 89 | 1012.9 |
| 20260901015305 | 82 | 64 | 0.0 | 2.0 | 0.00 | 0.01 | 0.01 | 89 | 1012.9 |
| 20260901015201 | 82 | 102 | 0.0 | 2.0 | 0.00 | 0.01 | 0.01 | 88 | 1012.9 |
| 20260901015114 | 82 | 358 | 0.0 | 2.0 | 0.00 | 0.01 | 0.01 | 88 | 1012.9 |
| 20260901015101 | 82 | 1 | 0.0 | 2.0 | 0.00 | 0.01 | 0.01 | 88 | 1012.9 |
| 20260901014958 | 82 | 341 | 0.0 | 2.0 | 0.00 | 0.01 | 0.01 | 88 | 1012.9 |
| 20260901014857 | 82 | 29 | 0.0 | 2.0 | 0.00 | 0.01 | 0.01 | 88 | 1012.9 |
| 20260901014758 | 82 | 22 | 0.0 | 2.0 | 0.00 | 0.01 | 0.01 | 88 | 1012.9 |
| 20260901014655 | 82 | 30 | 0.0 | 2.0 | 0.00 | 0.01 | 0.01 | 88 | 1012.9 |
| 20260901014609 | 82 | 305 | 0.0 | 2.0 | 0.00 | 0.01 | 0.01 | 88 | 1012.9 |
| 20260901014555 | 82 | 313 | 0.0 | 2.0 | 0.00 | 0.01 | 0.01 | 88 | 1012.9 |
| 20260901014455 | 82 | 0 | 0.0 | 2.0 | 0.00 | 0.01 | 0.01 | 87 | 1012.8 |
| 20260901014355 | 82 | 313 | 0.0 | 2.0 | 0.00 | 0.01 | 0.01 | 87 | 1012.8 |
| 20260901014254 | 82 | 0 | 0.0 | 1.0 | 0.00 | 0.01 | 0.01 | 87 | 1012.8 |
| 20260901014154 | 82 | 0 | 0.0 | 1.0 | 0.00 | 0.01 | 0.01 | 87 | 1012.8 |
| 20260901014106 | 82 | 332 | 0.0 | 1.0 | 0.00 | 0.01 | 0.01 | 87 | 1012.8 |
| 20260901014052 | 82 | 329 | 0.0 | 1.0 | 0.00 | 0.01 | 0.01 | 87 | 1012.8 |
| 20260901013949 | 82 | 330 | 0.0 | 1.0 | 0.00 | 0.01 | 0.01 | 87 | 1012.8 |
| 20260901013846 | 82 | 36 | 0.0 | 1.0 | 0.00 | 0.01 | 0.01 | 87 | 1012.8 |
| 20260901013746 | 82 | 343 | 0.0 | 1.0 | 0.00 | 0.01 | 0.01 | 87 | 1012.8 |
| 20260901013643 | 82 | 311 | 0.0 | 1.0 | 0.00 | 0.01 | 0.01 | 87 | 1012.8 |
| 20260901013602 | 82 | 0 | 0.0 | 1.0 | 0.00 | 0.01 | 0.01 | 87 | 1012.8 |
| 20260901013543 | 82 | 357 | 0.0 | 1.0 | 0.00 | 0.01 | 0.01 | 87 | 1012.8 |
| 20260901013439 | 82 | 0 | 0.0 | 2.0 | 0.00 | 0.01 | 0.01 | 87 | 1012.8 |
| 20260901013339 | 82 | 0 | 0.0 | 2.0 | 0.00 | 0.01 | 0.01 | 87 | 1012.8 |
| 20260901013237 | 82 | 285 | 0.0 | 2.0 | 0.00 | 0.01 | 0.01 | 87 | 1012.8 |
| 20260901013136 | 82 | 314 | 0.0 | 2.0 | 0.00 | 0.01 | 0.01 | 87 | 1012.8 |
| 20260901013100 | 82 | 0 | 0.0 | 2.0 | 0.00 | 0.01 | 0.01 | 87 | 1012.8 |
| 20260901013033 | 82 | 349 | 0.0 | 2.0 | 0.00 | 0.01 | 0.01 | 87 | 1012.8 |
| 20260901012933 | 83 | 0 | 0.0 | 2.0 | 0.00 | 0.01 | 0.01 | 87 | 1012.8 |
| 20260901012833 | 83 | 341 | 0.0 | 2.0 | 0.00 | 0.01 | 0.01 | 87 | 1012.8 |
| 20260901012731 | 83 | 212 | 0.0 | 2.0 | 0.00 | 0.01 | 0.01 | 87 | 1012.8 |
| 20260901012631 | 83 | 301 | 0.0 | 2.0 | 0.00 | 0.01 | 0.01 | 87 | 1012.8 |
| 20260901012528 | 83 | 0 | 0.0 | 2.0 | 0.00 | 0.01 | 0.01 | 87 | 1012.8 |
| 20260901012430 | 83 | 51 | 0.0 | 2.0 | 0.00 | 0.01 | 0.01 | 87 | 1012.8 |
| 20260901012329 | 83 | 62 | 0.0 | 2.0 | 0.00 | 0.01 | 0.01 | 87 | 1012.8 |
| 20260901012228 | 83 | 83 | 0.0 | 2.0 | 0.00 | 0.01 | 0.01 | 86 | 1012.8 |
| 20260901012128 | 83 | 0 | 0.0 | 2.0 | 0.00 | 0.01 | 0.01 | 86 | 1012.8 |
| 20260901012050 | 83 | 336 | 0.0 | 2.0 | 0.00 | 0.01 | 0.01 | 86 | 1012.8 |
| 20260901012025 | 83 | 0 | 0.0 | 2.0 | 0.00 | 0.01 | 0.01 | 86 | 1012.8 |
| 20260901011925 | 83 | 321 | 0.0 | 2.0 | 0.00 | 0.01 | 0.01 | 86 | 1012.8 |
| 20260901011821 | 83 | 73 | 0.0 | 2.0 | 0.00 | 0.01 | 0.01 | 86 | 1012.8 |
| 20260901011719 | 83 | 18 | 0.0 | 2.0 | 0.00 | 0.01 | 0.01 | 86 | 1012.8 |
| 20260901011616 | 83 | 84 | 0.0 | 2.0 | 0.00 | 0.01 | 0.01 | 86 | 1012.8 |
| 20260901011550 | 83 | 43 | 0.0 | 2.0 | 0.00 | 0.01 | 0.01 | 86 | 1012.8 |
| 20260901011513 | 83 | 107 | 0.0 | 2.0 | 0.00 | 0.01 | 0.01 | 86 | 1012.8 |
| 20260901011404 | 83 | 112 | 0.0 | 1.0 | 0.00 | 0.01 | 0.01 | 86 | 1012.8 |
| 20260901011304 | 83 | 39 | 0.0 | 1.0 | 0.00 | 0.01 | 0.01 | 86 | 1012.8 |
| 20260901011204 | 83 | 0 | 0.0 | 2.0 | 0.00 | 0.01 | 0.01 | 86 | 1012.8 |
| 20260901011104 | 83 | 82 | 0.0 | 2.0 | 0.00 | 0.01 | 0.01 | 86 | 1012.8 |
| 20260901011051 | 83 | 111 | 0.0 | 2.0 | 0.00 | 0.01 | 0.01 | 86 | 1012.8 |
| 20260901011005 | 83 | 93 | 0.0 | 2.0 | 0.00 | 0.01 | 0.01 | 85 | 1012.8 |
| 20260901010904 | 83 | 52 | 0.0 | 2.0 | 0.00 | 0.01 | 0.01 | 85 | 1012.8 |
| 20260901010804 | 83 | 60 | 0.0 | 2.0 | 0.00 | 0.01 | 0.01 | 85 | 1012.8 |
| 20260901010705 | 84 | 39 | 0.0 | 2.0 | 0.00 | 0.01 | 0.01 | 85 | 1012.8 |
| 20260901010604 | 84 | 0 | 0.0 | 2.0 | 0.00 | 0.01 | 0.01 | 85 | 1012.8 |
| 20260901010550 | 84 | 333 | 0.0 | 2.0 | 0.00 | 0.01 | 0.01 | 85 | 1012.8 |
| 20260901010501 | 84 | 341 | 0.0 | 2.0 | 0.00 | 0.01 | 0.01 | 85 | 1012.9 |
| 20260901010401 | 84 | 87 | 0.0 | 2.0 | 0.00 | 0.01 | 0.01 | 85 | 1012.9 |
| 20260901010301 | 84 | 339 | 0.0 | 2.0 | 0.00 | 0.01 | 0.01 | 85 | 1012.9 |
| 20260901010201 | 84 | 71 | 0.0 | 2.0 | 0.00 | 0.01 | 0.01 | 85 | 1012.9 |
| 20260901010051 | 84 | 151 | 0.0 | 2.0 | 0.00 | 0.01 | 0.01 | 85 | 1012.8 |
| 20260901010002 | 84 | 8 | 0.0 | 2.0 | 0.00 | 0.01 | 0.01 | 85 | 1012.8 |
| 20260901005901 | 84 | 0 | 0.0 | 2.0 | 0.00 | 0.01 | 0.01 | 85 | 1012.8 |
| 20260901005802 | 84 | 49 | 0.0 | 2.0 | 0.00 | 0.01 | 0.01 | 84 | 1012.8 |
| 20260901005701 | 84 | 36 | 0.0 | 2.0 | 0.00 | 0.01 | 0.01 | 84 | 1012.8 |
| 20260901005551 | 84 | 0 | 0.0 | 2.0 | 0.00 | 0.01 | 0.01 | 84 | 1012.8 |
| 20260901005501 | 84 | 0 | 0.0 | 2.0 | 0.00 | 0.01 | 0.01 | 84 | 1012.8 |
| 20260901005402 | 84 | 85 | 0.0 | 2.0 | 0.00 | 0.01 | 0.01 | 84 | 1012.8 |
| 20260901005316 | 85 | 42 | 0.0 | 2.0 | 0.00 | 0.01 | 0.01 | 83 | 1012.9 |
| 20260901005306 | 85 | 91 | 0.0 | 2.0 | 0.00 | 0.01 | 0.01 | 83 | 1012.8 |
| 20260901005203 | 85 | 101 | 0.0 | 2.0 | 0.00 | 0.01 | 0.01 | 83 | 1012.8 |
| 20260901005157 | 85 | 54 | 0.0 | 2.0 | 0.00 | 0.01 | 0.01 | 83 | 1012.9 |
| 20260901005002 | 85 | 21 | 0.0 | 2.0 | 0.00 | 0.01 | 0.01 | 83 | 1012.9 |
| 20260901004902 | 85 | 0 | 0.0 | 2.0 | 0.00 | 0.01 | 0.01 | 83 | 1012.9 |
| 20260901004802 | 85 | 15 | 0.0 | 2.0 | 0.00 | 0.01 | 0.01 | 83 | 1012.9 |
| 20260901004656 | 85 | 316 | 0.0 | 2.0 | 0.00 | 0.01 | 0.01 | 83 | 1012.9 |
| 20260901004556 | 85 | 52 | 0.0 | 2.0 | 0.00 | 0.01 | 0.01 | 83 | 1012.9 |
| 20260901004551 | 85 | 0 | 0.0 | 2.0 | 0.00 | 0.01 | 0.01 | 83 | 1012.9 |
| 20260901004455 | 85 | 0 | 0.0 | 2.0 | 0.00 | 0.01 | 0.01 | 83 | 1012.9 |
| 20260901004355 | 85 | 16 | 0.0 | 2.0 | 0.00 | 0.01 | 0.01 | 83 | 1012.9 |
| 20260901004316 | 85 | 321 | 0.0 | 2.0 | 0.00 | 0.01 | 0.01 | 83 | 1012.9 |
| 20260901004253 | 85 | 66 | 0.0 | 2.0 | 0.00 | 0.01 | 0.01 | 83 | 1012.9 |
| 20260901004202 | 85 | 329 | 0.0 | 2.0 | 0.00 | 0.01 | 0.01 | 83 | 1012.9 |
| 20260901004157 | 85 | 321 | 0.0 | 2.0 | 0.00 | 0.01 | 0.01 | 83 | 1012.9 |
| 20260901003953 | 85 | 0 | 1.0 | 2.0 | 0.00 | 0.01 | 0.01 | 82 | 1012.9 |
| 20260901003853 | 85 | 79 | 1.0 | 2.0 | 0.00 | 0.01 | 0.01 | 82 | 1012.9 |
| 20260901003752 | 85 | 0 | 1.0 | 3.0 | 0.00 | 0.01 | 0.01 | 82 | 1012.9 |
| 20260901003650 | 85 | 49 | 1.0 | 3.0 | 0.00 | 0.01 | 0.01 | 82 | 1012.8 |
| 20260901003549 | 85 | 0 | 1.0 | 3.0 | 0.00 | 0.01 | 0.01 | 82 | 1012.8 |
| 20260901003447 | 85 | 104 | 1.0 | 3.0 | 0.00 | 0.01 | 0.01 | 82 | 1012.8 |
| 20260901003344 | 85 | 0 | 1.0 | 3.0 | 0.00 | 0.01 | 0.01 | 82 | 1012.8 |
| 20260901003304 | 86 | 65 | 1.0 | 3.0 | 0.00 | 0.01 | 0.01 | 81 | 1012.9 |
| 20260901003241 | 86 | 71 | 1.0 | 3.0 | 0.00 | 0.01 | 0.01 | 81 | 1012.8 |
| 20260901003154 | 86 | 73 | 1.0 | 3.0 | 0.00 | 0.01 | 0.01 | 81 | 1012.8 |
| 20260901003035 | 86 | 86 | 1.0 | 3.0 | 0.00 | 0.01 | 0.01 | 81 | 1012.9 |
| 20260901002930 | 86 | 0 | 1.0 | 3.0 | 0.00 | 0.01 | 0.01 | 81 | 1012.9 |
| 20260901002830 | 86 | 79 | 1.0 | 3.0 | 0.00 | 0.01 | 0.01 | 80 | 1012.9 |
| 20260901002726 | 86 | 0 | 0.0 | 2.0 | 0.00 | 0.01 | 0.01 | 80 | 1012.9 |
| 20260901002623 | 86 | 84 | 0.0 | 2.0 | 0.00 | 0.01 | 0.01 | 80 | 1012.9 |
| 20260901002548 | 86 | 85 | 0.0 | 2.0 | 0.00 | 0.01 | 0.01 | 80 | 1012.9 |
| 20260901002523 | 86 | 66 | 0.0 | 2.0 | 0.00 | 0.01 | 0.01 | 80 | 1012.9 |
| 20260901002423 | 86 | 353 | 0.0 | 2.0 | 0.00 | 0.01 | 0.01 | 80 | 1012.9 |
| 20260901002320 | 86 | 150 | 0.0 | 2.0 | 0.00 | 0.01 | 0.01 | 80 | 1012.9 |
| 20260901002307 | 86 | 95 | 0.0 | 2.0 | 0.00 | 0.01 | 0.01 | 79 | 1012.9 |
| 20260901002219 | 86 | 319 | 0.0 | 2.0 | 0.00 | 0.01 | 0.01 | 79 | 1012.9 |
| 20260901002151 | 86 | 45 | 0.0 | 2.0 | 0.00 | 0.01 | 0.01 | 79 | 1012.9 |
| 20260901002017 | 86 | 34 | 0.0 | 2.0 | 0.00 | 0.01 | 0.01 | 79 | 1012.9 |
| 20260901001917 | 86 | 45 | 0.0 | 2.0 | 0.00 | 0.01 | 0.01 | 79 | 1012.9 |
| 20260901001817 | 86 | 60 | 0.0 | 2.0 | 0.00 | 0.01 | 0.01 | 79 | 1012.9 |
| 20260901001811 | 86 | 93 | 1.0 | 2.0 | 0.00 | 0.01 | 0.01 | 79 | 1012.9 |
| 20260901001711 | 86 | 50 | 1.0 | 2.0 | 0.00 | 0.01 | 0.01 | 79 | 1012.9 |
| 20260901001652 | 86 | 145 | 1.0 | 2.0 | 0.00 | 0.01 | 0.01 | 79 | 1012.9 |
| 20260901001515 | 86 | 0 | 1.0 | 2.0 | 0.00 | 0.01 | 0.01 | 79 | 1012.9 |
| 20260901001406 | 87 | 96 | 1.0 | 2.0 | 0.00 | 0.01 | 0.01 | 78 | 1012.9 |
| 20260901001253 | 87 | 92 | 1.0 | 2.0 | 0.00 | 0.01 | 0.01 | 78 | 1012.9 |
| 20260901001150 | 87 | 0 | 0.0 | 2.0 | 0.00 | 0.01 | 0.01 | 78 | 1012.9 |
| 20260901001046 | 87 | 0 | 0.0 | 2.0 | 0.00 | 0.01 | 0.01 | 78 | 1012.9 |
| 20260901000939 | 87 | 51 | 0.0 | 2.0 | 0.00 | 0.01 | 0.01 | 78 | 1012.9 |
| 20260901000838 | 87 | 65 | 0.0 | 2.0 | 0.00 | 0.01 | 0.01 | 78 | 1012.9 |
| 20260901000738 | 87 | 0 | 0.0 | 2.0 | 0.00 | 0.01 | 0.01 | 78 | 1012.9 |
| 20260901000635 | 87 | 91 | 0.0 | 2.0 | 0.00 | 0.01 | 0.01 | 78 | 1012.9 |
| 20260901000535 | 87 | 101 | 0.0 | 2.0 | 0.00 | 0.01 | 0.01 | 78 | 1012.9 |
| 20260901000429 | 87 | 0 | 0.0 | 2.0 | 0.00 | 0.01 | 0.01 | 78 | 1012.9 |
| 20260901000317 | 87 | 215 | 0.0 | 2.0 | 0.00 | 0.01 | 0.01 | 77 | 1012.9 |
| 20260901000211 | 87 | 0 | 0.0 | 2.0 | 0.00 | 0.01 | 0.01 | 77 | 1012.9 |
| 20260901000031 | 87 | 61 | 1.0 | 2.0 | 0.00 | 0.01 | 0.01 | 77 | 1012.9 |
| 20260831235959 | 87 | 0 | 1.0 | 2.0 | 0.00 | 0.01 | 0.01 | 77 | 1012.9 |
| 20260831235859 | 87 | 10 | 1.0 | 2.0 | 0.00 | 0.01 | 0.01 | 77 | 1012.9 |
| 20260831235759 | 87 | 83 | 1.0 | 2.0 | 0.00 | 0.01 | 0.01 | 77 | 1012.9 |